[[{"header":{"parameterUnit":"m.s-1","parameterCategory":1,"la1":30.6,"la2":28.766,"lo1":-90.7593,"lo2":-88.6598,"dy":0.0162,"dx":0.0183,"nx":116,"ny":114,"refTime":"2023-06-22T06:00:00:Z","depth":0,"parameterNumber":2,"parameterNumberName":"U-component_of_WINDS"},"data":[0.0,0.0,0.0,0.0,0.0,0.0,0.0,0.0,0.0,0.0,0.0,0.0,0.0,0.0,0.0,0.0,0.0,0.0,0.0,0.0,0.0,0.0,0.0,0.0,0.0,0.0,0.0,0.0,0.0,0.0,0.0,0.0,0.0,0.0,0.0,0.0,0.0,0.0,0.0,0.0,0.0,0.0,0.0,0.0,0.0,0.0,0.0,0.0,0.0,0.0,0.0,0.0,0.0,0.0,0.0,0.0,0.0,0.0,0.0,0.0,0.0,0.0,0.0,0.0,0.0,0.0,0.0,0.0,0.0,0.0,0.0,0.0,0.0,0.0,0.0,0.0,0.0,0.0,0.0,0.0,0.0,0.0,0.0,0.0,0.0,0.0,0.0,0.0,0.0,0.0,0.0,0.0,0.0,0.0,0.0,0.0,0.0,0.0,0.0,0.0,0.0,0.0,0.0,0.0,0.0,0.0,0.0,0.0,0.0,0.0,0.0,0.0,0.0,0.0,0.0,0.0,0.0,0.0,0.0,0.0,0.0,0.0,0.0,0.0,0.0,0.0,0.0,0.0,0.0,0.0,0.0,0.0,0.0,0.0,0.0,0.0,0.0,0.0,0.0,0.0,0.0,0.0,0.0,0.0,0.0,0.0,0.0,0.0,0.0,0.0,0.0,0.0,0.0,0.0,0.0,0.0,0.0,0.0,0.0,0.0,0.0,0.0,0.0,0.0,0.0,0.0,0.0,0.0,0.0,0.0,0.0,0.0,0.0,0.0,0.0,0.0,0.0,0.0,0.0,0.0,0.0,0.0,0.0,0.0,0.0,0.0,0.0,0.0,0.0,0.0,0.0,0.0,0.0,0.0,0.0,0.0,0.0,0.0,0.0,0.0,0.0,0.0,0.0,0.0,0.0,0.0,0.0,0.0,0.0,0.0,0.0,0.0,0.0,0.0,0.0,0.0,0.0,0.0,0.0,0.0,0.0,0.0,0.0,0.0,0.0,0.0,0.0,0.0,0.0,0.0,0.0,0.0,0.0,0.0,0.0,0.0,0.0,0.0,0.0,0.0,0.0,0.0,0.0,0.0,0.0,0.0,0.0,0.0,0.0,0.0,0.0,0.0,0.0,0.0,0.0,0.0,0.0,0.0,0.0,0.0,0.0,0.0,0.0,0.0,0.0,0.0,0.0,0.0,0.0,0.0,0.0,0.0,0.0,0.0,0.0,0.0,0.0,0.0,0.0,0.0,0.0,0.0,0.0,0.0,0.0,0.0,0.0,0.0,0.0,0.0,0.0,0.0,0.0,0.0,0.0,0.0,0.0,0.0,0.0,0.0,0.0,0.0,0.0,0.0,0.0,0.0,0.0,0.0,0.0,0.0,0.0,0.0,0.0,0.0,0.0,0.0,0.0,0.0,0.0,0.0,0.0,0.0,0.0,0.0,0.0,0.0,0.0,0.0,0.0,0.0,0.0,0.0,0.0,0.0,0.0,0.0,0.0,0.0,0.0,0.0,0.0,0.0,0.0,0.0,0.0,0.0,0.0,0.0,0.0,0.0,0.0,0.0,0.0,0.0,0.0,0.0,0.0,0.0,0.0,0.0,0.0,0.0,0.0,0.0,0.0,0.0,0.0,0.0,0.0,0.0,0.0,0.0,0.0,0.0,0.0,0.0,0.0,0.0,0.0,0.0,0.0,0.0,0.0,0.0,0.0,0.0,0.0,0.0,0.0,0.0,0.0,0.0,0.0,0.0,0.0,0.0,0.0,0.0,0.0,0.0,0.0,0.0,0.0,0.0,0.0,0.0,0.0,0.0,0.0,0.0,0.0,0.0,0.0,0.0,0.0,0.0,0.0,0.0,0.0,0.0,0.0,0.0,0.0,0.0,0.0,0.0,0.0,0.0,0.0,0.0,0.0,0.0,0.0,0.0,0.0,0.0,0.0,0.0,0.0,0.0,0.0,0.0,0.0,0.0,0.0,0.0,0.0,0.0,0.0,0.0,0.0,0.0,0.0,0.0,0.0,0.0,0.0,0.0,0.0,0.0,0.0,0.0,0.0,0.0,0.0,0.0,0.0,0.0,0.0,0.0,0.0,0.0,0.0,0.0,0.0,0.0,0.0,0.0,0.0,0.0,0.0,0.0,0.0,0.0,0.0,0.0,0.0,0.0,0.0,0.0,0.0,0.0,0.0,0.0,0.0,0.0,0.0,0.0,0.0,0.0,0.0,0.0,0.0,0.0,0.0,0.0,0.0,0.0,0.0,0.0,0.0,0.0,0.0,0.0,0.0,0.0,0.0,0.0,0.0,0.0,0.0,0.0,0.0,0.0,0.0,0.0,0.0,0.0,0.0,0.0,0.0,0.0,0.0,0.0,0.0,0.0,0.0,0.0,0.0,0.0,0.0,0.0,0.0,0.0,0.0,0.0,0.0,0.0,0.0,0.0,0.0,0.0,0.0,0.0,0.0,0.0,0.0,0.0,0.0,0.0,0.0,0.0,0.0,0.0,0.0,0.0,0.0,0.0,0.0,0.0,0.0,0.0,0.0,0.0,0.0,0.0,0.0,0.0,0.0,0.0,0.0,0.0,0.0,0.0,0.0,0.0,0.0,0.0,0.0,0.0,0.0,0.0,0.0,0.0,0.0,0.0,0.0,0.0,0.0,0.0,0.0,0.0,0.0,0.0,0.0,0.0,0.0,0.0,0.0,0.0,0.0,0.0,0.0,0.0,0.0,0.0,0.0,0.0,0.0,0.0,0.0,0.0,0.0,0.0,0.0,0.0,0.0,0.0,0.0,0.0,0.0,0.0,0.0,0.0,0.0,0.0,0.0,0.0,0.0,0.0,0.0,0.0,0.0,0.0,0.0,0.0,0.0,0.0,0.0,0.0,0.0,0.0,0.0,0.0,0.0,0.0,0.0,0.0,0.0,0.0,0.0,0.0,0.0,0.0,0.0,0.0,0.0,0.0,0.0,0.0,0.0,0.0,0.0,0.0,0.0,0.0,0.0,0.0,0.0,0.0,0.0,0.0,0.0,0.0,0.0,0.0,0.0,0.0,0.0,0.0,0.0,0.0,0.0,0.0,0.0,0.0,0.0,0.0,0.0,0.0,0.0,0.0,0.0,0.0,0.0,0.0,0.0,0.0,0.0,0.0,0.0,0.0,0.0,0.0,0.0,0.0,0.0,0.0,0.0,0.0,0.0,0.0,0.0,0.0,0.0,0.0,0.0,0.0,0.0,0.0,0.0,0.0,0.0,0.0,0.0,0.0,0.0,0.0,0.0,0.0,0.0,0.0,0.0,0.0,0.0,0.0,0.0,0.0,0.0,0.0,0.0,0.0,0.0,0.0,0.0,0.0,0.0,0.0,0.0,0.0,0.0,0.0,0.0,0.0,0.0,0.0,0.0,0.0,0.0,0.0,0.0,0.0,0.0,0.0,0.0,0.0,0.0,0.0,0.0,0.0,0.0,0.0,0.0,0.0,0.0,0.0,0.0,0.0,0.0,0.0,0.0,0.0,0.0,0.0,0.0,0.0,0.0,0.0,0.0,0.0,0.0,0.0,0.0,0.0,0.0,0.0,0.0,0.0,0.0,0.0,0.0,0.0,0.0,0.0,0.0,0.0,0.0,0.0,0.0,0.0,0.0,0.0,0.0,0.0,0.0,0.0,0.0,0.0,0.0,0.0,0.0,0.0,0.0,0.0,0.0,0.0,0.0,0.0,0.0,0.0,0.0,0.0,0.0,0.0,0.0,0.0,0.0,0.0,0.0,0.0,0.0,0.0,0.0,0.0,0.0,0.0,0.0,0.0,0.0,0.0,0.0,0.0,0.0,0.0,0.0,0.0,0.0,0.0,0.0,0.0,0.0,0.0,0.0,0.0,0.0,0.0,0.0,0.0,0.0,0.0,0.0,0.0,0.0,0.0,0.0,0.0,0.0,0.0,0.0,0.0,0.0,0.0,0.0,0.0,0.0,0.0,0.0,0.0,0.0,0.0,0.0,0.0,0.0,0.0,0.0,0.0,0.0,0.0,0.0,0.0,0.0,0.0,0.0,0.0,0.0,0.0,0.0,0.0,0.0,0.0,0.0,0.0,0.0,0.0,0.0,0.0,0.0,0.0,0.0,0.0,0.0,0.0,0.0,0.0,0.0,0.0,0.0,0.0,0.0,0.0,0.0,0.0,0.0,0.0,0.0,0.0,0.0,0.0,0.0,0.0,0.0,0.0,0.0,0.0,0.0,0.0,0.0,0.0,0.0,0.0,0.0,0.0,0.0,0.0,0.0,0.0,0.0,0.0,0.0,0.0,0.0,0.0,0.0,0.0,0.0,0.0,0.0,0.0,0.0,0.0,0.0,0.0,0.0,0.0,0.0,0.0,0.0,0.0,0.0,0.0,0.0,0.0,0.0,0.0,0.0,0.0,0.0,0.0,0.0,0.0,0.0,0.0,0.0,0.0,0.0,0.0,0.0,0.0,0.0,0.0,0.0,0.0,0.0,0.0,0.0,0.0,0.0,0.0,0.0,0.0,0.0,0.0,0.0,0.0,0.0,0.0,0.0,0.0,0.0,0.0,0.0,0.0,0.0,0.0,0.0,0.0,0.0,0.0,0.0,0.0,0.0,0.0,0.0,0.0,0.0,0.0,0.0,0.0,0.0,0.0,0.0,0.0,0.0,0.0,0.0,0.0,0.0,0.0,0.0,0.0,0.0,0.0,0.0,0.0,0.0,0.0,0.0,0.0,0.0,0.0,0.0,0.0,0.0,0.0,0.0,0.0,0.0,0.0,0.0,0.0,0.0,0.0,0.0,0.0,0.0,0.0,0.0,0.0,0.0,0.0,0.0,0.0,0.0,0.0,0.0,0.0,0.0,0.0,0.0,0.0,0.0,0.0,0.0,0.0,0.0,0.0,0.0,0.0,0.0,0.0,0.0,0.0,0.0,0.0,0.0,0.0,0.0,0.0,0.0,0.0,0.0,0.0,0.0,0.0,0.0,0.0,0.0,0.0,0.0,0.0,0.0,0.0,0.0,0.0,0.0,0.0,0.0,0.0,0.0,0.0,0.0,0.0,0.0,0.0,0.0,0.0,0.0,0.0,0.0,0.0,0.0,0.0,0.0,0.0,0.0,0.0,0.0,0.0,0.0,0.0,0.0,0.0,0.0,0.0,0.0,0.0,0.0,0.0,0.0,0.0,0.0,0.0,0.0,0.0,0.0,0.0,0.0,0.0,0.0,0.0,0.0,0.0,0.0,0.0,0.0,0.0,0.0,0.0,0.0,0.0,0.0,0.0,0.0,0.0,0.0,0.0,0.0,0.0,0.0,0.0,0.0,0.0,0.0,0.0,0.0,0.0,0.0,0.0,0.0,0.0,0.0,0.0,0.0,0.0,0.0,0.0,0.0,0.0,0.0,0.0,0.0,0.0,0.0,0.0,0.0,0.0,0.0,0.0,0.0,0.0,0.0,0.0,0.0,0.0,0.0,0.0,0.0,0.0,0.0,0.0,0.0,0.0,0.0,0.0,0.0,0.0,0.0,0.0,0.0,0.0,0.0,0.0,0.0,0.0,0.0,0.0,0.0,0.0,0.0,0.0,0.0,0.0,0.0,0.0,0.0,0.0,0.0,0.0,0.0,0.0,0.0,0.0,0.0,0.0,0.0,0.0,0.0,0.0,0.0,0.0,0.0,0.0,0.0,0.0,0.0,0.0,0.0,0.0,0.0,0.0,0.0,0.0,0.0,0.0,0.0,0.0,0.0,0.0,0.0,0.0,0.0,0.0,0.0,0.0,0.0,0.0,0.0,0.0,0.0,0.0,0.0,0.0,0.0,0.0,0.0,0.0,0.0,0.0,0.0,0.0,0.0,0.0,0.0,0.0,0.0,0.0,0.0,0.0,0.0,0.0,0.0,0.0,0.0,0.0,0.0,0.0,0.0,0.0,0.0,0.0,0.0,0.0,0.0,0.0,0.0,0.0,0.0,0.0,0.0,0.0,0.0,0.0,0.0,0.0,0.0,0.0,0.0,0.0,0.0,0.0,0.0,0.0,0.0,0.0,0.0,0.0,0.0,0.0,0.0,0.0,0.0,0.0,0.0,0.0,0.0,0.0,0.0,0.0,0.0,0.0,-2.1105,0.0,0.0,0.0,0.0,0.0,0.0,0.0,0.0,0.0,0.0,0.0,0.0,0.0,0.0,0.0,0.0,0.0,0.0,0.0,0.0,0.0,0.0,0.0,0.0,0.0,0.0,0.0,0.0,0.0,0.0,0.0,0.0,0.0,0.0,0.0,0.0,0.0,0.0,0.0,0.0,0.0,0.0,0.0,0.0,0.0,0.0,0.0,0.0,0.0,0.0,0.0,0.0,0.0,0.0,0.0,0.0,0.0,0.0,0.0,0.0,0.0,0.0,0.0,0.0,0.0,0.0,0.0,0.0,0.0,0.0,0.0,0.0,0.0,0.0,0.0,0.0,0.0,0.0,0.0,0.0,0.0,0.0,0.0,0.0,0.0,0.0,0.0,0.0,0.0,0.0,0.0,0.0,0.0,0.0,0.0,0.0,0.0,0.0,0.0,0.0,0.0,0.0,0.0,0.0,0.0,0.0,0.0,0.0,0.0,0.0,0.0,0.0,0.0,0.0,0.0,0.0,-2.142,0.0,0.0,0.0,0.0,0.0,0.0,0.0,0.0,0.0,0.0,0.0,0.0,0.0,0.0,0.0,0.0,0.0,0.0,0.0,0.0,0.0,0.0,0.0,0.0,0.0,0.0,0.0,0.0,0.0,0.0,0.0,0.0,0.0,0.0,0.0,0.0,0.0,0.0,0.0,0.0,0.0,0.0,0.0,0.0,0.0,0.0,0.0,0.0,0.0,0.0,0.0,0.0,0.0,0.0,0.0,0.0,0.0,0.0,0.0,0.0,0.0,0.0,0.0,0.0,0.0,0.0,0.0,0.0,0.0,0.0,0.0,0.0,0.0,0.0,0.0,0.0,0.0,0.0,0.0,0.0,0.0,0.0,0.0,0.0,0.0,0.0,0.0,0.0,0.0,0.0,0.0,0.0,0.0,0.0,0.0,0.0,0.0,0.0,0.0,0.0,0.0,0.0,0.0,0.0,0.0,0.0,0.0,0.0,-2.5197,-2.5479,-2.5382,-2.4884,-2.4285,-2.3493,-2.2316,-2.1522,-2.0925,-2.0925,0.0,0.0,0.0,0.0,0.0,0.0,0.0,0.0,0.0,0.0,0.0,0.0,0.0,0.0,0.0,0.0,0.0,0.0,0.0,0.0,0.0,0.0,0.0,0.0,0.0,0.0,0.0,0.0,0.0,0.0,0.0,0.0,0.0,0.0,0.0,0.0,0.0,0.0,0.0,0.0,0.0,0.0,0.0,0.0,0.0,0.0,0.0,0.0,0.0,0.0,0.0,0.0,0.0,0.0,0.0,0.0,0.0,0.0,0.0,0.0,0.0,0.0,0.0,0.0,0.0,0.0,0.0,0.0,0.0,0.0,0.0,0.0,0.0,0.0,0.0,0.0,0.0,0.0,0.0,0.0,0.0,0.0,0.0,0.0,0.0,0.0,-1.7549,-1.9517,0.0,0.0,0.0,0.0,0.0,0.0,0.0,0.0,0.0,0.0,0.0,0.0,0.0,-2.639,-2.645,-2.6294,-2.6167,-2.6167,-2.6264,-2.6061,-2.5654,-2.5285,-2.4384,-2.2985,-2.261,0.0,-2.0925,-2.0925,0.0,0.0,0.0,0.0,0.0,0.0,0.0,0.0,0.0,0.0,0.0,0.0,0.0,0.0,0.0,0.0,0.0,0.0,0.0,0.0,0.0,0.0,0.0,0.0,0.0,0.0,0.0,0.0,0.0,0.0,0.0,0.0,0.0,0.0,0.0,0.0,0.0,0.0,0.0,0.0,0.0,0.0,0.0,0.0,0.0,0.0,0.0,0.0,0.0,0.0,0.0,0.0,0.0,0.0,0.0,0.0,0.0,0.0,0.0,0.0,0.0,0.0,0.0,0.0,0.0,0.0,0.0,0.0,0.0,0.0,0.0,0.0,0.0,0.0,0.0,0.0,0.0,0.0,0.0,0.0,0.0,0.0,0.0,0.0,0.0,-1.9206,-2.0428,-2.1626,-2.315,-2.4562,0.0,0.0,0.0,0.0,0.0,0.0,0.0,0.0,0.0,-2.7788,-2.7315,-2.7115,-2.7115,-2.6744,-2.6456,-2.6456,-2.6924,-2.702,-2.6713,-2.633,-2.5344,-2.3952,-2.3094,-2.2013,-2.0925,-2.0925,-2.0925,-2.0941,0.0,0.0,0.0,0.0,-2.1043,-2.0242,0.0,0.0,0.0,0.0,0.0,0.0,0.0,0.0,0.0,0.0,0.0,0.0,0.0,0.0,0.0,0.0,0.0,0.0,0.0,0.0,0.0,0.0,0.0,0.0,0.0,0.0,0.0,0.0,0.0,0.0,0.0,0.0,0.0,0.0,0.0,0.0,0.0,0.0,0.0,0.0,0.0,0.0,0.0,0.0,0.0,0.0,0.0,0.0,0.0,0.0,0.0,0.0,0.0,0.0,0.0,0.0,0.0,0.0,0.0,0.0,0.0,0.0,0.0,0.0,0.0,0.0,0.0,0.0,0.0,0.0,0.0,0.0,0.0,0.0,0.0,0.0,0.0,-2.1057,-2.2173,-2.3132,-2.4454,-2.5771,0.0,0.0,0.0,0.0,0.0,0.0,-2.8757,-2.8757,-2.8757,-2.8757,-2.8269,-2.7882,-2.7882,-2.7315,-2.7125,-2.7125,-2.76,-2.7882,-2.7882,-2.7389,-2.63,-2.473,-2.3764,-2.24,-2.0925,-2.0925,-2.0925,-2.0948,-2.1211,-2.137,-2.1473,-2.1632,-2.1486,-2.0907,0.0,0.0,0.0,0.0,0.0,0.0,0.0,0.0,0.0,0.0,0.0,0.0,0.0,0.0,0.0,0.0,0.0,0.0,0.0,0.0,0.0,0.0,0.0,0.0,0.0,0.0,0.0,0.0,0.0,0.0,0.0,0.0,0.0,0.0,0.0,0.0,0.0,0.0,0.0,0.0,0.0,0.0,0.0,0.0,0.0,0.0,0.0,0.0,0.0,0.0,0.0,0.0,0.0,0.0,0.0,0.0,0.0,0.0,0.0,0.0,0.0,0.0,0.0,0.0,0.0,0.0,0.0,0.0,0.0,0.0,0.0,0.0,0.0,0.0,0.0,0.0,0.0,0.0,0.0,-2.3032,-2.4641,0.0,0.0,0.0,0.0,-2.8757,-2.8757,-2.8746,-2.8757,-2.8757,-2.8757,-2.8757,-2.8746,-2.8757,-2.8757,-2.8653,-2.8653,-2.8653,-2.8757,-2.8757,-2.8746,-2.8477,-2.6999,-2.4827,-2.4571,-2.3103,-2.0925,-2.0925,-2.0925,-2.0925,-2.0941,-2.1155,-2.1409,-2.1091,-2.0651,-2.0128,0.0,0.0,0.0,0.0,0.0,0.0,0.0,0.0,0.0,0.0,0.0,0.0,0.0,0.0,0.0,0.0,0.0,0.0,0.0,0.0,0.0,0.0,0.0,0.0,0.0,0.0,0.0,0.0,0.0,0.0,0.0,0.0,0.0,0.0,0.0,0.0,0.0,0.0,0.0,0.0,0.0,0.0,0.0,0.0,0.0,0.0,0.0,0.0,0.0,0.0,0.0,0.0,0.0,0.0,0.0,0.0,0.0,0.0,0.0,0.0,0.0,0.0,0.0,0.0,0.0,0.0,0.0,0.0,0.0,0.0,0.0,0.0,0.0,0.0,0.0,0.0,0.0,0.0,0.0,-2.4375,-2.5557,0.0,-2.7494,-2.8362,-2.8757,-2.8757,-2.8757,-2.8757,-2.8757,-2.8757,-2.8757,-2.8757,-2.8757,-2.8757,-2.8757,-2.8757,-2.8757,-2.8757,-2.8757,-2.8757,-2.8757,-2.8175,-2.701,-2.5344,-2.4375,-2.3003,-2.1428,-2.1019,-2.0925,-2.0925,-2.0925,-2.0996,-2.1091,-2.0972,-2.079,-2.0462,0.0,0.0,0.0,0.0,0.0,0.0,0.0,0.0,0.0,0.0,0.0,0.0,0.0,0.0,0.0,0.0,0.0,0.0,0.0,0.0,0.0,0.0,0.0,0.0,0.0,0.0,0.0,0.0,0.0,0.0,0.0,0.0,0.0,0.0,0.0,0.0,0.0,0.0,0.0,0.0,0.0,0.0,-0.7235,0.0,0.0,0.0,0.0,0.0,0.0,0.0,0.0,0.0,0.0,0.0,0.0,0.0,0.0,0.0,0.0,0.0,0.0,0.0,0.0,0.0,0.0,0.0,0.0,0.0,0.0,0.0,0.0,0.0,0.0,0.0,0.0,0.0,0.0,0.0,-2.3818,-2.5099,-2.5974,-2.6839,-2.7494,-2.8362,-2.8757,-2.8757,-2.8757,-2.8757,-2.8757,-2.8757,-2.8757,-2.8757,-2.8757,-2.8757,-2.8757,-2.8757,-2.8757,-2.8757,-2.8757,-2.8653,-2.8362,-2.7882,-2.6723,-2.5266,-2.4177,-2.2902,-2.1623,-2.1121,-2.0925,-2.0925,-2.0925,-2.0925,-2.0925,-2.0925,-2.0925,-2.0712,0.0,0.0,0.0,0.0,0.0,0.0,0.0,0.0,0.0,0.0,0.0,0.0,0.0,0.0,0.0,0.0,0.0,0.0,0.0,0.0,0.0,0.0,0.0,0.0,0.0,0.0,0.0,0.0,0.0,0.0,0.0,0.0,0.0,0.0,0.0,0.0,0.0,0.0,0.0,0.0,0.0,0.0,-0.7138,0.0,0.0,0.0,0.0,0.0,0.0,0.0,0.0,0.0,0.0,0.0,0.0,0.0,0.0,0.0,0.0,0.0,0.0,0.0,0.0,0.0,0.0,0.0,0.0,0.0,0.0,0.0,0.0,0.0,0.0,0.0,0.0,0.0,-2.2988,-2.3294,-2.3782,-2.5061,-2.5945,-2.6809,-2.7474,-2.8351,-2.8757,-2.8757,-2.8757,-2.8757,-2.8757,-2.8757,-2.8757,-2.8757,-2.8757,-2.8757,-2.8757,-2.8757,-2.8757,-2.8757,-2.8757,-2.8362,-2.7683,-2.7589,-2.6426,-2.4492,-2.389,-2.2902,-2.1725,-2.1121,-2.0925,-2.0925,-2.0925,-2.0925,-2.0925,-2.0925,-2.0917,-2.0609,0.0,0.0,0.0,0.0,0.0,0.0,0.0,0.0,0.0,0.0,0.0,0.0,0.0,0.0,0.0,0.0,0.0,0.0,0.0,0.0,0.0,0.0,0.0,0.0,0.0,0.0,0.0,0.0,0.0,0.0,0.0,0.0,0.0,0.0,0.0,0.0,0.0,0.0,0.0,0.0,0.0,0.0,-0.6965,0.0,0.0,0.0,0.0,0.0,0.0,0.0,0.0,0.0,0.0,0.0,0.0,0.0,0.0,0.0,0.0,0.0,0.0,0.0,0.0,0.0,0.0,0.0,0.0,0.0,0.0,0.0,0.0,0.0,0.0,0.0,0.0,-2.0958,-2.2757,-2.2679,-2.2949,-2.4192,-2.5407,-2.637,-2.7024,-2.8168,-2.8757,-2.8757,-2.8757,-2.8757,-2.8757,-2.8757,-2.8757,-2.8757,-2.8757,-2.8757,-2.8757,-2.8757,-2.8757,-2.8757,-2.8757,-2.8653,-2.8466,-2.7315,-2.6446,-2.5868,-2.3701,-2.2619,-2.2232,-2.1326,-2.0925,-2.0925,-2.0925,-2.0925,-2.0925,-2.0925,-2.0086,-1.9049,0.0,0.0,0.0,0.0,0.0,0.0,0.0,0.0,0.0,0.0,0.0,0.0,0.0,0.0,0.0,0.0,0.0,0.0,0.0,0.0,0.0,0.0,0.0,0.0,0.0,0.0,0.0,0.0,0.0,0.0,0.0,0.0,0.0,0.0,0.0,0.0,0.0,0.0,0.0,0.0,0.0,0.0,-0.5648,-0.3626,-0.2821,-0.262,-0.2215,-0.1711,-0.1409,-0.2015,0.0,0.0,0.0,0.0,0.0,0.0,0.0,0.0,0.0,0.0,0.0,0.0,0.0,0.0,0.0,0.0,0.0,0.0,0.0,0.0,0.0,0.0,0.0,0.0,-1.9963,-2.014,-2.2152,-2.2245,-2.2434,-2.3392,-2.4452,-2.5438,-2.6074,-2.7151,-2.7947,-2.844,-2.8451,-2.8538,-2.8839,-2.8757,-2.8757,-2.8757,-2.8757,-2.8757,-2.8757,-2.8757,-2.8653,-2.8269,-2.8269,-2.7977,-2.7305,-2.6446,-2.5877,0.0,-2.3619,-2.2728,-2.2426,-2.1623,-2.1121,0.0,0.0,0.0,0.0,0.0,-1.9879,-1.8422,0.0,0.0,0.0,0.0,0.0,0.0,0.0,0.0,0.0,0.0,0.0,0.0,0.0,0.0,0.0,0.0,0.0,0.0,0.0,0.0,0.0,0.0,0.0,0.0,0.0,0.0,0.0,0.0,0.0,0.0,0.0,0.0,0.0,0.0,0.0,0.0,0.0,0.0,0.0,0.0,0.0,0.0,-0.332,-0.171,-0.0906,-0.0806,-0.1107,-0.0906,-0.0605,-0.1109,0.0,0.0,0.0,0.0,0.0,0.0,0.0,0.0,0.0,0.0,0.0,0.0,0.0,0.0,0.0,0.0,0.0,0.0,0.0,0.0,0.0,0.0,0.0,0.0,-1.9249,-1.9131,-2.1365,-2.1877,-2.2223,-2.2813,-2.3587,-2.4336,-2.4947,-2.5823,-2.6753,-2.7735,-2.7822,-2.8039,-2.8555,0.0,0.0,0.0,0.0,-2.8653,-2.8653,-2.856,-2.8175,-2.7494,-2.7494,-2.6733,-2.5392,-2.5294,-2.4913,-2.4242,-2.3538,-2.2929,-2.2325,-2.1818,-2.1326,-2.0814,-2.0814,-2.0925,-2.0917,-2.0814,-1.9776,-1.8422,0.0,0.0,0.0,0.0,0.0,0.0,0.0,0.0,0.0,0.0,0.0,0.0,0.0,0.0,0.0,0.0,0.0,0.0,0.0,0.0,0.0,0.0,0.0,0.0,0.0,0.0,0.0,0.0,0.0,0.0,0.0,0.0,0.0,0.0,0.0,0.0,0.0,0.0,0.0,0.0,0.0,0.0,-0.0,0.1613,0.1816,0.1111,0.1513,0.1411,0.1109,0.0705,0.0805,0.0906,0.0201,0.0,0.0,0.0,0.0,0.0,0.0,0.0,0.0,0.0,0.0,0.0,0.0,0.0,0.0,0.0,0.0,0.0,0.0,0.0,0.0,-1.8706,-1.8727,-1.9131,-2.1365,-2.1779,-2.2051,-2.2777,-2.3332,-2.3887,-2.4595,-2.5637,-2.6346,-2.6621,-2.6901,-2.7154,-2.7249,-2.7588,-2.7872,-2.7872,-2.7872,-2.7872,-2.7872,-2.722,-2.6839,-2.6733,0.0,0.0,-2.6264,-2.5586,-2.5001,-2.4402,-2.322,-2.2325,-2.1827,-2.1326,-2.0609,-1.999,-2.0617,-2.0925,-2.0814,-2.0197,-1.9257,-1.8318,0.0,0.0,0.0,0.0,0.0,0.0,0.0,0.0,0.0,0.0,0.0,0.0,0.0,0.0,0.0,0.0,0.0,0.0,0.0,0.0,0.0,0.0,0.0,0.0,0.0,0.0,0.0,0.0,0.0,0.0,0.0,0.0,0.0,0.0,0.0,0.0,0.0,0.0,0.0,0.0,0.0,0.0,0.4009,0.4024,0.302,0.1609,0.1908,0.221,0.231,0.1605,0.1505,0.1707,0.2512,0.2816,0.2517,0.0,0.0,0.0,0.0,0.0,0.0,0.0,0.0,0.0,0.0,0.0,0.0,0.0,0.0,-1.41,0.0,0.0,-1.5825,-1.7584,-1.8226,-1.9147,-2.0808,-2.1365,-2.183,-2.2176,-2.2443,-2.2914,-2.3536,-2.4177,-2.4743,-2.5324,-2.555,-2.5786,-2.6125,-2.6548,-2.6785,-2.6785,-2.6907,-2.702,-2.702,-2.6638,-2.6264,-2.5877,-2.5877,-2.5684,-2.5304,-2.4609,-2.4106,-2.3809,-2.292,-2.2224,-2.1623,-2.0712,-2.0094,-1.968,-1.9672,-1.9672,-1.9569,-1.9153,-1.852,-1.7786,0.0,0.0,0.0,0.0,0.0,0.0,0.0,0.0,0.0,0.0,0.0,0.0,0.0,0.0,0.0,0.0,0.0,0.0,0.0,0.0,0.0,0.0,0.0,0.0,0.0,0.0,0.0,0.0,0.0,0.0,0.0,0.0,0.0,0.0,0.0,0.0,0.0,0.0,0.0,0.0,0.0,0.0,0.8389,0.6203,0.4107,0.2405,0.2401,0.26,0.28,0.2398,0.26,0.3307,0.4414,0.4824,0.4533,0.3222,0.171,0.0,0.0,0.0,0.0,0.0,0.0,0.0,0.0,0.0,-1.0096,-1.2047,-1.2732,-1.3414,-1.4592,-1.5166,-1.5724,-1.6842,-1.787,-1.8972,-2.0158,-2.0988,-2.1463,-2.1651,-2.1741,-2.1909,-2.2539,-2.2715,-2.3193,-2.4058,-2.4246,-2.4456,-2.4927,-2.5348,-2.5628,-2.5615,-2.5954,-2.6174,-2.6254,-2.6167,-2.5684,-2.5109,-2.5109,-2.4716,-2.4053,-2.3538,-2.312,-2.2719,-2.2005,-2.1505,-2.1003,-1.9879,-1.9361,-1.9153,-1.8415,-1.8108,-1.7898,-1.8101,-1.7786,-1.7147,0.0,0.0,0.0,0.0,0.0,0.0,0.0,0.0,0.0,0.0,0.0,0.0,0.0,0.0,0.0,0.0,0.0,0.0,0.0,0.0,0.0,0.0,0.0,0.0,0.0,0.0,0.0,0.0,0.0,0.0,0.0,0.0,0.0,0.0,0.0,0.0,0.0,0.0,0.0,0.0,0.0,0.0,1.3035,0.9127,0.6572,0.5127,0.5114,0.3698,0.2095,0.3886,0.631,0.8265,0.5596,0.4798,0.4409,0.2408,0.0,0.1406,0.1309,-0.2415,-0.5954,-0.4933,-0.5934,-0.7235,0.0,0.0,-0.9899,-1.1072,-1.2145,-1.3221,-1.479,-1.5083,-1.5648,-1.7044,-1.7326,-1.8149,-2.0068,-2.0439,-2.0808,-2.1642,-2.1741,-2.1731,-2.183,-2.2451,-2.2813,-2.2949,-2.3297,-2.3528,-2.3577,-2.4074,-2.4481,-2.485,-2.4908,-2.5111,-2.5392,-2.4824,-2.444,-2.4341,-2.4341,-2.4035,-2.3429,-2.3329,-2.2417,-2.079,-1.945,-1.8833,-1.8729,-1.8632,-1.8101,-1.7463,-1.7358,-1.6836,-1.6311,-1.7047,-1.7252,-1.7041,0.0,0.0,0.0,0.0,0.0,0.0,0.0,0.0,0.0,0.0,0.0,0.0,0.0,0.0,0.0,0.0,0.0,0.0,0.0,0.0,0.0,0.0,0.0,0.0,0.0,0.0,0.0,0.0,0.0,0.0,0.0,0.0,0.0,0.0,0.0,0.0,0.0,0.0,0.0,0.0,0.0,0.0,1.5763,1.3414,1.0586,0.7926,0.7977,0.7177,0.0,0.0,0.9308,1.0992,0.8411,0.7611,0.7325,0.5729,0.3515,0.0,0.141,-0.0907,-0.3527,0.0,-0.5734,-0.7141,-0.7138,-0.7932,-0.9019,-1.0096,-1.0877,-1.195,-1.3806,-1.4394,-1.5064,0.0,-1.6951,-1.7598,-1.8427,-1.9063,-1.9795,-2.0808,-2.0898,-2.1087,-2.1642,-2.2008,-2.2176,-2.2176,-2.2335,-2.2429,-2.2429,-2.2822,-2.3121,-2.3289,-2.3043,-2.2961,-2.3349,-2.2472,-2.2096,-2.2308,-2.2089,-2.1878,-2.1574,-2.1167,-2.0364,-1.925,-1.8632,-1.8422,-1.8318,-1.7891,-1.7463,-1.7147,-1.6624,-1.6205,-1.5885,-1.6311,-1.6411,-1.6411,0.0,0.0,0.0,0.0,0.0,0.0,0.0,0.0,0.0,0.0,0.0,0.0,0.0,0.0,0.0,0.0,0.0,0.0,0.0,0.0,0.0,0.0,0.0,0.0,0.0,0.0,0.0,0.0,0.0,0.0,0.0,0.0,0.0,0.0,0.0,0.0,0.0,0.0,0.0,0.0,0.0,0.0,1.7596,1.6933,1.4721,1.197,1.0919,1.0462,0.0,0.0,1.1507,1.2495,1.0932,1.0036,0.9454,0.866,0.6032,0.3015,0.1611,0.0302,0.0,-0.302,-0.4931,-0.6442,-0.6639,-0.7138,-0.7832,-0.8913,-0.9797,-1.0974,-1.3119,-1.3908,-1.458,-1.5635,-1.6393,-1.6951,-1.7239,-1.7971,-1.8788,-1.9795,-1.9886,-2.0167,-2.0817,-2.1374,-2.1553,-2.1365,-2.1553,-2.1463,-2.0907,-2.1445,-2.1642,-2.1472,-2.1079,-2.1117,-2.1391,-2.0702,-2.048,-2.0742,-2.0499,-2.0333,-2.0128,-1.9109,-1.8401,-1.8108,-1.7786,-1.7687,-1.7681,-1.7047,-1.6836,-1.6836,-1.6099,-1.5891,-1.5891,-1.5891,-1.5891,-1.5891,0.0,0.0,0.0,0.0,0.0,0.0,0.0,0.0,0.0,0.0,0.0,0.0,0.0,0.0,0.0,0.0,0.0,0.0,0.0,0.0,0.0,0.0,0.0,0.0,0.0,0.0,0.0,0.0,0.0,0.0,0.0,0.0,0.0,0.0,0.0,0.0,0.0,0.0,0.0,0.0,0.0,0.0,1.8769,1.8738,1.8645,1.8021,1.41,0.0,0.0,0.0,1.271,1.2763,1.271,1.1296,0.0,0.9525,0.8759,0.6865,0.2717,0.1206,0.0402,-0.0907,-0.3021,-0.4935,-0.5343,-0.5939,-0.6731,-0.7809,-0.9103,-1.0681,-1.3022,-1.3709,-1.4292,-1.5635,-1.5832,-1.6204,-1.7138,-1.7326,-1.7692,-1.8696,-1.888,-1.888,0.0,-2.0628,-2.1365,-2.0439,-2.1177,-2.0907,-1.898,-1.9803,-2.0062,-1.9477,-1.9501,-1.9678,-2.0047,-2.0285,-2.0361,-2.0377,-2.039,-2.0128,-1.9524,-1.7975,-1.7252,-1.7147,-1.6311,-1.5998,-1.5992,-1.5998,-1.5885,-1.5891,-1.5891,-1.5891,-1.5891,-1.5891,-1.5891,-1.5891,0.0,0.0,0.0,0.0,0.0,0.0,0.0,0.0,0.0,0.0,0.0,0.0,0.0,0.0,0.0,0.0,0.0,0.0,0.0,0.0,0.0,0.0,0.0,0.0,0.0,0.0,0.0,0.0,0.0,0.0,0.0,0.0,0.0,0.0,0.0,0.0,0.0,0.0,0.0,0.0,0.0,0.0,1.9052,1.9116,1.9023,1.8714,0.0,0.0,0.0,0.0,0.0,0.0,1.2962,1.2281,1.141,1.0002,0.8847,0.7666,0.625,0.3623,0.1207,0.0503,-0.0603,-0.2011,-0.3621,-0.4321,-0.512,-0.6822,-0.7717,-0.8901,-1.1263,-1.2436,-1.3511,-1.458,-1.535,-1.592,-1.6298,-1.6298,-1.6669,-1.7692,-1.7785,0.0,0.0,0.0,0.0,-1.9338,-1.9621,-1.953,-1.8788,-1.9155,-1.9212,-1.9055,-1.8318,-1.8203,-1.8542,-1.8178,-1.8046,-1.8259,-1.8033,-1.7654,-1.714,-1.6624,-1.6311,-1.6311,-1.5992,-1.5891,-1.5891,-1.5891,-1.5891,-1.5891,-1.5891,-1.5891,-1.5891,-1.5891,-1.5891,-1.5891,0.0,0.0,0.0,0.0,0.0,0.0,0.0,0.0,0.0,0.0,0.0,0.0,0.0,0.0,0.0,0.0,0.0,0.0,0.0,0.0,0.0,0.0,0.0,0.0,0.0,0.0,0.0,0.0,0.0,0.0,0.0,0.0,0.0,0.0,0.0,0.0,0.0,0.0,0.0,0.0,0.0,0.0,1.9745,1.9787,1.9596,0.0,0.0,0.0,0.0,0.0,0.0,1.6292,1.5668,1.425,1.2341,1.0258,0.9,0.8223,0.8065,0.5942,0.3519,0.2009,0.1105,0.0201,-0.1307,-0.2613,-0.4019,-0.5327,-0.6526,-0.7816,-0.9985,-1.1361,-1.2727,-1.4286,-1.4962,-1.5255,-1.5439,-1.5635,-1.592,-1.619,-1.6574,-1.7044,0.0,0.0,0.0,-1.8241,-1.8603,-1.8519,-1.7777,-1.8056,-1.8056,-1.7777,-1.7131,-1.6862,-1.7067,-1.6596,-1.6546,-1.6742,-1.6708,-1.6418,-1.5891,-1.5891,-1.5891,-1.5891,-1.5891,-1.5891,-1.5891,-1.5891,-1.5891,-1.5891,-1.5891,-1.5891,-1.5891,-1.5891,-1.5891,-1.5891,0.0,0.0,0.0,0.0,0.0,0.0,0.0,0.0,0.0,0.0,0.0,0.0,0.0,0.0,0.0,0.0,0.0,0.0,0.0,0.0,0.0,0.0,0.0,0.0,0.0,0.0,0.0,0.0,0.0,0.0,0.0,0.0,0.0,0.0,0.0,0.0,0.0,0.0,0.0,0.0,0.0,0.0,2.0744,2.0744,0.0,0.0,0.0,0.0,0.0,0.0,0.0,2.0112,2.0182,1.6838,1.2624,1.0608,0.9429,0.8652,0.8134,0.7962,0.7156,0.3819,0.2413,0.1711,0.1209,-0.1007,-0.3123,-0.3527,-0.5425,-0.7515,0.0,0.0,-1.1945,-1.4472,-1.458,-1.4292,-1.4567,-1.5242,-1.5255,0.0,0.0,0.0,0.0,0.0,0.0,-1.6951,0.0,-1.777,-1.592,-1.6669,-1.677,-1.5832,-1.5832,-1.5832,-1.5832,-1.5822,-1.5857,-1.5902,-1.6373,-1.6393,-1.5867,-1.5885,-1.5891,-1.5891,-1.5891,-1.5891,-1.5891,-1.5891,-1.5891,-1.5891,-1.5891,-1.5891,-1.5891,-1.5891,-1.5891,-1.5891,0.0,0.0,0.0,0.0,0.0,0.0,0.0,0.0,0.0,0.0,0.0,0.0,0.0,0.0,0.0,0.0,0.0,0.0,0.0,0.0,0.0,0.0,0.0,0.0,0.0,0.0,0.0,0.0,0.0,0.0,0.0,0.0,0.0,0.0,0.0,0.0,0.0,0.0,0.0,0.0,0.0,0.0,2.0907,0.0,0.0,0.0,0.0,0.0,0.0,0.0,0.0,0.0,1.8044,1.7151,1.6059,1.5525,1.2206,0.8656,0.8107,0.8045,0.7769,0.6545,0.5441,0.3934,0.1613,0.0302,-0.1108,-0.3422,-0.4425,-0.562,0.0,0.0,0.0,-1.2252,-1.2834,0.0,-1.321,-1.3403,0.0,-1.3119,0.0,-1.3505,-1.3505,-1.3505,0.0,0.0,-1.5514,-1.6386,-1.5832,-1.6015,-1.6015,-1.5832,-1.5832,-1.5832,-1.5832,-1.5822,-1.5754,-1.5605,-1.5987,-1.5916,-1.5608,-1.5801,-1.5891,-1.5891,-1.5891,-1.5891,-1.5891,-1.5891,-1.5891,-1.5891,-1.5891,-1.5891,-1.5891,-1.5891,-1.5891,-1.5891,0.0,0.0,0.0,0.0,0.0,0.0,0.0,0.0,0.0,0.0,0.0,0.0,0.0,0.0,0.0,0.0,0.0,0.0,0.0,0.0,0.0,0.0,0.0,0.0,0.0,0.0,0.0,0.0,0.0,0.0,0.0,0.0,0.0,0.0,0.0,0.0,0.0,0.0,0.0,0.0,0.0,0.0,0.0,0.0,0.0,0.0,0.0,0.0,0.0,0.0,0.0,1.726,1.7283,1.7334,1.7191,1.6808,0.0,0.8652,0.8195,0.8031,0.7859,0.745,0.6348,0.4736,0.282,0.1309,-0.0302,-0.2214,-0.332,0.0,-0.6921,-0.8308,0.0,0.0,0.0,0.0,-1.2339,-1.2533,-1.2533,0.0,-1.2436,0.0,-1.2727,-1.2727,-1.2727,0.0,-1.3794,-1.4472,-1.4472,-1.4472,-1.4669,-1.5159,-1.5159,-1.5255,-1.5452,-1.5732,-1.5658,-1.5126,-1.5503,-1.5694,-1.5505,-1.565,-1.5783,-1.5891,0.0,-1.5891,-1.5891,-1.5891,-1.5891,-1.5891,-1.5891,-1.5565,-1.5137,-1.5137,-1.5137,-1.503,0.0,0.0,0.0,0.0,0.0,0.0,0.0,0.0,0.0,0.0,0.0,0.0,0.0,0.0,0.0,0.0,0.0,0.0,0.0,0.0,0.0,0.0,0.0,0.0,0.0,0.0,0.0,0.0,0.0,0.0,0.0,0.0,0.0,0.0,0.0,0.0,0.0,0.0,0.0,0.0,0.0,0.0,0.0,0.0,0.0,0.0,0.0,0.0,0.0,0.0,1.6972,1.7289,1.7261,1.7013,1.6457,1.5274,1.2083,0.8645,0.8195,0.8024,0.7839,0.7338,0.6029,0.4826,0.4124,0.2114,0.0202,-0.0605,0.0,-0.4022,-0.5729,-0.7123,-0.8707,-1.0872,0.0,-1.138,-1.1565,-1.2047,-1.2052,-1.1077,-1.1755,-1.2344,-1.2247,-1.2247,-1.2247,-1.2247,-1.2247,-1.2436,-1.2727,-1.2727,-1.3119,-1.41,-1.41,-1.4298,-1.4688,-1.5202,-1.5035,-1.4463,-1.5008,-1.5263,-1.5396,-1.5433,-1.5572,-1.5789,-1.5819,0.0,-1.5843,-1.5879,-1.5891,-1.5891,-1.5891,-1.5351,-1.4385,-1.4277,-1.4169,-1.4056,0.0,0.0,0.0,0.0,0.0,0.0,0.0,0.0,0.0,0.0,0.0,0.0,0.0,0.0,0.0,0.0,0.0,0.0,0.0,0.0,0.0,0.0,0.0,0.0,0.0,0.0,0.0,0.0,0.0,0.0,0.0,0.0,0.0,0.0,0.0,0.0,0.0,0.0,0.0,0.0,0.0,0.0,0.0,0.0,0.0,0.0,0.0,0.0,0.0,0.0,1.524,1.7283,1.7311,1.5549,1.3165,1.1225,0.9743,0.8659,0.8107,0.7832,0.7543,0.7238,0.6537,0.5436,0.4225,0.3321,0.0,0.0,-0.1108,-0.2315,-0.5427,-0.6032,-0.6927,-0.9501,-0.9706,-0.9809,-1.031,-1.0605,-1.0605,0.0,-1.0212,-1.0404,-1.0113,-1.0113,0.0,0.0,0.0,-1.089,-1.2635,-1.2727,-1.2829,-1.2926,-1.3022,-1.2926,-1.2829,-1.2673,-1.2889,-1.3385,-1.343,-1.3979,-1.4859,-1.5077,-1.5197,-1.5252,-1.5475,0.0,-1.5584,-1.5801,-1.5891,-1.5891,-1.5891,-1.5785,-1.5458,-1.46,-1.4169,-1.4056,0.0,0.0,0.0,0.0,0.0,0.0,0.0,0.0,0.0,0.0,0.0,0.0,0.0,0.0,0.0,0.0,0.0,0.0,0.0,0.0,0.0,0.0,0.0,0.0,0.0,0.0,0.0,0.0,0.0,0.0,0.0,0.0,0.0,0.0,0.0,0.0,0.0,0.0,0.0,0.0,0.0,0.0,0.0,0.0,0.0,0.0,0.0,0.0,0.0,0.0,1.3788,1.4961,1.4967,1.321,1.0891,0.9951,0.9072,0.8287,0.8113,0.7836,0.7543,0.7238,0.6639,0.5839,0.5031,0.0,0.0,0.0906,-0.0604,-0.2315,-0.4321,-0.5527,0.0,-0.8322,-0.9015,-0.9414,-0.9616,-1.0015,-1.0216,-0.9628,-0.992,-1.0019,0.0,-0.9727,0.0,0.0,0.0,-1.0015,-1.0984,-1.1663,-1.195,-1.195,-1.2436,-1.2533,-1.2339,-1.215,-1.215,-1.2344,-1.2154,-1.247,-1.3098,-1.3206,-1.333,-1.3567,-1.4196,0.0,-1.3735,-1.4376,-1.471,-1.4824,-1.4177,-1.4366,-1.4922,-1.3727,-1.329,-1.3073,0.0,0.0,0.0,0.0,0.0,0.0,0.0,0.0,0.0,0.0,0.0,0.0,0.0,0.0,0.0,0.0,0.0,0.0,0.0,0.0,0.0,0.0,0.0,0.0,0.0,0.0,0.0,2.2041,0.0,0.0,0.0,0.0,0.0,0.0,0.0,0.0,0.0,0.0,0.0,0.0,0.0,0.0,0.0,0.0,0.0,0.0,0.0,0.0,0.0,0.0,1.2515,1.2103,1.2145,1.0923,0.9633,0.9583,0.8803,0.8011,0.8021,0.7935,0.7743,0.7338,0.6739,0.6239,0.5737,0.413,0.2621,0.2114,-0.0101,-0.2214,-0.342,-0.5125,-0.6631,0.0,-0.852,-0.9213,-0.9312,-0.9912,-1.0216,0.0,-1.0216,0.0,-0.9727,-0.992,0.0,0.0,0.0,0.0,-0.9628,-1.04,-1.0886,-1.0886,-1.1663,-1.1955,-1.176,-1.1468,-1.1272,-1.1375,-1.0974,-1.1058,-1.1511,-1.1511,-1.1606,-1.1875,-1.2735,0.0,0.0,-1.2812,-1.3251,-1.3409,-1.246,-1.278,-1.3592,-1.2445,-1.2027,-1.1815,0.0,0.0,0.0,0.0,0.0,0.0,0.0,0.0,0.0,0.0,0.0,0.0,0.0,0.0,0.0,0.0,0.0,0.0,0.0,0.0,0.0,0.0,0.0,0.0,0.0,0.0,0.0,2.0808,2.0808,0.0,0.0,0.0,0.0,0.0,0.0,2.3501,0.0,0.0,0.0,0.0,0.0,0.0,0.0,0.0,0.0,0.0,0.0,0.0,0.0,0.0,0.0,0.9908,0.9903,0.9797,0.9596,0.9575,0.0,0.0,0.8035,0.8333,0.8428,0.7434,0.7335,0.7132,0.5834,0.4836,0.3831,0.2315,0.0805,-0.0906,-0.3218,-0.4327,0.0,0.0,0.0,-0.8223,-0.941,-0.9813,-1.0117,-1.0314,0.0,0.0,-1.0019,-1.0019,0.0,0.0,0.0,0.0,-0.9628,-0.9723,-0.9723,-0.9723,-0.9821,-0.992,-0.9821,-0.932,-0.9616,-1.0507,-1.0006,-1.0301,-1.1198,-1.1198,-1.1208,-1.1339,-1.1625,0.0,0.0,-1.203,-1.2127,-1.2142,-1.2038,-1.2053,-1.2091,-1.1013,-1.0654,-1.0465,0.0,0.0,0.0,0.0,0.0,0.0,0.0,0.0,0.0,0.0,0.0,0.0,0.0,0.0,0.0,0.0,0.0,0.0,0.0,0.0,0.0,0.0,0.0,0.0,0.0,0.0,0.0,1.888,1.888,0.0,0.0,0.0,0.0,0.0,0.0,2.1266,0.0,0.0,0.0,0.0,0.0,0.0,0.0,0.0,0.0,0.0,0.0,0.0,0.0,0.0,0.0,0.0,0.8882,0.8598,0.0,0.0,0.8312,0.7925,0.7633,0.7637,0.7733,0.7138,0.6637,0.6234,0.5734,0.4634,0.3328,0.2215,0.0402,-0.1509,-0.3318,-0.4528,-0.5634,0.0,0.0,0.0,-0.8127,-0.8825,-0.9422,-0.9616,-1.0015,0.0,0.0,0.0,0.0,0.0,0.0,0.0,-0.9628,-0.9628,-0.9628,-0.9628,-0.9628,-0.9628,-0.9628,-0.9027,-0.9023,-0.9418,-0.8924,-0.8821,-0.9312,-0.9312,-0.9312,-0.9316,-1.0074,0.0,0.0,-1.0292,-1.069,-1.0693,-1.0092,-1.0673,-1.1813,-1.0745,-1.0212,-1.0095,0.0,0.0,0.0,0.0,0.0,0.0,0.0,0.0,0.0,0.0,0.0,0.0,0.0,0.0,0.0,0.0,0.0,0.0,0.0,0.0,0.0,0.0,0.0,0.0,0.0,0.0,0.0,0.0,0.0,1.7304,0.0,0.0,1.9023,1.8427,0.0,0.0,0.0,0.0,0.0,0.0,0.0,0.0,0.0,0.0,0.0,0.0,0.0,0.0,0.0,0.0,0.0,0.0,0.0,0.0,0.0,0.0,0.8018,0.7832,0.7335,0.7132,0.703,0.6739,0.6437,0.6034,0.5436,0.4031,0.2823,0.2216,-0.0101,-0.2214,-0.3119,-0.4528,-0.5737,0.0,0.0,-0.7332,-0.7633,-0.8329,-0.9023,0.0,0.0,-1.0015,0.0,0.0,0.0,0.0,0.0,0.0,-0.9628,-0.9628,-0.9628,-0.9628,-0.9628,-0.9529,-0.9529,-0.9027,-0.8726,-0.8627,-0.8237,-0.8038,-0.8038,-0.8038,-0.8038,-0.8038,-0.8825,0.0,0.0,-0.8825,-0.9287,-0.9295,-0.8498,-0.9274,-1.071,-0.984,-0.941,-0.9417,0.0,0.0,0.0,0.0,0.0,0.0,0.0,0.0,0.0,0.0,0.0,0.0,0.0,0.0,0.0,0.0,0.0,0.0,0.0,0.0,0.0,0.0,0.0,0.0,0.0,0.0,0.0,0.0,0.0,0.0,0.0,1.6539,1.6539,1.6539,0.0,0.0,0.0,0.0,0.0,0.0,0.0,0.0,0.0,0.0,0.0,0.0,0.0,0.0,0.0,0.0,0.0,0.0,0.0,0.0,0.0,0.0,0.8011,0.7852,0.7341,0.712,0.691,0.6531,0.7033,0.7033,0.4939,0.3325,0.2417,0.2421,-0.0403,-0.2718,-0.2416,-0.4124,-0.5737,-0.6337,-0.6437,0.0,-0.8524,-0.8825,-0.9418,0.0,0.0,-1.1096,0.0,0.0,0.0,0.0,0.0,0.0,-0.9628,-0.9628,-0.9628,-0.9628,-0.9628,-0.943,-0.9236,-0.8928,-0.8627,-0.8432,-0.8137,-0.8038,-0.8038,-0.8038,-0.8038,0.0,0.0,0.0,0.0,-0.8038,-0.8041,-0.8041,-0.8041,-0.8045,-0.8062,-0.7903,-0.7955,-0.7895,0.0,0.0,0.0,0.0,0.0,0.0,0.0,0.0,0.0,0.0,0.0,0.0,0.0,0.0,0.0,0.0,0.0,0.0,0.0,0.0,0.0,0.0,0.0,0.0,0.0,0.0,0.0,0.0,0.0,0.0,0.0,0.0,0.0,1.4435,1.4435,0.0,0.0,0.0,0.0,0.0,0.0,0.0,0.0,0.0,0.0,0.0,0.0,0.0,0.0,0.0,0.0,0.0,0.0,0.0,0.0,0.0,0.0,0.0,0.6748,0.6642,0.6537,0.6139,0.5739,0.5238,0.4539,0.2923,0.1411,0.0907,-0.1108,-0.3021,-0.3927,-0.4931,-0.5934,-0.7033,-0.7232,0.0,0.0,0.0,0.0,-1.0216,-1.01,-0.9698,0.0,0.0,0.0,0.0,0.0,0.0,-0.9628,-0.9628,-0.9628,-0.9628,-0.9628,-0.9529,-0.943,-0.9027,-0.8726,-0.8627,-0.8237,-0.8038,-0.8038,-0.8038,-0.8038,0.0,0.0,0.0,0.0,-0.8038,-0.8038,-0.8038,-0.8038,-0.8038,-0.8045,-0.7992,-0.7769,-0.7558,0.0,0.0,0.0,0.0,0.0,0.0,0.0,0.0,0.0,0.0,0.0,0.0,0.0,0.0,0.0,0.0,0.0,0.0,0.0,0.0,0.0,0.0,0.0,0.0,0.0,0.0,0.0,0.0,0.0,0.0,0.0,0.0,0.0,0.0,0.0,0.0,0.0,0.0,0.0,0.0,0.0,0.0,0.7515,0.0,0.0,0.0,0.0,0.0,0.0,0.0,0.0,0.0,0.0,0.0,0.0,0.0,0.0502,0.3217,0.0,0.5844,0.5844,0.5746,0.4738,0.0,0.3226,0.1713,0.0101,-0.0504,-0.2214,-0.3825,-0.4926,-0.5829,-0.6734,-0.7829,-0.8028,-0.8326,0.0,0.0,0.0,-1.0314,0.0,0.0,0.0,0.0,0.0,0.0,0.0,0.0,-0.9628,-0.9628,-0.9628,-0.9628,-0.9628,-0.9529,-0.943,-0.9027,-0.8726,-0.8627,-0.8237,-0.8038,-0.8038,-0.8038,-0.8038,0.0,0.0,0.0,0.0,-0.8038,-0.8038,-0.8038,-0.8038,-0.8038,-0.7939,-0.7842,-0.7598,-0.7271,0.0,0.0,0.0,0.0,0.0,0.0,0.0,0.0,0.0,0.0,0.0,0.0,0.0,0.0,0.0,0.0,0.0,0.0,0.0,0.0,0.0,0.0,0.0,0.0,0.0,0.0,0.0,0.0,0.7822,0.8117,0.8609,0.0,0.0,0.0,0.0,0.0,0.0,0.0,0.0,0.0,0.0,0.0,0.0,0.0,0.0,0.0,0.0,0.0,0.0,0.0,0.0,0.0,0.0,0.0,0.0,0.0,0.0,0.0,0.0,0.4227,0.4331,0.4843,0.3729,0.2316,0.0,0.0,0.0,-0.1711,-0.342,-0.5029,-0.5615,-0.6819,-0.7928,-0.8726,-0.8924,-0.9122,0.0,-1.0117,0.0,0.0,0.0,0.0,0.0,0.0,0.0,0.0,0.0,0.0,-0.9628,-0.9628,-0.9628,-0.9628,-0.9628,-0.943,-0.9236,-0.8928,-0.8627,-0.8432,-0.8137,-0.8038,-0.8038,-0.8038,-0.8038,0.0,0.0,0.0,0.0,-0.8038,-0.8038,-0.8038,-0.8038,-0.7939,-0.7939,-0.7646,-0.7441,-0.7156,0.0,0.0,0.0,0.0,0.0,0.0,0.0,0.0,0.0,0.0,0.0,0.0,0.0,0.0,0.0,0.0,0.0,0.0,0.0,0.0,0.0,0.0,0.0,0.0,0.0,0.0,0.0,0.6124,0.6124,0.6221,0.6318,0.6318,0.0,0.0,0.0,0.0,0.0,0.0,0.0,0.0,0.0,0.0,0.0,0.0,0.0,0.0,-0.0904,-0.221,0.0,0.0,0.0,0.0,0.0,0.0,0.0,0.0,-0.3008,-0.2907,-0.1699,0.0,-0.1307,-0.1207,0.0101,0.1008,0.0,0.0,0.0,0.0,0.0,-0.6029,-0.722,-0.8021,-0.8825,-0.962,-0.9723,-1.0015,-1.0801,0.0,0.0,-1.1198,0.0,0.0,0.0,0.0,0.0,0.0,0.0,-0.9628,-0.9628,-0.9628,-0.9628,-0.9628,-0.9628,-0.9529,-0.9529,-0.9027,-0.8726,-0.8726,-0.8233,-0.8038,-0.8038,-0.8038,-0.8038,0.0,0.0,0.0,-0.8038,-0.8038,-0.8038,-0.8038,-0.8038,-0.7842,-0.7646,-0.7646,-0.7344,-0.6848,0.0,0.0,0.0,0.0,0.0,0.0,0.0,0.0,0.0,0.0,0.0,0.0,0.0,0.0,0.0,0.0,0.0,0.0,0.0,0.0,0.0,0.0,0.0,0.0,0.0,0.0,0.0,0.0,0.0,0.4772,0.0,0.0,0.0,0.0,0.0,0.0,0.0,0.0,0.0,0.0,0.1607,0.0,0.0,0.0,0.0,0.0,-0.4019,-0.4524,0.0,-0.5434,-0.4816,-0.4503,0.0,0.0,0.0,0.0,-0.6119,-0.6119,-0.6114,-0.471,-0.3211,-0.3211,-0.2106,-0.1203,-0.1604,0.0,0.0,0.0,0.0,-0.7528,-0.8722,-0.9122,-0.962,-1.0408,-1.0507,0.0,0.0,0.0,0.0,0.0,0.0,0.0,0.0,0.0,0.0,0.0,0.0,-0.9628,-0.9628,-0.9628,-0.9628,-0.9628,-0.9628,-0.9529,-0.943,-0.9027,-0.8726,-0.8627,-0.8237,-0.8038,-0.8038,-0.8038,-0.8038,0.0,0.0,0.0,-0.8038,-0.8038,-0.8038,-0.8038,-0.8038,-0.7942,-0.7743,-0.7646,-0.7344,-0.6942,0.0,0.0,0.0,0.0,0.0,0.0,0.0,0.0,0.0,0.0,0.0,0.0,0.0,0.0,0.0,0.0,0.0,0.0,0.0,0.0,0.0,0.0,0.0,0.0,0.0,0.0,0.0,0.0,0.0,0.0,0.0,0.0,0.0,0.0,0.0,0.0,0.0,0.0,0.0,0.0,-0.2211,0.0,0.0,0.0,0.0,0.0,0.0,0.0,0.0,-0.6226,-0.6807,-0.7588,-0.6793,0.0,0.0,0.0,0.0,0.0,-0.985,-0.7198,-0.4386,-0.4196,-0.4194,-0.4191,-0.439,0.0,0.0,0.0,0.0,0.0,0.0,-1.0207,0.0,0.0,0.0,0.0,-1.1194,-1.1194,-1.1194,0.0,0.0,0.0,0.0,0.0,0.0,0.0,0.0,-0.9628,-0.9628,-0.9628,-0.9628,-0.9628,-0.9628,-0.943,-0.9133,-0.8928,-0.8726,-0.8432,-0.8137,-0.8038,-0.8038,-0.8038,-0.8038,-0.8038,0.0,0.0,-0.8038,-0.8038,-0.8038,-0.8038,-0.8038,-0.7939,-0.7839,-0.7643,-0.7341,-0.7036,0.0,0.0,0.0,0.0,0.0,0.0,0.0,0.0,0.0,0.0,0.0,0.0,0.0,0.0,0.0,0.0,0.0,0.0,0.0,0.0,0.0,0.0,0.0,0.0,0.0,0.0,0.0,0.0,0.0,0.0,-0.0515,-0.0618,-0.0716,0.0,0.0,0.0,-0.1909,-0.2211,-0.2913,-0.3817,-0.3917,0.0,0.0,0.0,0.0,0.0,0.0,0.0,0.0,-0.9792,-1.0445,-1.0988,-1.1099,0.0,0.0,0.0,0.0,0.0,-1.095,-1.0489,-0.9751,-0.884,-0.866,-0.8862,-0.9797,0.0,0.0,0.0,0.0,0.0,0.0,-1.1044,-1.1021,0.0,0.0,-1.1194,0.0,0.0,0.0,0.0,0.0,0.0,0.0,0.0,0.0,0.0,0.0,-0.9628,-0.9628,-0.9628,-0.9628,-0.9628,-0.9628,-0.9327,-0.8825,-0.8825,-0.8825,-0.8726,-0.8233,-0.8038,-0.8038,-0.8038,-0.8038,-0.8038,0.0,-0.8038,-0.8038,-0.8038,-0.8038,-0.8038,-0.8038,-0.7736,-0.7338,-0.7238,-0.6939,-0.6537,0.0,0.0,0.0,0.0,0.0,0.0,0.0,0.0,0.0,0.0,0.0,0.0,0.0,0.0,0.0,0.0,0.0,0.0,0.0,0.0,0.0,0.0,0.0,0.0,0.0,0.0,0.0,0.0,0.0,-0.2884,-0.2833,-0.2493,-0.256,-0.2917,0.0,0.0,-0.5233,-0.5331,-0.5632,-0.6034,0.0,0.0,0.0,0.0,0.0,0.0,0.0,0.0,0.0,0.0,-1.2119,-1.2592,-1.3397,0.0,0.0,0.0,0.0,0.0,-1.4502,-1.4539,-1.3858,-1.1123,-1.0485,-1.0636,-1.1072,0.0,0.0,0.0,0.0,0.0,0.0,0.0,-1.153,-1.2711,0.0,0.0,0.0,0.0,0.0,0.0,0.0,0.0,0.0,0.0,0.0,0.0,0.0,0.0,-0.9628,-0.9628,-0.9628,-0.9628,-0.9628,-0.9426,-0.9031,-0.8825,-0.8627,-0.8333,-0.8137,-0.8038,-0.8038,-0.8038,-0.8038,-0.8038,0.0,-0.8038,-0.8038,-0.8038,-0.8038,-0.8038,-0.8038,-0.7739,-0.7341,-0.7042,-0.6739,-0.6437,0.0,0.0,0.0,0.0,0.0,0.0,0.0,0.0,0.0,0.0,0.0,0.0,0.0,0.0,0.0,0.0,0.0,0.0,0.0,0.0,0.0,0.0,0.0,0.0,0.0,0.0,0.0,-0.3835,-0.4609,-0.5005,-0.5022,-0.4599,-0.4513,0.0,0.0,0.0,-0.7656,-0.8148,-0.8343,-0.8343,0.0,0.0,0.0,0.0,0.0,0.0,0.0,0.0,0.0,0.0,0.0,0.0,0.0,0.0,0.0,-1.7363,-1.7764,-1.7836,-1.8048,-1.8172,-1.7305,-1.3549,-1.2624,-1.237,-1.1404,0.0,0.0,0.0,0.0,0.0,0.0,-1.2592,0.0,-1.4758,0.0,0.0,0.0,0.0,0.0,0.0,0.0,0.0,0.0,0.0,0.0,0.0,0.0,0.0,-0.9628,-0.9628,-0.9628,-0.9628,-0.9628,-0.943,-0.9133,-0.8928,-0.8528,-0.8137,-0.8038,-0.8038,-0.8038,-0.8038,-0.8038,-0.8038,-0.8038,-0.8038,-0.8038,-0.8038,-0.7942,-0.7942,-0.7942,-0.7743,-0.7344,-0.6842,-0.6539,-0.6437,0.0,0.0,0.0,0.0,0.0,0.0,0.0,0.0,0.0,0.0,0.0,0.0,0.0,0.0,0.0,0.0,0.0,0.0,0.0,0.0,0.0,0.0,0.0,0.0,0.0,-0.538,-0.6272,-0.7257,-0.749,-0.7538,-0.7507,-0.7593,-0.7573,-0.7545,0.0,0.0,-0.9118,-1.0096,-1.0685,-1.0979,-1.117,0.0,0.0,0.0,0.0,0.0,0.0,0.0,0.0,0.0,0.0,0.0,0.0,0.0,-1.8619,-1.906,-1.9147,-1.9414,-2.0365,-2.0676,-1.9987,-1.753,-1.6836,0.0,-1.2076,-1.416,0.0,-1.6854,0.0,0.0,0.0,-1.6854,-1.6922,-1.7028,0.0,0.0,0.0,0.0,0.0,0.0,0.0,0.0,0.0,0.0,0.0,0.0,0.0,0.0,-0.9628,-0.9628,-0.9628,-0.9628,-0.9628,-0.9327,-0.8825,-0.8825,-0.8627,-0.8333,-0.8137,-0.8038,-0.8038,-0.8038,-0.8038,-0.8038,-0.8038,-0.8038,-0.8038,-0.8038,-0.7842,-0.7646,-0.7646,-0.7344,-0.6842,-0.6539,-0.6437,-0.6437,0.0,0.0,0.0,0.0,0.0,0.0,0.0,0.0,0.0,0.0,0.0,0.0,0.0,0.0,0.0,0.0,0.0,0.0,0.0,0.0,0.0,0.0,0.0,-0.913,-0.8569,-0.8247,-0.8689,-1.0002,-1.012,-1.0144,-1.0186,-1.0071,0.0,0.0,0.0,0.0,-1.0489,-1.0877,-1.117,-1.1463,-1.2206,-1.2973,0.0,0.0,0.0,0.0,0.0,0.0,0.0,0.0,-1.8048,-1.8619,0.0,0.0,-1.9695,-1.9812,-2.0184,-2.0572,-2.0995,-2.1853,-2.2462,-2.1581,-2.1125,0.0,0.0,-1.623,-1.7338,-1.7265,-1.7342,0.0,0.0,0.0,0.0,0.0,0.0,0.0,0.0,0.0,0.0,0.0,0.0,0.0,0.0,0.0,0.0,0.0,0.0,0.0,-0.9628,-0.9628,-0.9628,-0.9628,-0.943,-0.913,-0.8825,-0.8627,-0.8432,-0.8137,-0.8038,-0.8038,-0.8038,-0.8038,-0.8038,-0.8038,-0.8038,-0.8038,-0.8038,-0.8038,-0.7842,-0.7547,-0.7244,-0.6945,-0.6742,-0.6537,-0.6437,-0.6437,0.0,0.0,0.0,0.0,0.0,0.0,0.0,0.0,0.0,0.0,0.0,0.0,0.0,0.0,0.0,0.0,0.0,0.0,0.0,0.0,0.0,0.0,0.0,-1.0996,-1.1647,-1.0979,-1.0975,-1.1638,-1.1746,-1.1788,-1.187,0.0,0.0,0.0,0.0,0.0,0.0,0.0,-1.3369,-1.3471,-1.4386,-1.524,0.0,0.0,0.0,0.0,0.0,0.0,0.0,0.0,0.0,0.0,0.0,0.0,0.0,0.0,-2.1203,-2.1823,-2.1913,-2.2834,-2.3672,-2.3771,0.0,0.0,-1.9796,-1.9118,-1.9149,-1.915,-1.9134,0.0,0.0,0.0,0.0,0.0,0.0,0.0,0.0,0.0,0.0,0.0,0.0,0.0,0.0,0.0,0.0,0.0,0.0,0.0,0.0,-0.9628,-0.9628,-0.9628,-0.9335,-0.9031,-0.8825,-0.8531,-0.8233,-0.8038,-0.8038,-0.8038,-0.8038,-0.8038,-0.8038,-0.8038,-0.8038,-0.8038,-0.8038,-0.7942,-0.7643,-0.7347,-0.6842,-0.6642,-0.6642,-0.6437,-0.6437,-0.6437,0.0,0.0,0.0,0.0,0.0,0.0,0.0,0.0,0.0,0.0,0.0,0.0,0.0,0.0,0.0,0.0,0.0,0.0,0.0,0.0,0.0,0.0,0.0,-1.1647,-1.3701,-1.3701,-1.3166,-1.2091,-1.2304,-1.2417,-1.2413,-1.2307,0.0,0.0,0.0,0.0,0.0,0.0,-1.7755,-1.739,-1.8118,-1.8395,-1.8488,0.0,0.0,0.0,0.0,0.0,0.0,0.0,0.0,0.0,0.0,0.0,0.0,0.0,-2.2413,-2.3144,-2.3406,-2.3503,-2.3503,0.0,0.0,0.0,-2.3144,-2.3092,-2.3109,-2.3109,0.0,-2.3109,-2.3109,0.0,0.0,0.0,0.0,0.0,0.0,0.0,0.0,0.0,0.0,0.0,0.0,0.0,0.0,0.0,0.0,0.0,0.0,-0.9628,-0.9628,-0.9628,-0.9335,-0.9031,-0.8825,-0.8531,-0.8233,-0.7939,-0.8038,-0.8038,-0.8038,-0.8038,-0.8038,-0.8038,-0.8038,-0.8038,-0.7942,-0.7743,-0.7244,-0.6742,-0.6537,-0.6437,-0.6437,-0.6437,-0.6437,-0.6439,0.0,0.0,0.0,0.0,0.0,0.0,0.0,0.0,0.0,0.0,0.0,0.0,0.0,0.0,0.0,0.0,0.0,0.0,0.0,0.0,0.0,0.0,0.0,0.0,0.0,0.0,-1.5125,-1.4696,-1.5429,-1.5749,0.0,0.0,0.0,-1.6327,0.0,0.0,0.0,0.0,-1.8033,-1.8118,-1.9047,-1.9604,-1.9786,0.0,0.0,0.0,0.0,0.0,0.0,0.0,0.0,0.0,0.0,0.0,0.0,0.0,-2.4307,-2.4734,-2.356,-2.3744,0.0,-2.3406,0.0,0.0,0.0,-2.3057,0.0,0.0,0.0,-2.3055,0.0,0.0,0.0,0.0,0.0,0.0,0.0,0.0,0.0,0.0,0.0,0.0,0.0,0.0,0.0,0.0,0.0,0.0,0.0,-0.9628,-0.9529,-0.9335,-0.9031,-0.8428,-0.7428,-0.7832,-0.7736,-0.6836,-0.764,-0.8038,-0.8038,-0.8038,-0.8038,-0.8038,-0.8038,-0.8038,-0.7942,-0.754,-0.7141,-0.6742,-0.6537,-0.6445,-0.6356,-0.6356,-0.6358,-0.6366,0.0,0.0,0.0,0.0,0.0,0.0,0.0,0.0,0.0,0.0,0.0,0.0,0.0,0.0,0.0,0.0,0.0,0.0,0.0,0.0,0.0,0.0,0.0,0.0,0.0,-1.6935,-1.7246,0.0,0.0,0.0,0.0,0.0,0.0,-1.8535,0.0,-1.932,0.0,0.0,-1.9861,-1.9943,-2.1033,-2.1578,-2.1765,0.0,0.0,0.0,0.0,0.0,0.0,0.0,0.0,0.0,0.0,0.0,0.0,-2.4498,-2.5158,-2.5495,-2.382,-2.4155,0.0,-2.3387,-2.3396,-2.3647,-2.3647,0.0,0.0,0.0,0.0,-2.3135,0.0,0.0,0.0,0.0,0.0,0.0,0.0,0.0,0.0,0.0,0.0,0.0,0.0,0.0,0.0,0.0,0.0,0.0,0.0,-0.9628,-0.943,-0.9236,-0.8528,-0.7723,-0.683,-0.7135,-0.7036,-0.6437,-0.7437,-0.8038,-0.8038,-0.8038,-0.8038,-0.8038,-0.8038,-0.7942,-0.7842,-0.7338,-0.7039,-0.6745,-0.6548,-0.6353,-0.6261,-0.5448,-0.5146,-0.5253,0.0,0.0,0.0,0.0,0.0,0.0,0.0,0.0,0.0,0.0,0.0,0.0,0.0,0.0,0.0,0.0,0.0,0.0,0.0,0.0,0.0,0.0,0.0,0.0,0.0,0.0,0.0,0.0,0.0,0.0,0.0,0.0,-1.9969,-1.94,0.0,-2.0559,0.0,0.0,0.0,-2.2296,-2.3357,-2.38,-2.38,-2.38,0.0,0.0,0.0,0.0,0.0,0.0,0.0,0.0,0.0,0.0,-2.5189,-2.4754,-2.5242,-2.5663,-2.4251,0.0,0.0,-2.3724,-2.3907,0.0,-2.4498,-2.3734,-2.3135,-2.3222,0.0,0.0,0.0,0.0,0.0,0.0,0.0,0.0,0.0,0.0,0.0,0.0,0.0,0.0,0.0,0.0,0.0,0.0,0.0,0.0,0.0,-0.9529,-0.943,-0.9133,-0.7826,-0.7024,-0.6628,-0.6434,-0.6334,-0.6234,-0.7338,-0.7839,-0.7839,-0.7939,-0.7939,-0.7839,-0.7839,-0.7643,-0.7347,-0.7241,-0.7045,-0.6748,-0.6461,-0.6364,-0.6163,-0.4236,-0.3225,-0.3225,0.0,0.0,0.0,0.0,0.0,0.0,0.0,0.0,0.0,0.0,0.0,0.0,0.0,0.0,0.0,0.0,0.0,0.0,0.0,0.0,0.0,0.0,0.0,0.0,0.0,0.0,0.0,0.0,0.0,0.0,0.0,0.0,0.0,-2.2303,0.0,-2.317,0.0,0.0,-2.3541,-2.3444,-2.3714,-2.38,-2.38,-2.38,0.0,0.0,0.0,0.0,0.0,0.0,0.0,0.0,-2.4988,-2.5326,-2.5421,-2.56,-2.6185,-2.6599,-2.5274,-2.56,0.0,0.0,-2.4829,-2.4498,-2.4498,-2.3734,-2.3309,-2.4069,-2.3647,0.0,0.0,0.0,0.0,0.0,0.0,0.0,0.0,0.0,0.0,0.0,0.0,0.0,0.0,0.0,0.0,0.0,0.0,0.0,-0.9628,-0.943,-0.9133,-0.8928,-0.7627,-0.6326,-0.5225,-0.6032,-0.5932,0.0,-0.6234,-0.6736,-0.6736,-0.764,-0.7537,-0.6736,-0.6736,-0.6439,-0.5944,-0.7051,-0.7062,-0.6469,-0.6374,-0.6377,-0.6385,-0.5874,-0.3536,-0.0707,0.0,0.0,0.0,0.0,0.0,0.0,0.0,0.0,0.0,0.0,0.0,0.0,0.0,0.0,0.0,0.0,0.0,0.0,0.0,0.0,0.0,0.0,0.0,0.0,0.0,0.0,0.0,0.0,0.0,0.0,0.0,0.0,0.0,-2.4501,0.0,-2.4386,0.0,0.0,0.0,-2.4327,-2.4669,-2.485,-2.485,0.0,0.0,0.0,0.0,0.0,0.0,0.0,0.0,0.0,0.0,0.0,-2.6008,-2.5957,-2.6528,-2.6928,-2.5527,0.0,0.0,-2.6008,0.0,-2.4166,-2.468,-2.3993,-2.3484,-2.4145,0.0,0.0,0.0,0.0,0.0,0.0,0.0,0.0,0.0,0.0,0.0,0.0,0.0,0.0,0.0,0.0,0.0,0.0,0.0,-0.9529,-0.943,-0.8825,-0.8226,-0.7826,-0.6124,-0.4824,-0.4024,-0.4628,-0.4628,-0.4024,-0.5129,-0.5629,-0.5629,-0.6229,-0.6129,-0.5629,-0.5629,-0.5634,-0.5644,-0.6247,-0.605,-0.5349,-0.6073,-0.6388,-0.6183,-0.4046,-0.1919,-0.0,0.0,0.0,0.0,0.0,0.0,0.0,0.0,0.0,0.0,0.0,0.0,0.0,0.0,0.0,0.0,0.0,0.0,0.0,0.0,0.0,0.0,0.0,0.0,0.0,0.0,0.0,0.0,0.0,0.0,0.0,0.0,0.0,0.0,-2.6072,0.0,0.0,0.0,0.0,0.0,0.0,0.0,0.0,0.0,0.0,0.0,0.0,0.0,-2.5895,-2.5895,-2.5895,0.0,0.0,0.0,0.0,-2.6373,-2.5979,-2.6385,-2.6775,-2.5695,0.0,-2.6928,-2.6008,-2.4754,0.0,-2.4765,-2.409,-2.3396,-2.3531,0.0,0.0,0.0,0.0,0.0,0.0,0.0,0.0,0.0,0.0,0.0,0.0,0.0,0.0,0.0,0.0,0.0,0.0,0.0,-0.9126,-0.8931,-0.7819,-0.7021,-0.6528,-0.4624,-0.3422,-0.3224,-0.3224,-0.3224,-0.3224,-0.4124,-0.4425,-0.4225,-0.4225,-0.4325,-0.4524,-0.4524,-0.4728,-0.5135,-0.514,-0.4433,-0.3423,-0.4752,-0.5267,-0.4859,-0.1313,-0.0,-0.0,0.0,0.0,0.0,0.0,0.0,0.0,0.0,0.0,0.0,0.0,0.0,0.0,0.0,0.0,0.0,0.0,0.0,0.0,-2.3194,0.0,0.0,-2.4097,-2.4599,0.0,0.0,0.0,0.0,0.0,0.0,0.0,0.0,0.0,0.0,-2.6733,0.0,0.0,0.0,0.0,0.0,0.0,0.0,0.0,0.0,0.0,0.0,0.0,0.0,0.0,-2.5895,-2.5895,-2.5895,0.0,0.0,0.0,-2.5979,-2.5906,-2.5979,-2.6135,0.0,0.0,-2.6835,0.0,-2.4904,-2.4498,0.0,0.0,-2.2334,0.0,0.0,0.0,0.0,0.0,0.0,0.0,0.0,0.0,0.0,0.0,0.0,0.0,0.0,0.0,0.0,0.0,0.0,0.0,-0.8212,-0.7508,-0.7816,-0.6323,-0.5527,-0.5429,-0.4026,-0.3224,-0.3224,-0.3224,-0.3224,-0.3224,-0.3324,-0.2923,-0.2019,-0.2019,-0.2521,-0.3423,-0.3423,-0.2923,-0.2322,-0.363,-0.2723,-0.0606,-0.0808,-0.0808,-0.0808,-0.0202,-0.0,-0.0,0.0,0.0,0.0,0.0,0.0,0.0,0.0,0.0,0.0,0.0,0.0,0.0,0.0,0.0,0.0,-2.1684,-2.2097,-2.2802,-2.389,-2.4187,-2.4492,-2.4894,-2.5275,-2.5761,0.0,0.0,0.0,0.0,0.0,0.0,0.0,-2.7694,-2.7881,0.0,0.0,0.0,0.0,0.0,0.0,0.0,0.0,0.0,0.0,0.0,0.0,0.0,0.0,0.0,-2.5895,-2.5895,-2.5895,-2.5895,-2.5895,0.0,0.0,0.0,-2.5895,-2.5895,-2.6135,-2.5768,-2.5242,0.0,-2.4327,-2.3647,-2.3474,0.0,-2.2246,0.0,0.0,0.0,0.0,0.0,0.0,0.0,0.0,0.0,0.0,0.0,0.0,0.0,0.0,0.0,0.0,0.0,0.0,0.0,-0.7015,-0.6216,-0.6224,-0.5024,-0.4225,-0.4126,-0.2923,-0.2321,-0.2321,-0.2321,-0.2321,-0.2321,-0.2321,-0.2019,-0.1617,-0.1617,-0.1818,-0.2321,-0.2321,-0.2019,-0.1617,-0.2323,-0.1615,-0.0,-0.0,-0.0,-0.0,-0.0,-0.0,-0.0,0.0,0.0,0.0,0.0,0.0,0.0,0.0,0.0,0.0,0.0,0.0,0.0,0.0,0.0,0.0,0.0,-2.3203,-2.3809,-2.4884,-2.5178,-2.5479,-2.5964,-2.6244,-2.6628,-2.703,0.0,0.0,0.0,0.0,0.0,-2.7882,-2.856,-2.8757,0.0,-2.8254,-2.8036,0.0,0.0,0.0,0.0,0.0,0.0,0.0,0.0,0.0,0.0,0.0,0.0,0.0,-2.6092,-2.6092,-2.607,-2.5939,-2.5895,0.0,0.0,0.0,-2.5895,0.0,0.0,-2.4327,-2.4337,-2.3744,-2.296,0.0,0.0,0.0,0.0,0.0,0.0,0.0,0.0,0.0,0.0,0.0,0.0,0.0,0.0,0.0,0.0,0.0,0.0,0.0,0.0,0.0,0.0,-0.5418,-0.462,-0.4826,-0.3723,-0.3021,-0.2822,-0.2019,-0.1617,-0.1617,-0.1617,-0.1617,-0.1617,-0.1617,-0.1617,-0.1617,-0.1617,-0.1617,-0.1617,-0.1617,-0.1516,-0.1415,-0.1516,-0.101,-0.0,-0.0,-0.0,-0.0,-0.0,-0.0,-0.0,0.0,0.0,0.0,0.0,0.0,0.0,0.0,0.0,0.0,0.0,0.0,0.0,-2.1081,-2.1489,-2.2576,-2.4954,-2.5382,-2.5984,-2.7061,-2.7347,-2.7526,-2.7893,-2.8102,0.0,-2.8653,0.0,0.0,0.0,0.0,0.0,-2.8757,-2.8757,-2.8757,-2.8735,-2.8254,-2.8036,-2.8003,0.0,0.0,0.0,0.0,0.0,0.0,0.0,0.0,0.0,0.0,0.0,0.0,0.0,-2.6594,-2.6507,-2.6048,-2.5895,-2.5895,0.0,0.0,0.0,0.0,-2.538,0.0,-2.3406,0.0,0.0,0.0,0.0,0.0,0.0,0.0,0.0,0.0,0.0,0.0,0.0,0.0,0.0,0.0,0.0,0.0,0.0,0.0,0.0,0.0,0.0,0.0,0.0,-0.3311,-0.231,-0.362,-0.2421,-0.1718,-0.1718,-0.1617,-0.1617,-0.1617,-0.1617,-0.1617,-0.1617,-0.1617,-0.1617,-0.1617,-0.1617,-0.1617,-0.1617,-0.1617,-0.1314,-0.0909,-0.1415,-0.101,-0.0,-0.0,-0.0,-0.0,-0.0,-0.0,-0.0,0.0,0.0,0.0,0.0,0.0,0.0,0.0,0.0,0.0,0.0,0.0,0.0,0.0,-2.2291,-2.3484,-2.5382,-2.6274,-2.687,-2.7251,-2.7631,-2.7904,-2.7998,-2.8384,-2.8664,-2.8757,0.0,0.0,0.0,0.0,-2.8757,-2.8757,-2.8757,-2.9106,-2.9624,-2.8837,-2.8495,-2.8473,-2.7981,0.0,0.0,0.0,0.0,0.0,0.0,0.0,0.0,0.0,0.0,0.0,0.0,-2.7064,-2.7042,-2.6856,-2.6813,-2.6813,-2.6813,-2.6813,-2.6563,0.0,0.0,0.0,-2.3213,-2.2608,-2.2344,0.0,0.0,0.0,0.0,0.0,0.0,0.0,0.0,0.0,0.0,0.0,0.0,0.0,0.0,0.0,0.0,0.0,0.0,0.0,0.0,0.0,0.0,0.0,-0.1815,-0.232,-0.1817,-0.1617,-0.1617,-0.1617,-0.1617,-0.1617,-0.1617,-0.1617,-0.1617,-0.1617,-0.1617,-0.1617,-0.1617,-0.1617,-0.1617,-0.1617,-0.1313,-0.0808,-0.0606,-0.0303,-0.0,-0.0,-0.0,-0.0,-0.0,-0.0,-0.0,0.0,0.0,0.0,0.0,0.0,0.0,0.0,0.0,0.0,0.0,0.0,0.0,0.0,0.0,-2.4482,-2.6081,-2.687,-2.7262,-2.7262,-2.7631,-2.7904,-2.7998,-2.8466,-2.8664,-2.8757,0.0,0.0,0.0,0.0,0.0,0.0,-2.8664,-2.8921,-2.9543,-2.9198,-2.9301,0.0,0.0,0.0,-3.002,0.0,0.0,-2.9072,0.0,0.0,0.0,0.0,0.0,0.0,0.0,0.0,-2.7534,-2.737,-2.7315,-2.7315,-2.7315,-2.7315,-2.7062,-2.6045,0.0,0.0,0.0,0.0,-2.1998,-2.1741,0.0,0.0,0.0,0.0,0.0,0.0,0.0,0.0,0.0,0.0,0.0,0.0,0.0,0.0,0.0,0.0,0.0,0.0,0.0,0.0,0.0,0.0,0.0,-0.1617,-0.1617,-0.1617,-0.1617,-0.1617,-0.1617,-0.1617,-0.1617,-0.1617,-0.1617,-0.1617,-0.1617,-0.1617,-0.1617,-0.1617,-0.1617,-0.1415,-0.1212,-0.101,-0.0303,-0.0,-0.0,-0.0,-0.0,-0.0,-0.0,-0.0,-0.0,0.0,0.0,0.0,0.0,0.0,0.0,0.0,0.0,0.0,-1.9383,0.0,0.0,0.0,0.0,0.0,-2.7156,-2.7262,-2.7262,-2.7262,-2.7441,-2.7726,-2.7998,-2.829,-2.8477,-2.8757,0.0,0.0,0.0,0.0,0.0,0.0,0.0,-2.8186,-2.8488,-2.9209,-3.0193,-3.1258,0.0,-3.1258,-3.1258,0.0,-2.9829,-3.0079,0.0,0.0,0.0,-2.8315,-2.8185,0.0,-2.7796,0.0,0.0,0.0,-2.7348,-2.7348,-2.7348,-2.7359,-2.7171,0.0,0.0,0.0,0.0,0.0,0.0,-2.183,0.0,0.0,0.0,0.0,0.0,0.0,0.0,0.0,0.0,0.0,0.0,0.0,0.0,0.0,0.0,0.0,0.0,0.0,0.0,0.0,0.0,-0.1617,-0.1617,-0.1617,-0.1617,-0.1617,-0.1617,-0.1617,-0.1617,-0.1617,-0.1617,-0.1617,-0.1617,-0.1617,-0.1617,-0.1617,-0.1617,-0.1617,-0.1617,-0.101,-0.1111,-0.1516,-0.0404,-0.0,-0.0,-0.0,-0.0,-0.0,-0.0,-0.0,-0.0,0.0,0.0,0.0,0.0,0.0,0.0,0.0,0.0,0.0,0.0,0.0,0.0,-2.4393,-2.5781,-2.686,-2.7262,-2.7262,-2.7262,-2.7262,-2.7441,-2.7631,-2.7726,-2.7998,-2.8186,-2.8186,0.0,0.0,0.0,0.0,0.0,0.0,0.0,0.0,0.0,-2.9338,-2.9875,-3.0687,-3.089,0.0,-3.1865,-3.0351,-3.0079,0.0,0.0,0.0,0.0,0.0,-2.8204,-2.8293,0.0,-2.8375,-2.8538,0.0,0.0,-2.8353,-2.8353,-2.7676,-2.6838,-2.6167,0.0,0.0,0.0,0.0,0.0,0.0,0.0,0.0,0.0,0.0,0.0,0.0,0.0,0.0,0.0,0.0,0.0,0.0,0.0,0.0,0.0,0.0,0.0,0.0,0.0,0.0,0.0,-0.1617,-0.1617,-0.1617,-0.1617,-0.1617,-0.1617,-0.1617,-0.1617,-0.1617,-0.1617,-0.1617,-0.1617,-0.1617,-0.1617,-0.1617,-0.1617,-0.1617,-0.1617,-0.101,-0.1111,-0.1516,-0.0404,-0.0,-0.0,-0.0,-0.0,-0.0,-0.0,-0.0,-0.0,0.0,0.0,0.0,0.0,0.0,0.0,0.0,0.0,0.0,0.0,0.0,0.0,-2.5489,-2.6572,-2.7441,-2.7809,-2.7904,-2.8081,-2.8445,-2.8631,-2.8724,-2.8817,-2.8991,-2.9084,-2.9176,0.0,0.0,0.0,0.0,0.0,0.0,0.0,0.0,0.0,0.0,0.0,0.0,0.0,0.0,0.0,-3.0079,0.0,0.0,-2.8828,-2.8008,0.0,0.0,0.0,-2.8395,-2.829,-2.8477,0.0,0.0,0.0,0.0,0.0,0.0,-2.6536,-2.5352,-2.4103,0.0,0.0,0.0,0.0,-2.0959,-2.0121,0.0,0.0,0.0,0.0,0.0,0.0,0.0,0.0,0.0,0.0,0.0,0.0,0.0,0.0,0.0,0.0,0.0,-0.1617,-0.1617,-0.1617,-0.1617,-0.1617,-0.1617,-0.1617,-0.1617,-0.1617,-0.1617,-0.1617,-0.1617,-0.1617,-0.1617,-0.1617,-0.1617,-0.1617,-0.1617,-0.1617,-0.1617,-0.1617,-0.101,-0.0808,-0.0909,-0.0303,-0.0,-0.0,-0.0,-0.0,-0.0,-0.0,-0.0,-0.0,0.0,0.0,0.0,0.0,0.0,0.0,0.0,0.0,0.0,0.0,0.0,0.0,-2.6304,-2.6976,-2.7631,-2.8445,-2.8631,-2.9084,-2.9988,-3.017,-3.026,-3.0453,-3.0453,-3.0543,-3.0621,-3.0633,0.0,0.0,0.0,0.0,0.0,0.0,0.0,0.0,0.0,0.0,0.0,0.0,0.0,-3.1436,-2.9532,-2.9543,0.0,0.0,-2.7726,-2.7904,-2.7631,-2.7925,-2.8301,-2.8092,-2.8279,0.0,0.0,0.0,0.0,0.0,-2.6512,-2.6108,-2.4375,-2.3341,-2.2682,-2.2077,-2.1616,0.0,-2.012,-1.8995,-1.7949,0.0,0.0,0.0,0.0,0.0,0.0,0.0,0.0,0.0,0.0,0.0,0.0,0.0,0.0,0.0,-0.1617,-0.1617,-0.1617,-0.1617,-0.1617,-0.1617,-0.1617,-0.1515,-0.1414,-0.1414,-0.1414,-0.1414,-0.1414,-0.1516,-0.1617,-0.1617,-0.1617,-0.1617,-0.1617,-0.1617,-0.1617,-0.1617,-0.101,-0.0505,-0.0,-0.0,-0.0,-0.0,-0.0,-0.0,-0.0,-0.0,-0.0,-0.0,0.0,0.0,0.0,0.0,0.0,0.0,0.0,0.0,0.0,0.0,0.0,0.0,-2.6496,-2.6976,-2.7357,-2.7536,-2.8269,-2.8817,-2.8991,-2.9715,-3.026,-3.026,-3.026,-2.9897,-2.9176,-2.9084,-2.8631,0.0,0.0,0.0,0.0,0.0,0.0,0.0,0.0,0.0,0.0,0.0,0.0,-2.936,-2.9084,0.0,-2.8991,-2.7998,-2.7536,-2.7441,-2.7357,-2.7547,-2.782,-2.7904,-2.8092,-2.8186,0.0,0.0,0.0,-2.7799,0.0,0.0,0.0,0.0,0.0,0.0,0.0,0.0,-2.0987,-1.9733,-1.8379,0.0,0.0,0.0,0.0,0.0,0.0,0.0,0.0,0.0,0.0,0.0,0.0,0.0,0.0,0.0,-0.1617,-0.1617,-0.1617,-0.1617,-0.1617,-0.1617,-0.1617,-0.0807,-0.0303,-0.0303,-0.0303,-0.0303,-0.0303,-0.1212,-0.1617,-0.1617,-0.1617,-0.1617,-0.1617,-0.1617,-0.1617,-0.1617,-0.101,-0.0505,-0.0,-0.0,-0.0,-0.0,-0.0,-0.0,-0.0,-0.0,-0.0,-0.0,0.0,0.0,0.0,0.0,0.0,0.0,0.0,0.0,0.0,0.0,0.0,-2.6496,-2.6496,-2.6976,-2.7441,-2.7998,-2.8445,-2.8899,-2.9452,-2.9897,-3.017,-3.017,-3.017,-2.9988,-2.9441,-2.9441,-2.8991,0.0,0.0,0.0,0.0,0.0,0.0,0.0,0.0,0.0,0.0,0.0,-2.7536,-2.7987,-2.8175,0.0,-2.8631,-2.7809,-2.7357,-2.7262,-2.7262,-2.7441,-2.7631,-2.7904,-2.7998,0.0,-2.7809,-2.7904,-2.7893,0.0,-2.5771,-2.4393,0.0,0.0,0.0,-2.1309,0.0,0.0,0.0,-1.962,-1.8637,-1.7316,-1.6261,-1.5347,-1.4631,0.0,0.0,0.0,0.0,0.0,0.0,0.0,0.0,0.0,0.0,0.0,-0.1617,-0.1617,-0.1617,-0.1617,-0.1111,-0.0807,-0.0807,0.0202,0.0806,0.0806,0.0302,-0.0,-0.0,-0.1111,-0.1313,-0.0807,-0.1313,-0.101,-0.0,-0.0605,-0.0706,-0.0504,0.0101,0.0202,-0.0,-0.0,-0.0,-0.0,-0.0,-0.0,-0.0,-0.0,-0.0,-0.0,-1.9063,-1.9175,0.0,0.0,0.0,0.0,0.0,0.0,0.0,0.0,0.0,-2.653,-2.6617,-2.6931,-2.7536,-2.8351,-2.8631,-2.9084,-3.017,-3.0351,-3.0531,-3.0711,-3.0531,-3.0351,-3.017,-2.9988,-2.9441,-2.8445,0.0,0.0,0.0,0.0,0.0,0.0,0.0,0.0,0.0,0.0,0.0,-2.7262,0.0,-2.7715,-2.8362,-2.7631,-2.7262,-2.7262,-2.7262,-2.7452,-2.7536,-2.7809,-2.7904,-2.7809,-2.7631,-2.7526,0.0,0.0,0.0,0.0,0.0,0.0,0.0,0.0,0.0,-2.0641,0.0,0.0,0.0,0.0,0.0,0.0,0.0,0.0,0.0,0.0,0.0,0.0,0.0,0.0,0.0,0.0,0.0,0.0,0.0,-0.1414,-0.1313,-0.1313,-0.0504,0.0101,0.0302,0.1109,0.1714,0.1915,0.1108,0.0605,0.0605,-0.0404,-0.0504,0.0302,-0.0605,-0.0101,0.1411,0.0605,0.0504,0.0907,0.1611,0.1611,0.121,0.0302,-0.0,-0.0,-0.0,-0.0,-0.0,-0.0,-0.0,-0.0,-1.8862,-1.8974,-1.8974,0.0,0.0,0.0,0.0,0.0,0.0,0.0,0.0,0.0,0.0,-2.7028,-2.7081,-2.7441,-2.8269,-2.9084,-3.017,-3.0991,-3.1801,-3.2711,-3.1901,-3.108,-3.026,-2.936,-2.8456,-2.7441,0.0,0.0,0.0,0.0,0.0,0.0,-2.7262,0.0,0.0,0.0,-2.7262,0.0,-2.7262,-2.7347,0.0,-2.7357,-2.7262,-2.7262,-2.7262,-2.7357,-2.7357,0.0,-2.7347,-2.7357,0.0,-2.6668,-2.6081,-2.687,0.0,0.0,0.0,0.0,0.0,0.0,-2.0925,0.0,0.0,0.0,-1.9317,-1.8055,0.0,0.0,0.0,0.0,0.0,0.0,0.0,0.0,0.0,0.0,0.0,0.0,0.0,0.0,0.0,-0.0706,-0.0202,-0.0202,-0.0101,0.0403,0.1411,0.1513,0.2016,0.3022,0.292,0.282,0.282,0.1814,0.1311,0.1412,0.1311,0.1009,0.0605,0.121,0.1713,0.2215,0.282,0.4036,0.5365,0.1613,-0.0,-0.0,-0.0,-0.0,-0.0,-0.0,-0.0,-0.0,-1.8764,-1.9078,-1.9175,0.0,0.0,0.0,0.0,0.0,0.0,0.0,0.0,0.0,0.0,0.0,-2.7662,-2.7665,-2.8019,-2.8381,-2.8845,-2.9211,-2.9802,-3.0469,-3.0103,-2.9639,-2.9267,-2.8892,-2.8418,-2.8048,-2.8048,0.0,0.0,0.0,0.0,0.0,-2.7262,0.0,-2.7262,0.0,-2.7262,0.0,0.0,0.0,0.0,-2.7262,-2.7262,-2.7262,-2.7262,-2.7262,-2.7262,0.0,-2.7262,0.0,0.0,0.0,0.0,0.0,0.0,0.0,0.0,0.0,0.0,0.0,0.0,0.0,-2.0925,0.0,-2.0151,0.0,0.0,0.0,0.0,0.0,0.0,0.0,-1.0564,0.0,0.0,0.0,0.0,0.0,0.0,0.0,0.0,0.0,0.0,0.0,-0.0202,0.0101,-0.0202,0.0907,0.2116,0.3123,0.262,0.262,0.3224,0.2116,0.1915,0.2519,0.1915,0.2116,0.3021,0.2719,0.3022,0.3825,0.4329,0.5146,0.5775,0.3025,0.1109,-0.0,-0.0,-0.0,-0.0,-0.0,-0.0,-0.0,-1.8653,-1.8966,-1.9301,0.0,0.0,0.0,0.0,0.0,0.0,0.0,0.0,0.0,-2.7792,-2.7894,0.0,0.0,-2.7914,-2.8012,-2.8394,-2.8394,-2.8638,-2.9271,-2.9094,-2.9006,-2.8896,-2.8707,-2.8618,-2.8618,-2.8618,0.0,0.0,0.0,0.0,0.0,0.0,-2.7262,-2.7262,0.0,-2.687,-2.687,-2.6562,-2.6572,-2.687,-2.7156,-2.7262,-2.7262,-2.7262,-2.7262,-2.7262,-2.6965,-2.687,0.0,-2.5586,0.0,0.0,0.0,0.0,0.0,-2.3601,0.0,0.0,0.0,0.0,0.0,0.0,0.0,0.0,0.0,0.0,0.0,0.0,0.0,0.0,-1.1616,0.0,-0.9665,0.0,-0.7537,0.0,0.0,0.0,0.0,0.0,0.0,0.0,-0.1414,0.0101,0.0403,-0.0907,0.0101,0.1511,0.3123,0.2418,0.2519,0.3626,0.2821,0.2821,0.3626,0.2821,0.3324,0.4734,0.4029,0.413,0.5135,0.5436,0.5648,0.567,0.3934,0.1915,-0.0,-0.0,-0.0,-0.0,-0.0,-0.0,-0.0,-1.8422,-1.8646,-1.9471,0.0,0.0,0.0,0.0,0.0,0.0,0.0,0.0,0.0,0.0,0.0,0.0,0.0,0.0,-2.8376,-2.9546,0.0,-3.0025,-3.1004,-3.0361,-2.997,-2.9665,-2.8995,-2.8618,-2.8618,-2.8618,-2.838,0.0,0.0,0.0,0.0,0.0,-2.7262,-2.7262,-2.6177,-2.579,-2.5693,-2.459,-2.4786,-2.5887,0.0,-2.7262,-2.7262,-2.7262,0.0,0.0,-2.6081,-2.579,0.0,0.0,0.0,0.0,0.0,0.0,0.0,0.0,0.0,0.0,-2.0925,0.0,0.0,0.0,0.0,-2.0719,0.0,0.0,0.0,0.0,0.0,-1.2596,-1.136,-1.0685,0.0,0.0,0.0,0.0,0.0,0.0,0.0,0.0,0.0,-0.1412,-0.0907,0.1109,0.1815,0.0504,-0.0806,-0.0101,0.3123,0.3123,0.3626,0.4734,0.4734,0.4734,0.4734,0.4734,0.4734,0.4834,0.4734,0.5135,0.5839,0.5636,0.5849,0.6173,0.4034,0.1915,-0.0,-0.0,-0.0,-0.0,-0.0,-0.0,-0.0,0.0,-1.916,-1.9872,0.0,0.0,0.0,0.0,-2.8086,0.0,0.0,-2.8164,0.0,0.0,-2.8371,-2.8267,0.0,0.0,-2.8462,-2.8849,-2.9063,0.0,-2.9774,-2.9919,-2.9919,-2.96,-2.9518,-2.9528,-2.9528,-2.9528,-2.929,0.0,0.0,0.0,0.0,0.0,-2.7262,0.0,0.0,0.0,0.0,0.0,-2.4688,-2.579,0.0,0.0,-2.7262,-2.6476,-2.6284,0.0,-2.4992,-2.459,-2.4492,-2.3411,-2.3311,-2.3502,-2.3111,-2.2518,0.0,0.0,0.0,-2.0925,-2.0925,0.0,0.0,0.0,0.0,0.0,0.0,0.0,0.0,0.0,0.0,-1.271,-1.1945,-1.0968,-1.0062,0.0,0.0,0.0,0.0,0.0,0.0,0.0,0.0,0.0,-0.1312,-0.0,0.0505,-0.0303,-0.1111,-0.0404,0.2016,0.2116,0.3022,0.4734,0.4834,0.4834,0.4834,0.4834,0.4834,0.4834,0.4834,0.4935,0.5236,0.5436,0.5749,0.577,0.3934,0.1915,0.0303,0.3132,0.4248,0.4248,0.4248,0.4248,0.3841,-1.8919,0.0,0.0,0.0,0.0,0.0,0.0,0.0,0.0,0.0,-2.8291,0.0,-2.8514,0.0,-2.8502,0.0,-2.8406,-2.8511,-2.8719,-2.8834,0.0,-2.9122,-2.9448,-2.9564,-2.9248,-2.9564,-2.9669,-2.9669,-2.9669,-2.9444,0.0,0.0,0.0,0.0,0.0,-2.7211,-2.6901,-2.5655,-2.4894,0.0,0.0,-2.3908,0.0,0.0,-2.637,-2.6572,0.0,-2.5089,-2.4992,-2.3899,-2.3502,-2.3302,-2.2224,-2.2417,-2.2802,-2.2123,-2.192,-2.192,-2.192,-2.1428,0.0,-2.0925,-2.0925,0.0,-2.0522,0.0,-2.0308,0.0,0.0,0.0,0.0,0.0,-1.3174,-1.2254,-1.1426,-1.0543,0.0,-0.8489,0.0,0.0,0.0,0.0,0.0,0.0,-0.0303,-0.101,-0.0404,-0.0101,0.0,0.0,-0.101,0.0403,0.121,0.2418,0.423,0.4634,0.4834,0.4834,0.4834,0.4834,0.4834,0.4937,0.5037,0.5135,0.5539,0.5754,0.577,0.4746,0.3027,0.1414,0.4144,0.5773,0.6287,0.5567,0.5773,0.5876,0.0,0.0,0.0,0.0,-2.4504,0.0,0.0,0.0,-2.8184,0.0,-2.8291,-2.8184,-2.8291,-2.8291,-2.8291,-2.8291,-2.8291,-2.8504,-2.9026,-2.8834,0.0,0.0,-2.9132,-2.892,-2.8737,0.0,-2.9132,-2.9132,-2.9132,-2.8921,0.0,0.0,0.0,0.0,-2.7689,0.0,-2.6209,-2.4687,-2.342,-2.2426,-2.2426,-2.2426,-2.2627,-2.3601,-2.459,-2.5392,-2.4393,-2.3989,-2.3899,-2.282,-2.2426,-2.2224,-2.1224,-2.0925,-2.0925,-2.0925,-2.0925,-2.0925,-2.0925,-2.0925,-2.0925,-2.0925,0.0,0.0,0.0,0.0,-1.9879,0.0,0.0,0.0,0.0,0.0,0.0,-1.2292,-1.1964,-1.1057,-0.908,0.0,-0.7332,0.0,0.0,0.0,-0.6374,-0.2621,-0.0101,-0.0,-0.0,-0.0,0.0,0.0,-0.1515,-0.1613,0.0403,0.2016,0.3123,0.423,0.4734,0.4734,0.4734,0.4834,0.4834,0.5039,0.5338,0.5636,0.5847,0.606,0.6173,0.6377,0.5159,0.3338,0.3228,0.4543,0.6181,0.4137,0.4645,0.5876,-1.9253,-1.988,-2.0501,0.0,-2.425,-2.6527,0.0,0.0,0.0,0.0,-2.752,-2.7295,-2.8184,-2.8291,-2.8291,-2.8291,-2.8291,0.0,0.0,0.0,0.0,-2.8504,-2.892,-2.892,-2.8737,-2.893,-2.9132,-2.9132,-2.9132,0.0,-2.8961,0.0,0.0,0.0,0.0,0.0,-2.56,-2.356,-2.2051,-2.1019,-2.1224,-2.1827,0.0,0.0,-2.2417,-2.332,-2.302,-2.292,-2.2719,-2.1623,-2.1318,-2.1224,-2.1027,-2.0925,-2.0925,-2.0925,-2.0925,-2.0925,-2.0925,-2.0925,-2.0925,-2.0925,-2.0071,-1.922,0.0,0.0,0.0,0.0,0.0,0.0,0.0,0.0,0.0,-1.237,-1.2054,-1.1102,-0.9334,0.0,0.0,-0.6534,0.0,-0.645,-0.6364,-0.3932,-0.1713,-0.0101,-0.0,0.0,0.0,0.0,0.0,-0.1613,-0.1109,0.0101,0.2016,0.3123,0.3626,0.3626,0.4431,0.4937,0.514,0.514,0.5338,0.5636,0.5847,0.4941,0.3627,0.5564,0.6085,0.5376,0.3835,0.4533,0.635,0.5756,0.5967,0.5972,-1.9366,0.0,0.0,-2.0737,0.0,0.0,-2.4974,-2.63,0.0,-2.752,-2.7403,0.0,-2.8184,-2.8291,-2.8291,-2.8291,-2.8291,0.0,-2.8514,0.0,0.0,-2.8514,-2.8611,-2.8388,-2.7736,-2.7941,0.0,-2.7931,0.0,0.0,-2.7931,0.0,0.0,0.0,0.0,-2.4999,-2.4349,-2.2361,-2.101,-2.03,-2.0617,-2.1121,0.0,-2.1121,-2.1216,-2.1827,-2.1827,-2.1827,-2.1725,-2.1121,-2.0925,-2.0925,-2.0925,-2.0925,-2.0925,-2.0925,-2.0925,-2.0925,-2.0925,-2.0822,-2.0609,-2.0071,-1.9324,-1.838,-1.764,-1.6903,-1.6056,0.0,0.0,0.0,0.0,0.0,0.0,-1.2323,-1.203,-1.1326,0.0,0.0,0.0,0.0,-0.6434,-0.6039,-0.605,-0.5142,-0.3324,-0.0202,-0.0,0.0,0.0,0.0,0.0,-0.0908,-0.1311,-0.1008,0.0202,0.1713,0.2923,0.3935,0.3932,0.4334,0.5247,0.5347,0.5546,0.5739,0.606,0.4845,0.282,0.333,0.4147,0.4968,0.4752,0.5349,0.6356,0.5658,0.5153,0.4541,0.0,0.0,0.0,0.0,0.0,0.0,0.0,-2.5516,0.0,-2.6409,0.0,-2.7853,-2.8077,-2.8184,-2.8291,-2.8291,0.0,-2.8408,-2.8621,-2.8291,-2.8184,-2.8408,-2.8067,-2.7295,-2.63,-2.63,-2.63,0.0,-2.5168,-2.5287,0.0,0.0,0.0,0.0,0.0,0.0,0.0,-2.117,-2.0391,-2.0086,-2.03,-2.0522,-2.0522,-2.0719,-2.0822,-2.0925,-2.0925,-2.0925,-2.0925,-2.0925,-2.0925,-2.0925,-2.0925,-2.0925,-2.0917,-2.0822,-2.0822,-2.0822,-2.0814,-2.0617,-2.0197,-1.9013,-1.838,-1.7752,-1.6374,-1.5949,-1.5423,-1.4272,-1.4798,-1.4793,0.0,0.0,0.0,0.0,0.0,0.0,0.0,0.0,0.0,0.0,0.0,0.0,-0.5534,-0.6052,-0.4841,-0.1108,0.0,0.0,0.0,0.0,0.0,-0.0,-0.0908,-0.1412,-0.1613,0.0,0.2219,0.394,0.3029,0.3531,0.5048,0.5457,0.5653,0.5641,0.6173,0.5363,0.3428,0.1008,0.111,0.2932,0.4857,0.5667,0.5763,0.4446,0.343,0.2719,0.0,0.0,0.0,0.0,0.0,-2.2184,-2.1281,-2.2741,-2.4189,-2.4948,-2.5168,-2.5726,-2.6744,-2.7736,-2.8291,-2.8291,-2.8291,0.0,0.0,0.0,0.0,-2.6853,-2.5845,-2.5278,-2.5058,-2.5058,-2.5058,-2.5058,-2.4829,-2.4837,-2.5058,0.0,0.0,0.0,0.0,0.0,-2.0719,-2.0445,0.0,-1.9776,-2.0086,-2.03,-2.0522,-2.0514,-2.0719,-2.0925,-2.0925,-2.0925,-2.0925,-2.0925,-2.0925,-2.0925,-2.0925,-2.0925,-2.0822,-2.0617,-2.0617,-2.0514,-2.0292,-2.0189,-1.9872,-1.87,-1.7535,-1.6374,-1.5209,-1.3932,-1.297,-1.2762,-1.2871,-1.2866,-1.2441,0.0,0.0,0.0,0.0,0.0,0.0,0.0,0.0,0.0,0.0,-0.5434,-0.4935,-0.5851,-0.6057,0.0,0.0,0.0,0.0,0.0,0.0,0.0,-0.0202,0.0,0.0,0.0,-0.0403,-0.0504,0.1513,0.2621,0.3021,0.4744,0.4945,0.3828,0.5567,0.6183,0.5569,0.1615,0.0202,0.0605,0.1008,0.2016,0.3426,0.3838,0.3433,0.2724,0.0,0.0,0.0,0.0,0.0,0.0,0.0,-2.1174,0.0,-2.3631,-2.4283,-2.4948,-2.5507,-2.6063,-2.6391,-2.6391,-2.6391,-2.6391,-2.6391,-2.5845,-2.5617,-2.5617,-2.5058,-2.4394,-2.3855,-2.3855,-2.3855,-2.3855,-2.3191,-2.3191,-2.3847,0.0,0.0,0.0,0.0,-2.1226,0.0,0.0,0.0,-1.948,-1.9783,-1.999,-2.0101,-2.0197,-2.0403,-2.0506,-2.0506,-2.0506,-2.0506,-2.0822,-2.0925,-2.0925,-2.0719,-2.0719,-2.0617,-2.0403,-2.03,-2.0189,-1.945,-1.9131,-1.861,-1.6909,-1.5849,-1.49,-1.3722,-1.2866,-1.2441,-1.2441,-1.2441,-1.2441,-1.2441,-1.2441,0.0,0.0,0.0,0.0,0.0,0.0,-0.7712,0.0,0.0,0.0,0.0,0.0,0.0,0.0,0.0,0.0,0.0,0.0,0.0,0.0,0.0,0.0,0.0,0.0,0.0,-0.0807,-0.0,0.0605,0.1209,0.3331,0.3937,0.3325,0.5468,0.6396,0.6083,0.1818,-0.0,0.0101,0.0605,0.1412,0.222,0.2625,0.2524,0.2121,0.0,-1.9243,0.0,0.0,-1.9591,0.0,-1.9815,-2.0148,-2.0945,-2.2305,-2.3623,-2.4283,-2.4283,-2.4505,-2.4727,-2.4727,-2.4727,-2.4727,-2.4727,-2.4505,-2.4283,-2.4283,-2.4061,-2.3519,-2.2644,-2.2652,-2.2652,-2.2652,-2.1653,-2.1616,-2.2542,-2.1623,0.0,0.0,0.0,0.0,0.0,0.0,-1.9579,-1.9272,-1.948,-1.968,-1.968,-1.9983,-2.0078,-2.0078,-2.0078,-2.0078,-2.0189,-2.0609,-2.0712,-2.0712,-2.0514,-2.0197,-1.9983,-1.9768,-1.945,-1.9124,-1.8178,-1.766,-1.7028,-1.5007,-1.4374,-1.3846,-1.2654,-1.2441,-1.2441,-1.2441,-1.2441,-1.2441,-1.2441,-1.2219,0.0,0.0,0.0,0.0,0.0,0.0,0.0,0.0,0.0,0.0,-0.4636,0.0,0.0,0.0,0.0,0.0,-0.1511,0.0,0.0,0.0,0.0,-0.0,-0.0,0.0,-0.0404,-0.0,-0.0808,-0.0808,0.0101,0.1717,0.2524,0.2621,0.4351,0.5067,0.4758,0.1616,0.0303,0.0404,0.1111,0.1516,0.1617,0.1617,0.1617,0.1617,0.0,0.0,0.0,0.0,0.0,0.0,-1.9815,-1.9815,-2.0155,-2.0831,-2.2184,-2.3199,-2.3199,-2.4069,-2.4727,-2.4727,-2.4727,-2.4727,-2.4727,-2.3743,-2.3199,-2.3199,-2.2093,-2.1432,-2.1318,-2.1318,-2.1318,0.0,-2.1211,-2.1057,-2.0884,-2.1072,0.0,0.0,0.0,0.0,0.0,-1.9894,-1.9579,-1.9279,-1.9383,-1.948,-1.968,-1.968,-1.9879,-2.0078,-2.0078,-2.0078,-2.0086,-2.0189,-2.0181,-2.0181,-2.0189,-1.9443,-1.8499,-1.8297,-1.7443,-1.6586,-1.628,-1.6068,-1.5755,-1.4589,-1.4164,-1.3846,-1.2654,-1.2441,-1.2441,-1.2441,-1.2441,-1.2441,-1.2441,-1.1782,-1.1455,0.0,0.0,0.0,0.0,0.0,-0.7493,-0.5507,0.0,0.0,-0.414,-0.3632,0.0,0.0,-0.5249,0.0,0.0,0.0,0.0,-0.2922,0.0,-0.0,-0.0,-0.0,-0.0,-0.0,-0.0101,-0.0101,-0.0,0.0202,0.0303,0.0303,0.0505,0.0606,0.0606,0.1212,0.1415,0.1415,0.101,0.1212,0.1617,0.1617,0.1617,0.1617,0.0,0.0,0.0,0.0,0.0,0.0,0.0,-1.97,-1.9924,-2.0155,-2.106,-2.1737,-2.1866,-2.2312,-2.2644,-2.2644,-2.2644,-2.2644,-2.2644,-2.2207,-2.1873,-2.1873,-2.1432,-2.1211,-2.1211,-2.1211,-2.1211,0.0,0.0,-2.1145,-2.102,-2.1152,0.0,0.0,0.0,-1.9569,-1.8183,-1.9135,-1.9074,-1.8325,-1.9063,-1.9376,-1.948,-1.948,-1.948,-1.9576,-1.9576,-1.9153,-1.8624,-1.8624,-1.8826,-1.902,-1.8923,-1.8073,-1.7121,-1.681,-1.6387,-1.5855,-1.512,-1.4911,-1.4589,-1.3408,-1.3088,-1.298,-1.2545,-1.2441,-1.2441,-1.2441,-1.2441,-1.2223,-1.1673,-1.1345,-1.1017,0.0,0.0,0.0,0.0,0.0,0.0,-0.5249,0.0,-0.4339,-0.4104,-0.3555,0.0,0.0,0.0,0.0,0.0,0.0,0.0,-0.5151,0.0,-0.2623,-0.0,-0.0,-0.0,-0.0,-0.0,-0.0,-0.0,-0.0,-0.0,-0.0,-0.0,0.0404,0.101,0.1415,0.1617,0.1617,0.1314,0.1415,0.1617,0.1617,0.1617,0.1617,-1.6503,0.0,-1.722,0.0,-1.7578,-1.7343,-1.8648,-1.8997,-1.9339,-1.97,-2.0155,-2.0608,-2.0967,-2.1081,-2.1089,-2.1211,-2.1211,-2.1211,-2.1211,-2.1211,-2.1211,-2.1211,-2.1211,0.0,-2.1211,-2.1211,-2.1211,-2.1211,-2.0852,-2.0573,-2.048,-2.013,0.0,0.0,-1.9006,-1.8163,-1.6606,-1.7776,-1.7891,-1.7147,-1.7996,-1.8311,-1.8311,-1.8311,-1.8311,-1.8311,-1.8311,-1.7786,-1.7153,-1.7153,-1.714,-1.7233,-1.7345,-1.6599,-1.5636,-1.5435,-1.5114,-1.4691,-1.384,-1.363,-1.3521,-1.2654,-1.2441,-1.2441,-1.2441,-1.2441,-1.2441,-1.2441,-1.2223,-1.1782,-1.1236,-1.0688,-1.0135,-0.9574,0.0,0.0,0.0,-0.609,0.0,-0.5027,-0.4489,-0.4203,-0.4182,-0.36,0.0,0.0,0.0,0.0,0.0,0.0,0.0,0.0,0.0,0.0,0.0,-0.0403,-0.0,-0.0,-0.0,-0.0,-0.0,0.0303,0.0505,0.0505,0.0303,0.0707,0.1415,0.1516,0.1617,0.1617,0.1617,0.1617,0.1617,0.1617,0.1617,0.1617,-1.4023,-1.4738,-1.5575,-1.5693,-1.5575,-1.6042,-1.7337,-1.7572,-1.8046,-1.9577,-1.9815,-2.004,-2.0601,-2.0716,-2.0838,-2.1211,-2.1211,-2.1211,-2.1211,-2.1211,-2.1211,0.0,0.0,-2.1211,-2.1211,-2.1211,-2.1211,-2.1211,0.0,0.0,-1.8771,0.0,-1.705,-1.714,-1.6873,-1.6612,-1.6235,-1.6083,-1.5968,-1.5968,-1.5968,-1.5968,-1.5968,-1.5968,-1.5968,-1.5968,-1.5968,-1.5968,-1.5968,-1.5968,-1.5227,-1.4487,-1.5547,-1.512,-1.4164,-1.4164,-1.3413,-1.2441,-1.2436,-1.2436,-1.2436,-1.2441,-1.2441,-1.2441,-1.2441,-1.2441,-1.2441,-1.2441,-1.1673,-1.1126,-1.1126,-0.9695,-0.8592,-0.8906,0.0,0.0,0.0,-0.5924,0.0,-0.4484,-0.4365,-0.4336,-0.4159,-0.367,0.0,0.0,0.0,0.0,0.0,0.0,0.0,-0.4834,-0.5851,0.0,-0.4227,-0.1409,-0.0,-0.0,-0.0,-0.0,-0.0,0.1111,0.1617,0.1516,0.101,0.0808,0.0808,0.1415,0.1617,0.1617,0.1617,0.1617,0.1617,0.1617,0.1617,0.1617,-1.3784,-1.4023,-1.4619,-1.5451,-1.4857,-1.4738,-1.6042,-1.6161,-1.6632,-1.804,-1.8279,-1.8745,-1.9924,-2.027,-2.05,0.0,-2.073,-2.0845,0.0,-2.1089,-2.0852,-1.9917,-1.991,-1.9441,-1.8616,-1.8616,-1.8616,-1.8616,0.0,0.0,0.0,-1.7438,-1.6762,-1.5901,-1.6428,-1.5612,-1.3951,-1.5331,-1.5441,-1.4804,-1.5541,-1.5861,-1.5861,-1.5861,-1.5861,-1.5861,-1.5861,-1.5441,-1.4696,-1.4696,-1.3948,-1.3088,-1.3403,-1.33,-1.298,-1.298,-1.2654,-1.2441,-1.2441,-1.2441,-1.2441,-1.2441,-1.2441,-1.2441,-1.2441,-1.2441,-1.2441,-1.2441,-1.1673,-1.0794,-0.9794,-0.8692,-0.7593,-0.67,-0.5704,0.0,-0.5146,0.0,-0.4137,-0.3893,-0.385,-0.3816,-0.3687,-0.3524,0.0,0.0,0.0,0.0,0.0,0.0,0.0,0.0,-0.4941,0.0,-0.5046,-0.4547,-0.3636,-0.2219,-0.2218,-0.121,0.0605,0.0909,0.1212,0.1617,0.1415,0.1314,0.1314,0.1516,0.1617,0.1617,0.1617,0.1617,0.1617,0.1617,0.1617,0.162,-1.296,-1.296,-1.3195,-1.4033,-1.3555,-1.3435,-1.4738,-1.4857,-1.5327,-1.6626,-1.675,-1.7103,-1.8163,-1.8389,0.0,-1.9564,-1.9312,-1.9067,-1.9067,-1.9435,-1.9319,-1.85,-1.85,-1.8267,-1.7443,-1.7443,0.0,-1.7443,-1.6973,-1.6509,-1.6037,-1.5948,-1.5433,-1.4515,-1.5063,-1.4267,-1.2745,-1.4001,-1.4153,-1.363,-1.4261,-1.4578,-1.4578,-1.4578,-1.4578,-1.4578,-1.4578,-1.4153,-1.3521,-1.3521,-1.298,-1.2441,-1.2441,-1.2441,-1.2441,-1.2441,-1.2441,-1.2441,-1.2441,-1.2441,-1.2441,-1.2441,-1.2332,-1.211,-1.1555,-1.1446,-1.1332,-1.0887,-1.001,-0.9133,-0.8244,-0.7365,-0.6371,-0.526,-0.4702,-0.4369,-0.4145,0.0,-0.3587,0.0,0.0,0.0,0.0,-0.3478,-0.3444,0.0,0.0,0.0,0.0,0.0,0.0,-0.4236,-0.4236,0.0,-0.4845,-0.5358,-0.5056,-0.4038,-0.3835,-0.2722,-0.0706,0.0101,0.0707,0.101,0.1415,0.1617,0.1617,0.1617,0.1617,0.1617,0.1617,0.1617,0.1617,0.1617,0.1725,0.2044,-1.1776,-1.1776,0.0,0.0,-1.1776,0.0,-1.343,-1.3545,-1.4023,-1.5332,-1.5451,-1.5456,-1.5569,-1.5569,-1.6155,-1.7917,0.0,0.0,0.0,-1.6727,-1.6968,-1.685,-1.7085,-1.7208,-1.7091,-1.7091,-1.7091,-1.7091,-1.6042,-1.4857,-1.3665,-1.3476,-1.3268,-1.3036,-1.2852,-1.2644,-1.2441,-1.2441,-1.2441,-1.2441,-1.2441,-1.2441,-1.2441,-1.2441,-1.2441,-1.2441,-1.2441,-1.2441,-1.2441,-1.2441,-1.2441,-1.2441,-1.2441,-1.2441,-1.2441,-1.2441,-1.2441,-1.2441,-1.2441,-1.2436,-1.2332,-1.2332,-1.2223,-1.1564,-1.0127,-0.9798,-0.9464,-0.8235,-0.736,-0.67,-0.6591,-0.5926,-0.5148,-0.4592,-0.448,-0.4257,-0.3699,-0.3587,-0.3587,0.0,0.0,0.0,0.0,-0.3537,-0.3503,0.0,0.0,0.0,0.0,0.0,-0.3304,-0.3238,-0.374,-0.3939,-0.3932,-0.4135,-0.4642,-0.5354,-0.4954,-0.4144,-0.313,-0.111,-0.0101,-0.0,0.101,0.1516,0.1516,0.1617,0.1617,0.1617,0.1617,0.1617,0.1617,0.1619,0.2046,0.2697,0.0,0.0,-1.1776,-1.1776,-1.1776,-1.1897,-1.2251,-1.2251,-1.2724,-1.4023,-1.4143,-1.45,-1.5456,-1.4738,-1.4376,-1.4728,-1.5666,-1.6138,-1.6138,-1.6486,-1.6133,-1.5192,-1.5192,-1.4966,-1.4267,-1.4147,-1.4272,-1.4629,-1.4277,-1.396,-1.3462,-1.341,-1.3192,-1.2838,-1.2786,-1.2644,-1.2441,-1.2441,-1.2441,-1.2441,-1.2441,-1.2441,-1.2441,-1.2441,-1.2441,-1.2441,-1.2441,-1.2441,-1.2441,-1.2441,-1.2441,-1.2441,-1.2441,-1.2441,-1.2441,-1.2441,-1.2441,-1.2441,-1.2441,-1.2223,-1.2114,-1.2114,-1.1896,-1.1345,-1.0127,-0.9798,-0.9464,-0.8235,-0.736,-0.6591,-0.6144,-0.5258,-0.448,-0.3923,-0.3811,-0.3811,-0.3587,-0.3587,-0.3587,0.0,-0.3587,-0.3587,-0.3587,-0.3574,-0.3565,0.0,0.0,0.0,0.0,-0.3463,-0.3407,-0.3304,-0.3403,-0.3481,-0.3432,-0.3833,-0.4334,-0.4939,-0.4438,-0.3731,-0.2821,-0.1916,-0.121,-0.0605,0.0303,0.0707,0.0707,0.1314,0.1617,0.1617,0.1617,0.1818,0.2224,0.2359,0.2686,0.3328,-1.1776,-1.1776,-1.1776,-1.1776,-1.1776,-1.1776,-1.1776,-1.1776,-1.2014,-1.2724,-1.284,-1.308,-1.3794,-1.32,-1.284,-1.284,-1.355,-1.4018,-1.4018,-1.4366,-1.4242,-1.354,-1.366,-1.355,-1.296,-1.2964,-1.3084,-1.3449,-1.3449,-1.3466,-1.3386,-1.3287,-1.3069,-1.2762,-1.2663,-1.255,-1.2441,-1.2441,-1.2441,-1.2441,-1.2441,-1.2441,-1.2441,-1.2441,-1.2441,-1.2441,-1.2441,-1.2441,-1.2441,-1.2441,-1.2332,-1.2223,-1.2223,-1.2114,-1.2005,-1.2005,-1.2114,-1.2219,-1.2114,-1.1896,-1.1787,-1.1673,-1.1126,-1.0241,-0.891,-0.8137,-0.7473,-0.6248,-0.5586,-0.5144,-0.4812,-0.4367,-0.4033,-0.3699,-0.3587,-0.3587,-0.3587,-0.3587,0.0,-0.3587,-0.3587,-0.3587,-0.3587,-0.3587,-0.3587,-0.3587,-0.3587,0.0,-0.354,-0.3538,-0.3485,-0.3367,-0.3362,-0.3347,-0.3313,-0.3592,-0.3764,-0.4033,-0.3732,-0.3429,-0.2924,-0.2319,-0.1714,-0.131,-0.0504,0.0101,0.0404,0.0909,0.1414,0.2021,0.2039,0.2351,0.2865,0.3024,0.3375,0.3937,-1.1776,-1.1776,-1.1776,-1.1776,-1.1776,-1.1776,-1.1776,-1.1776,-1.1776,-1.1776,-1.1776,-1.1776,-1.1776,-1.1776,-1.1776,-1.1776,-1.1776,-1.1776,-1.1776,-1.2005,-1.2118,-1.2118,-1.2363,-1.2603,-1.2599,-1.2719,-1.2964,-1.3204,-1.3177,-1.33,-1.3334,-1.3121,-1.2913,-1.271,-1.2521,-1.2441,-1.2441,-1.2441,-1.2441,-1.2441,-1.2441,-1.2441,-1.2441,-1.2441,-1.2441,-1.2436,-1.2327,-1.2332,-1.2332,-1.2332,-1.2114,-1.1896,-1.1896,-1.1787,-1.1568,-1.1568,-1.1678,-1.1787,-1.1678,-1.1459,-1.1236,-1.0798,-0.9911,-0.8692,-0.7141,-0.6146,-0.5037,-0.381,-0.3587,-0.3587,-0.3587,-0.3587,-0.3587,-0.3587,-0.3587,-0.3587,-0.3587,0.0,-0.3587,-0.3587,-0.3587,-0.3587,-0.3587,-0.3587,-0.3587,-0.3587,-0.3587,-0.3587,-0.3587,-0.3587,-0.3542,-0.3441,-0.3429,-0.3421,-0.3413,-0.3361,-0.3309,-0.3258,-0.3258,-0.3258,-0.3258,-0.2544,-0.2238,-0.2136,-0.1322,-0.061,-0.0,0.0204,0.1018,0.2241,0.2381,0.2915,0.3545,0.3608,0.3989,0.4477,-1.1776,-1.1776,-1.1776,-1.1776,-1.1776,-1.1776,-1.1776,-1.1776,-1.1776,-1.1776,-1.1776,-1.1776,-1.1776,-1.1776,-1.1776,-1.1776,-1.1776,-1.1776,-1.1776,-1.1897,-1.1893,-1.1893,-1.1893,-1.201,-1.2238,-1.284,-1.3204,-1.3204,-1.3277,-1.3325,-1.3112,-1.2909,-1.2701,-1.2488,-1.2455,-1.2441,-1.2441,-1.2441,-1.2441,-1.2441,-1.2441,-1.2441,-1.2441,-1.2441,-1.2441,-1.2332,-1.211,-1.211,-1.2005,-1.1787,-1.1678,-1.1678,-1.1678,-1.1678,-1.1568,-1.124,-1.124,-1.1236,-1.1568,-1.0684,-0.9691,-0.9361,-0.8361,-0.7141,-0.5924,-0.5483,-0.5037,-0.381,-0.3587,-0.3587,-0.3587,-0.3587,-0.3587,-0.3587,-0.3587,-0.3587,-0.3587,0.0,-0.3587,-0.3587,-0.3587,-0.3587,-0.3587,-0.3587,-0.3587,-0.3587,-0.3587,-0.3587,-0.3587,-0.3587,-0.3579,-0.3561,-0.3511,-0.3461,-0.3413,-0.3403,-0.3394,-0.3384,-0.3384,-0.3384,-0.3384,-0.3279,-0.3172,-0.3172,-0.2325,-0.1902,-0.169,-0.0739,0.0317,0.1479,0.1695,0.2757,0.4145,0.4214,0.4575,0.5146,-1.1776,-1.1776,-1.1776,-1.1776,-1.1776,-1.1776,-1.1776,-1.1776,-1.1776,-1.1776,-1.1776,-1.1776,-1.1776,-1.1776,-1.1776,-1.1776,-1.1776,-1.1776,-1.1776,-1.1776,-1.1776,-1.1776,-1.1776,-1.1893,-1.201,-1.2251,-1.256,-1.2807,-1.284,-1.2873,-1.2904,-1.281,-1.2649,-1.2441,-1.2441,-1.2441,-1.2441,-1.2441,-1.2441,-1.2441,-1.2441,-1.2441,-1.2327,-1.2223,-1.2219,-1.2114,-1.1896,-1.1787,-1.1787,-1.1678,-1.1459,-1.1345,-1.1345,-1.0794,-1.0135,-0.9915,-0.9915,-0.9915,-1.0135,-0.9133,-0.8137,-0.7919,-0.7033,-0.6035,-0.5483,-0.4925,-0.4257,-0.3699,-0.3587,-0.3587,-0.3587,-0.3587,-0.3587,-0.3587,-0.3587,0.0,0.0,-0.3587,-0.3587,-0.3587,-0.3587,-0.3587,-0.3587,-0.3587,-0.3587,-0.3587,-0.3587,-0.3587,-0.3587,-0.3587,-0.3587,-0.3587,-0.356,-0.3518,-0.3458,-0.3458,-0.3443,-0.3413,-0.3413,-0.3413,-0.3413,-0.3413,-0.3413,-0.3413,-0.2878,-0.2344,-0.1917,-0.1171,0.0213,0.1917,0.215,0.3238,0.4762,0.4953,0.5095,0.5324,-1.1776,-1.1776,-1.1776,-1.1776,-1.1776,-1.1776,-1.1776,-1.1776,-1.1776,-1.1776,-1.1776,-1.1776,-1.1776,-1.1776,-1.1776,-1.1776,-1.1776,-1.1776,-1.1776,-1.1776,-1.1776,-1.1776,-1.1776,-1.1776,-1.1776,-1.1856,-1.2,-1.2325,-1.2238,-1.2387,-1.2543,-1.2492,-1.2381,-1.2223,-1.2223,-1.2223,-1.2223,-1.2223,-1.2223,-1.2223,-1.2223,-1.2223,-1.2219,-1.2005,-1.1896,-1.1896,-1.1568,-1.1459,-1.1459,-1.1459,-1.124,-1.0907,-1.0688,-0.9801,-0.8813,-0.8589,-0.8254,-0.8146,-0.8364,-0.7587,-0.6697,-0.6697,-0.5813,-0.5037,-0.5037,-0.4257,-0.3587,-0.3587,-0.3587,-0.3587,-0.3587,-0.3587,-0.3587,-0.3587,0.0,0.0,0.0,-0.3587,-0.3587,-0.3587,-0.3587,-0.3587,-0.3587,-0.3587,-0.3587,-0.3587,-0.3587,-0.3587,-0.3587,-0.3587,-0.3587,-0.3587,-0.3587,-0.3565,-0.3518,-0.3518,-0.3496,-0.3452,-0.3452,-0.3452,-0.3452,-0.3452,-0.3452,-0.3345,-0.3128,-0.2588,-0.1941,-0.1617,-0.0,0.2263,0.2404,0.3625,0.5284,0.5355,0.5382,0.5382,-1.1776,-1.1776,-1.1776,-1.1776,-1.1776,-1.1776,-1.1776,-1.1776,-1.1776,-1.1776,-1.1776,-1.1776,-1.1776,-1.1776,-1.1776,-1.1776,-1.1776,-1.1776,-1.1776,-1.1776,-1.1776,-1.1776,-1.1776,-1.1776,-1.1776,-1.1967,-1.1989,-1.1972,-1.1972,-1.1898,-1.1975,-1.1788,-1.1691,-1.1678,-1.1678,-1.1678,-1.1678,-1.1678,-1.1678,-1.1678,-1.1678,-1.1678,-1.1678,-1.1678,-1.1678,-1.1568,-1.124,-1.1126,-1.1126,-1.0802,-1.0802,-1.0582,-0.9364,-0.903,-0.8699,-0.7584,-0.6478,-0.5926,-0.6919,-0.6366,-0.5483,-0.5483,-0.459,-0.3699,-0.3699,-0.3699,-0.3587,-0.3587,-0.3587,-0.3587,-0.3587,-0.3587,-0.3587,-0.3587,0.0,0.0,-0.3587,-0.3587,-0.3587,-0.3587,-0.3587,-0.3587,-0.3587,-0.3587,-0.3587,-0.3587,-0.3587,-0.3587,-0.3587,-0.3587,-0.3587,-0.3587,-0.3587,-0.3585,-0.358,-0.358,-0.3578,-0.3575,-0.3575,-0.3575,-0.3575,-0.3575,-0.3462,-0.3126,-0.3126,-0.2904,-0.2572,-0.2236,-0.0781,0.145,0.1787,0.3353,0.5371,0.538,0.5382,0.5382,-1.1776,-1.1776,-1.1776,-1.1776,-1.1776,-1.1776,-1.1776,-1.1776,-1.1776,-1.1776,-1.1776,-1.1776,-1.1776,-1.1776,-1.1776,-1.1776,-1.1776,-1.1776,-1.1776,-1.1776,-1.1776,-1.1776,-1.1667,-1.1606,-1.1606,-1.154,-1.1508,-1.1629,-1.1599,-1.1578,-1.1682,-1.1603,-1.1568,-1.1568,-1.1568,-1.1568,-1.1568,-1.1568,-1.1568,-1.1568,-1.1568,-1.1568,-1.1568,-1.135,-1.1236,-1.1126,-1.0135,-0.9695,-0.9581,-0.8803,-0.8468,-0.8358,-0.7916,-0.7254,-0.648,-0.5256,-0.4589,-0.4369,-0.481,-0.459,-0.4257,-0.4257,-0.3921,-0.3587,-0.3587,-0.3587,-0.3587,-0.3587,-0.3587,-0.3587,-0.3587,-0.3587,-0.3587,-0.3587,0.0,-0.3587,-0.3587,-0.3587,-0.3587,-0.3587,-0.3587,-0.3587,-0.3587,-0.3587,-0.3587,-0.3587,-0.3587,-0.3587,-0.3587,-0.3587,-0.3587,-0.3587,-0.3587,-0.3587,-0.3587,-0.3587,-0.3587,-0.3587,-0.3587,-0.3587,-0.3587,-0.3362,-0.325,-0.3025,-0.269,-0.2468,-0.2356,-0.1234,0.0112,0.1679,0.2573,0.3918,0.5382,0.5382,0.5382,0.5382,-1.1776,-1.1776,-1.1776,-1.1776,-1.1776,-1.1776,-1.1776,-1.1776,-1.1776,-1.1776,-1.1776,-1.1776,-1.1776,-1.1776,-1.1776,-1.1776,-1.1776,-1.1776,-1.1776,-1.1719,-1.1691,-1.1691,-1.1569,-1.1472,-1.1415,-1.1236,-1.12,-1.1306,-1.1247,-1.1257,-1.135,-1.135,-1.135,-1.135,-1.135,-1.135,-1.135,-1.135,-1.135,-1.135,-1.135,-1.135,-1.1236,-1.0684,-1.0355,-1.0245,-0.8806,-0.8364,-0.8254,-0.7362,-0.7138,-0.7027,-0.6697,-0.5813,-0.4702,-0.381,-0.3587,-0.3587,-0.3587,-0.3587,-0.3587,-0.3587,-0.3587,-0.3587,-0.3587,-0.3587,-0.3587,-0.3587,-0.3587,-0.3587,-0.3587,-0.3587,-0.3587,-0.3587,-0.3587,-0.3587,-0.3587,-0.3587,-0.3587,-0.3587,-0.3587,-0.3587,-0.3587,-0.3587,-0.3587,-0.3587,-0.3587,-0.3587,-0.3587,-0.3587,-0.3587,-0.3474,-0.3474,-0.3474,-0.3474,-0.3587,-0.3587,-0.3587,-0.3475,-0.3474,-0.3474,-0.3138,-0.2914,-0.2802,-0.2355,-0.2132,-0.202,-0.0561,0.0672,0.1903,0.3134,0.4367,0.5382,0.5382,0.5382,0.5382,-1.1776,-1.1776,-1.1776,-1.1776,-1.1776,-1.1776,-1.1776,-1.1776,-1.1776,-1.1776,-1.1776,-1.1776,-1.1776,-1.1776,-1.1776,-1.1776,-1.1776,-1.1776,-1.1776,-1.1602,-1.1496,-1.1496,-1.1496,-1.1411,-1.1224,-1.1053,-1.0968,-1.0968,-1.0781,-1.0692,-1.0692,-1.0692,-1.0692,-1.0692,-1.0692,-1.0692,-1.0692,-1.0692,-1.0692,-1.0692,-1.0692,-1.0692,-1.0582,-0.9364,-0.892,-0.8699,-0.7473,-0.7138,-0.7138,-0.7027,-0.7027,-0.6919,-0.5704,-0.459,-0.3587,-0.3587,-0.3587,-0.3587,-0.3587,-0.3587,-0.3587,-0.3587,-0.3587,-0.3587,-0.3587,-0.3587,-0.3587,-0.3587,-0.3587,-0.3587,-0.3587,-0.3587,-0.3587,-0.3587,-0.3587,-0.3587,-0.3587,-0.3587,-0.3587,-0.3587,-0.3587,-0.3587,-0.3587,-0.3587,-0.3587,-0.3587,-0.3587,-0.3587,-0.3587,-0.3587,-0.3474,-0.3137,-0.3137,-0.3137,-0.3137,-0.3474,-0.3587,-0.3587,-0.325,-0.3137,-0.3137,-0.2805,-0.2469,-0.2244,-0.2244,-0.202,-0.1683,-0.0449,0.0672,0.1903,0.3134,0.4367,0.5382,0.5382,0.5382,0.5382,-1.1776,-1.1776,-1.1776,-1.1776,-1.1776,-1.1776,-1.1776,-1.1776,-1.1776,-1.1776,-1.1776,-1.1776,-1.1776,-1.1776,-1.1776,-1.1776,-1.1776,-1.1719,-1.1589,-1.1407,-1.1252,-1.1131,-1.1126,-1.1102,-1.1045,-1.0867,-1.0773,-1.0773,-1.072,-1.0692,-1.0692,-1.0692,-1.0692,-1.0692,-0.9805,-0.9475,-0.9364,-0.8582,-0.8137,-0.8137,-0.8137,-0.8137,-0.8137,-0.7805,-0.7584,-0.7473,-0.6369,-0.5924,-0.5813,-0.4921,-0.47,-0.4589,-0.4255,-0.3923,-0.3587,-0.3587,-0.3587,-0.3587,-0.3587,-0.3587,-0.3587,-0.3587,-0.3587,-0.3587,-0.3587,-0.3587,-0.3587,-0.3587,-0.3587,-0.3587,-0.3587,-0.3587,-0.3587,-0.3587,-0.3587,-0.3587,-0.3587,-0.3587,-0.3587,-0.3587,-0.3587,-0.3587,-0.3587,-0.3587,-0.3587,-0.3587,-0.3587,-0.3475,-0.325,-0.325,-0.3138,-0.2805,-0.2805,-0.2805,-0.2805,-0.2917,-0.3029,-0.325,-0.2915,-0.2805,-0.2805,-0.2468,-0.2244,-0.2244,-0.202,-0.1907,-0.1683,0.0448,0.1456,0.2015,0.4032,0.5043,0.5382,0.5382,0.5382,0.5382,-1.1655,-1.1776,-1.1776,-1.1776,-1.1776,-1.1776,-1.1776,-1.1776,-1.1776,-1.1776,-1.1776,-1.1776,-1.1776,-1.1776,-1.1748,-1.1675,-1.1602,-1.1508,-1.1399,-1.122,-1.1078,-1.0972,-1.0899,-1.0635,-1.0185,-0.9632,-0.9247,-0.9247,-0.9247,-0.9247,-0.9247,-0.9247,-0.9247,-0.9247,-0.8472,-0.814,-0.814,-0.7362,-0.7138,-0.7138,-0.7138,-0.7138,-0.7027,-0.6586,-0.6478,-0.6255,-0.5146,-0.4702,-0.459,-0.381,-0.3587,-0.3587,-0.3587,-0.3587,-0.3587,-0.3587,-0.3587,-0.3587,-0.3587,-0.3587,-0.3587,-0.3587,-0.3587,-0.3587,-0.3587,-0.3587,-0.3587,-0.3587,-0.3587,-0.3587,-0.3587,-0.3587,-0.3587,-0.3587,-0.3587,-0.3587,-0.3587,-0.3587,-0.3587,-0.3587,-0.3587,-0.3587,-0.3587,-0.3587,-0.3587,-0.3362,-0.3251,-0.3141,-0.2915,-0.2915,-0.2805,-0.2469,-0.2469,-0.2469,-0.2469,-0.2357,-0.258,-0.2915,-0.2692,-0.2469,-0.2469,-0.2132,-0.202,-0.202,-0.1907,-0.157,-0.0897,0.1008,0.2127,0.2686,0.4594,0.5382,0.5382,0.5382,0.5382,0.5382,-1.1285,-1.1651,-1.1776,-1.1776,-1.1776,-1.1776,-1.1776,-1.1776,-1.1776,-1.1776,-1.1776,-1.1768,-1.1752,-1.1752,-1.1675,-1.1492,-1.1305,-1.12,-1.12,-1.1037,-1.0944,-1.0944,-1.0671,-1.0025,-0.8923,-0.7808,-0.7249,-0.7249,-0.7138,-0.7138,-0.7138,-0.7138,-0.7138,-0.7138,-0.703,-0.6919,-0.6919,-0.6805,-0.6805,-0.6805,-0.6805,-0.6805,-0.6695,-0.5592,-0.526,-0.5148,-0.4033,-0.3587,-0.3587,-0.3587,-0.3587,-0.3587,-0.3587,-0.3587,-0.3587,-0.3587,-0.3587,-0.3587,-0.3587,-0.3587,-0.3587,-0.3587,-0.3587,-0.3587,-0.3587,-0.3587,-0.3587,-0.3587,-0.3587,-0.3587,-0.3587,-0.3587,-0.3587,-0.3587,-0.3587,-0.3587,-0.3587,-0.3587,-0.3587,-0.3587,-0.3587,-0.3587,-0.3475,-0.3475,-0.3363,-0.3138,-0.2805,-0.2693,-0.2693,-0.2693,-0.2469,-0.2132,-0.2132,-0.2132,-0.2132,-0.1908,-0.2132,-0.2693,-0.2356,-0.2132,-0.2132,-0.1907,-0.1795,-0.1795,-0.1683,-0.1009,0.0112,0.1456,0.2574,0.3692,0.4931,0.5382,0.5382,0.5382,0.5382,0.5491,-0.9687,-1.0664,-1.1522,-1.1776,-1.1776,-1.1776,-1.1776,-1.1776,-1.1776,-1.1776,-1.1776,-1.1719,-1.1577,-1.1561,-1.1484,-1.1297,-1.1122,-1.1025,-1.1025,-1.0854,-1.0753,-1.0753,-0.9827,-0.9144,-0.8923,-0.8699,-0.8475,-0.8475,-0.7584,-0.7138,-0.7138,-0.7138,-0.7138,-0.7027,-0.6144,-0.5813,-0.5704,-0.4812,-0.4365,-0.4365,-0.4365,-0.4365,-0.4367,-0.4033,-0.4033,-0.3921,-0.3699,-0.3587,-0.3587,-0.3587,-0.3587,-0.3587,-0.3587,-0.3587,-0.3587,-0.3587,-0.3587,-0.3587,-0.3587,-0.3587,-0.3587,-0.3587,-0.3587,-0.3587,-0.3587,-0.3587,-0.3587,-0.3587,-0.3587,-0.3587,-0.3587,-0.3587,-0.3587,-0.3587,-0.3587,-0.3587,-0.3587,-0.3587,-0.3475,-0.325,-0.3474,-0.3363,-0.2917,-0.2918,-0.2918,-0.2806,-0.2693,-0.2581,-0.2356,-0.2356,-0.2132,-0.1907,-0.1907,-0.1907,-0.1907,-0.1795,-0.202,-0.2356,-0.202,-0.1907,-0.1907,-0.1795,-0.1795,-0.1795,-0.0785,-0.0224,0.0112,0.2351,0.3357,0.3692,0.4931,0.5382,0.5382,0.5382,0.5491,0.5712,-0.7975,-0.8708,-0.9441,-1.0422,-1.0668,-1.0914,-1.1651,-1.1703,-1.1646,-1.1646,-1.1569,-1.1476,-1.1378,-1.1366,-1.1293,-1.1118,-1.094,-1.0838,-1.0838,-1.0745,-1.0692,-1.0692,-1.0139,-0.9475,-0.8923,-0.8364,-0.7808,-0.7257,-0.6589,-0.6033,-0.5477,-0.5477,-0.5477,-0.5365,-0.4812,-0.4592,-0.448,-0.3921,-0.3587,-0.3587,-0.3587,-0.3587,-0.3587,-0.3587,-0.3587,-0.3587,-0.3587,-0.3587,-0.3587,-0.3587,-0.3587,-0.3587,-0.3587,-0.3587,-0.3587,-0.3587,-0.3587,-0.3587,-0.3587,-0.3587,-0.3587,-0.3587,-0.3587,-0.3587,-0.3587,-0.3587,-0.3587,-0.3587,-0.3587,-0.3587,-0.3587,-0.3587,-0.3587,-0.3587,-0.3587,-0.3587,-0.3362,-0.3362,-0.325,-0.2915,-0.3029,-0.3029,-0.2693,-0.2581,-0.2469,-0.2469,-0.2356,-0.2244,-0.202,-0.202,-0.1908,-0.1795,-0.1795,-0.1795,-0.1795,-0.1795,-0.1907,-0.202,-0.1907,-0.1795,-0.1795,-0.1795,-0.1458,-0.0897,-0.0224,0.0672,0.1791,0.3134,0.3917,0.448,0.5156,0.5382,0.5382,0.5491,0.5824,0.6267,-0.6143,-0.663,-0.7235,-0.8678,-0.9042,-0.964,-1.1079,-1.1312,-1.1451,-1.1451,-1.1317,-1.1212,-1.1183,-1.1151,-1.1074,-1.0936,-1.056,-1.0359,-1.0359,-1.0359,-1.0249,-1.0135,-1.0249,-0.9805,-0.8589,-0.7584,-0.6589,-0.5371,-0.5148,-0.459,-0.3587,-0.3587,-0.3587,-0.3587,-0.3587,-0.3587,-0.3587,-0.3587,-0.3587,-0.3587,-0.3587,-0.3587,-0.3587,-0.3587,-0.3587,-0.3587,-0.3587,-0.3587,-0.3587,-0.3587,-0.3587,-0.3587,-0.3587,-0.3587,-0.3587,-0.3587,-0.3587,-0.3587,-0.3475,-0.3587,-0.3587,-0.3475,-0.3475,-0.3475,-0.3475,-0.3475,-0.3587,-0.3587,-0.3587,-0.3587,-0.3587,-0.3587,-0.3587,-0.3587,-0.3587,-0.3475,-0.325,-0.3137,-0.3026,-0.2693,-0.2581,-0.2581,-0.2581,-0.2356,-0.2132,-0.2132,-0.1908,-0.1795,-0.1795,-0.1795,-0.1795,-0.1795,-0.1795,-0.1795,-0.1795,-0.1795,-0.1683,-0.1458,-0.1458,-0.1458,-0.1458,-0.1458,-0.0785,0.0336,0.056,0.1791,0.358,0.3805,0.448,0.5382,0.5382,0.5382,0.5491,0.5824,0.6267,0.6715,-0.4674,-0.5651,-0.6598,-0.7115,-0.8056,-0.8857,-0.9319,-1.0222,-1.1029,-1.1261,-1.1236,-1.1167,-1.1021,-1.0858,-1.0753,-1.0733,-0.971,-0.9144,-0.9144,-0.9144,-0.8696,-0.7584,-0.8585,-0.8585,-0.7362,-0.7138,-0.6589,-0.5371,-0.4369,-0.3811,-0.3587,-0.3587,-0.3587,-0.3587,-0.3587,-0.3587,-0.3587,-0.3587,-0.3587,-0.3587,-0.3587,-0.3587,-0.3587,-0.3587,-0.3587,-0.3587,-0.3587,-0.3587,-0.3587,-0.3587,-0.3587,-0.3587,-0.3587,-0.3587,-0.3587,-0.3587,-0.3587,-0.3587,-0.325,-0.3362,-0.3475,-0.2917,-0.3027,-0.3138,-0.2917,-0.3253,-0.3587,-0.3587,-0.3587,-0.3587,-0.3587,-0.3587,-0.3587,-0.3587,-0.3587,-0.3587,-0.3587,-0.325,-0.3026,-0.2693,-0.2244,-0.202,-0.2244,-0.202,-0.1907,-0.1907,-0.1795,-0.1795,-0.1795,-0.1795,-0.1795,-0.1795,-0.1795,-0.1795,-0.1795,-0.1795,-0.1234,-0.0224,-0.0224,-0.0224,-0.0224,-0.0224,0.0448,0.1567,0.2686,0.3245,0.3692,0.4706,0.5268,0.5382,0.5382,0.5491,0.5824,0.6381,0.6604,0.6712,-0.3125,-0.3721,-0.4427,-0.5461,-0.6162,-0.697,-0.8552,-0.9171,-0.9695,-1.0736,-1.0767,-1.0675,-1.0822,-1.0741,-1.0692,-1.0692,-0.9585,-0.892,-0.892,-0.8254,-0.7695,-0.7138,-0.7584,-0.7365,-0.6144,-0.6146,-0.559,-0.4369,-0.4592,-0.4257,-0.3587,-0.3587,-0.3587,-0.3587,-0.3587,-0.3587,-0.3587,-0.3587,-0.3587,-0.3587,-0.3587,-0.3587,-0.3587,-0.3587,-0.3587,-0.3587,-0.3587,-0.3587,-0.3587,-0.3587,-0.3475,-0.3362,-0.3362,-0.3251,-0.3141,-0.3141,-0.3141,-0.3029,-0.2917,-0.3029,-0.3029,-0.2806,-0.2806,-0.2805,-0.2693,-0.2918,-0.3141,-0.3141,-0.3141,-0.3141,-0.3141,-0.3141,-0.3141,-0.3141,-0.3141,-0.3029,-0.2805,-0.2691,-0.2467,-0.2244,-0.1908,-0.1795,-0.202,-0.1907,-0.1795,-0.1795,-0.1795,-0.1795,-0.1795,-0.1795,-0.1795,-0.1795,-0.1795,-0.1458,-0.0785,-0.0785,-0.0224,0.1008,0.1008,0.1008,0.1008,0.1008,0.1679,0.2798,0.3357,0.4029,0.4592,0.5156,0.5382,0.5382,0.5603,0.5935,0.6379,0.6601,0.6824,0.7046]},{"header":{"parameterUnit":"m.s-1","parameterCategory":1,"la1":30.6,"la2":28.766,"lo1":-90.7593,"lo2":-88.6598,"dy":0.0162,"dx":0.0183,"nx":116,"ny":114,"refTime":"2023-06-22T06:00:00:Z","depth":0,"parameterNumber":3,"parameterNumberName":"V-component_of_WINDS"},"data":[0.0,0.0,0.0,0.0,0.0,0.0,0.0,0.0,0.0,0.0,0.0,0.0,0.0,0.0,0.0,0.0,0.0,0.0,0.0,0.0,0.0,0.0,0.0,0.0,0.0,0.0,0.0,0.0,0.0,0.0,0.0,0.0,0.0,0.0,0.0,0.0,0.0,0.0,0.0,0.0,0.0,0.0,0.0,0.0,0.0,0.0,0.0,0.0,0.0,0.0,0.0,0.0,0.0,0.0,0.0,0.0,0.0,0.0,0.0,0.0,0.0,0.0,0.0,0.0,0.0,0.0,0.0,0.0,0.0,0.0,0.0,0.0,0.0,0.0,0.0,0.0,0.0,0.0,0.0,0.0,0.0,0.0,0.0,0.0,0.0,0.0,0.0,0.0,0.0,0.0,0.0,0.0,0.0,0.0,0.0,0.0,0.0,0.0,0.0,0.0,0.0,0.0,0.0,0.0,0.0,0.0,0.0,0.0,0.0,0.0,0.0,0.0,0.0,0.0,0.0,0.0,0.0,0.0,0.0,0.0,0.0,0.0,0.0,0.0,0.0,0.0,0.0,0.0,0.0,0.0,0.0,0.0,0.0,0.0,0.0,0.0,0.0,0.0,0.0,0.0,0.0,0.0,0.0,0.0,0.0,0.0,0.0,0.0,0.0,0.0,0.0,0.0,0.0,0.0,0.0,0.0,0.0,0.0,0.0,0.0,0.0,0.0,0.0,0.0,0.0,0.0,0.0,0.0,0.0,0.0,0.0,0.0,0.0,0.0,0.0,0.0,0.0,0.0,0.0,0.0,0.0,0.0,0.0,0.0,0.0,0.0,0.0,0.0,0.0,0.0,0.0,0.0,0.0,0.0,0.0,0.0,0.0,0.0,0.0,0.0,0.0,0.0,0.0,0.0,0.0,0.0,0.0,0.0,0.0,0.0,0.0,0.0,0.0,0.0,0.0,0.0,0.0,0.0,0.0,0.0,0.0,0.0,0.0,0.0,0.0,0.0,0.0,0.0,0.0,0.0,0.0,0.0,0.0,0.0,0.0,0.0,0.0,0.0,0.0,0.0,0.0,0.0,0.0,0.0,0.0,0.0,0.0,0.0,0.0,0.0,0.0,0.0,0.0,0.0,0.0,0.0,0.0,0.0,0.0,0.0,0.0,0.0,0.0,0.0,0.0,0.0,0.0,0.0,0.0,0.0,0.0,0.0,0.0,0.0,0.0,0.0,0.0,0.0,0.0,0.0,0.0,0.0,0.0,0.0,0.0,0.0,0.0,0.0,0.0,0.0,0.0,0.0,0.0,0.0,0.0,0.0,0.0,0.0,0.0,0.0,0.0,0.0,0.0,0.0,0.0,0.0,0.0,0.0,0.0,0.0,0.0,0.0,0.0,0.0,0.0,0.0,0.0,0.0,0.0,0.0,0.0,0.0,0.0,0.0,0.0,0.0,0.0,0.0,0.0,0.0,0.0,0.0,0.0,0.0,0.0,0.0,0.0,0.0,0.0,0.0,0.0,0.0,0.0,0.0,0.0,0.0,0.0,0.0,0.0,0.0,0.0,0.0,0.0,0.0,0.0,0.0,0.0,0.0,0.0,0.0,0.0,0.0,0.0,0.0,0.0,0.0,0.0,0.0,0.0,0.0,0.0,0.0,0.0,0.0,0.0,0.0,0.0,0.0,0.0,0.0,0.0,0.0,0.0,0.0,0.0,0.0,0.0,0.0,0.0,0.0,0.0,0.0,0.0,0.0,0.0,0.0,0.0,0.0,0.0,0.0,0.0,0.0,0.0,0.0,0.0,0.0,0.0,0.0,0.0,0.0,0.0,0.0,0.0,0.0,0.0,0.0,0.0,0.0,0.0,0.0,0.0,0.0,0.0,0.0,0.0,0.0,0.0,0.0,0.0,0.0,0.0,0.0,0.0,0.0,0.0,0.0,0.0,0.0,0.0,0.0,0.0,0.0,0.0,0.0,0.0,0.0,0.0,0.0,0.0,0.0,0.0,0.0,0.0,0.0,0.0,0.0,0.0,0.0,0.0,0.0,0.0,0.0,0.0,0.0,0.0,0.0,0.0,0.0,0.0,0.0,0.0,0.0,0.0,0.0,0.0,0.0,0.0,0.0,0.0,0.0,0.0,0.0,0.0,0.0,0.0,0.0,0.0,0.0,0.0,0.0,0.0,0.0,0.0,0.0,0.0,0.0,0.0,0.0,0.0,0.0,0.0,0.0,0.0,0.0,0.0,0.0,0.0,0.0,0.0,0.0,0.0,0.0,0.0,0.0,0.0,0.0,0.0,0.0,0.0,0.0,0.0,0.0,0.0,0.0,0.0,0.0,0.0,0.0,0.0,0.0,0.0,0.0,0.0,0.0,0.0,0.0,0.0,0.0,0.0,0.0,0.0,0.0,0.0,0.0,0.0,0.0,0.0,0.0,0.0,0.0,0.0,0.0,0.0,0.0,0.0,0.0,0.0,0.0,0.0,0.0,0.0,0.0,0.0,0.0,0.0,0.0,0.0,0.0,0.0,0.0,0.0,0.0,0.0,0.0,0.0,0.0,0.0,0.0,0.0,0.0,0.0,0.0,0.0,0.0,0.0,0.0,0.0,0.0,0.0,0.0,0.0,0.0,0.0,0.0,0.0,0.0,0.0,0.0,0.0,0.0,0.0,0.0,0.0,0.0,0.0,0.0,0.0,0.0,0.0,0.0,0.0,0.0,0.0,0.0,0.0,0.0,0.0,0.0,0.0,0.0,0.0,0.0,0.0,0.0,0.0,0.0,0.0,0.0,0.0,0.0,0.0,0.0,0.0,0.0,0.0,0.0,0.0,0.0,0.0,0.0,0.0,0.0,0.0,0.0,0.0,0.0,0.0,0.0,0.0,0.0,0.0,0.0,0.0,0.0,0.0,0.0,0.0,0.0,0.0,0.0,0.0,0.0,0.0,0.0,0.0,0.0,0.0,0.0,0.0,0.0,0.0,0.0,0.0,0.0,0.0,0.0,0.0,0.0,0.0,0.0,0.0,0.0,0.0,0.0,0.0,0.0,0.0,0.0,0.0,0.0,0.0,0.0,0.0,0.0,0.0,0.0,0.0,0.0,0.0,0.0,0.0,0.0,0.0,0.0,0.0,0.0,0.0,0.0,0.0,0.0,0.0,0.0,0.0,0.0,0.0,0.0,0.0,0.0,0.0,0.0,0.0,0.0,0.0,0.0,0.0,0.0,0.0,0.0,0.0,0.0,0.0,0.0,0.0,0.0,0.0,0.0,0.0,0.0,0.0,0.0,0.0,0.0,0.0,0.0,0.0,0.0,0.0,0.0,0.0,0.0,0.0,0.0,0.0,0.0,0.0,0.0,0.0,0.0,0.0,0.0,0.0,0.0,0.0,0.0,0.0,0.0,0.0,0.0,0.0,0.0,0.0,0.0,0.0,0.0,0.0,0.0,0.0,0.0,0.0,0.0,0.0,0.0,0.0,0.0,0.0,0.0,0.0,0.0,0.0,0.0,0.0,0.0,0.0,0.0,0.0,0.0,0.0,0.0,0.0,0.0,0.0,0.0,0.0,0.0,0.0,0.0,0.0,0.0,0.0,0.0,0.0,0.0,0.0,0.0,0.0,0.0,0.0,0.0,0.0,0.0,0.0,0.0,0.0,0.0,0.0,0.0,0.0,0.0,0.0,0.0,0.0,0.0,0.0,0.0,0.0,0.0,0.0,0.0,0.0,0.0,0.0,0.0,0.0,0.0,0.0,0.0,0.0,0.0,0.0,0.0,0.0,0.0,0.0,0.0,0.0,0.0,0.0,0.0,0.0,0.0,0.0,0.0,0.0,0.0,0.0,0.0,0.0,0.0,0.0,0.0,0.0,0.0,0.0,0.0,0.0,0.0,0.0,0.0,0.0,0.0,0.0,0.0,0.0,0.0,0.0,0.0,0.0,0.0,0.0,0.0,0.0,0.0,0.0,0.0,0.0,0.0,0.0,0.0,0.0,0.0,0.0,0.0,0.0,0.0,0.0,0.0,0.0,0.0,0.0,0.0,0.0,0.0,0.0,0.0,0.0,0.0,0.0,0.0,0.0,0.0,0.0,0.0,0.0,0.0,0.0,0.0,0.0,0.0,0.0,0.0,0.0,0.0,0.0,0.0,0.0,0.0,0.0,0.0,0.0,0.0,0.0,0.0,0.0,0.0,0.0,0.0,0.0,0.0,0.0,0.0,0.0,0.0,0.0,0.0,0.0,0.0,0.0,0.0,0.0,0.0,0.0,0.0,0.0,0.0,0.0,0.0,0.0,0.0,0.0,0.0,0.0,0.0,0.0,0.0,0.0,0.0,0.0,0.0,0.0,0.0,0.0,0.0,0.0,0.0,0.0,0.0,0.0,0.0,0.0,0.0,0.0,0.0,0.0,0.0,0.0,0.0,0.0,0.0,0.0,0.0,0.0,0.0,0.0,0.0,0.0,0.0,0.0,0.0,0.0,0.0,0.0,0.0,0.0,0.0,0.0,0.0,0.0,0.0,0.0,0.0,0.0,0.0,0.0,0.0,0.0,0.0,0.0,0.0,0.0,0.0,0.0,0.0,0.0,0.0,0.0,0.0,0.0,0.0,0.0,0.0,0.0,0.0,0.0,0.0,0.0,0.0,0.0,0.0,0.0,0.0,0.0,0.0,0.0,0.0,0.0,0.0,0.0,0.0,0.0,0.0,0.0,0.0,0.0,0.0,0.0,0.0,0.0,0.0,0.0,0.0,0.0,0.0,0.0,0.0,0.0,0.0,0.0,0.0,0.0,0.0,0.0,0.0,0.0,0.0,0.0,0.0,0.0,0.0,0.0,0.0,0.0,0.0,0.0,0.0,0.0,0.0,0.0,0.0,0.0,0.0,0.0,0.0,0.0,0.0,0.0,0.0,0.0,0.0,0.0,0.0,0.0,0.0,0.0,0.0,0.0,0.0,0.0,0.0,0.0,0.0,0.0,0.0,0.0,0.0,0.0,0.0,0.0,0.0,0.0,0.0,0.0,0.0,0.0,0.0,0.0,0.0,0.0,0.0,0.0,0.0,0.0,0.0,0.0,0.0,0.0,0.0,0.0,0.0,0.0,0.0,0.0,0.0,0.0,0.0,0.0,0.0,0.0,0.0,0.0,0.0,0.0,0.0,0.0,0.0,0.0,0.0,0.0,0.0,0.0,0.0,0.0,0.0,0.0,0.0,0.0,0.0,0.0,0.0,0.0,0.0,0.0,0.0,0.0,0.0,0.0,0.0,0.0,0.0,0.0,0.0,0.0,0.0,0.0,0.0,0.0,0.0,0.0,0.0,0.0,0.0,0.0,0.0,0.0,0.0,0.0,0.0,0.0,0.0,0.0,0.0,0.0,0.0,0.0,0.0,0.0,0.0,0.0,0.0,0.0,0.0,0.0,0.0,0.0,0.0,0.0,0.0,0.0,0.0,0.0,0.0,0.0,0.0,0.0,0.0,0.0,0.0,0.0,0.0,0.0,0.0,0.0,0.0,0.0,0.0,0.0,0.0,0.0,0.0,0.0,0.0,0.0,0.0,0.0,0.0,0.0,0.0,0.0,0.0,0.0,0.0,0.0,0.0,0.0,0.0,0.0,0.0,0.0,0.0,0.0,0.0,0.0,0.0,0.0,0.0,0.0,0.0,0.0,0.0,0.0,0.0,0.0,0.0,0.0,0.0,0.0,0.0,0.0,0.0,0.0,0.0,0.0,0.0,0.0,0.0,0.0,0.0,0.0,0.0,0.0,0.0,0.0,0.0,0.0,0.0,0.0,0.0,0.0,0.0,0.0,0.0,0.0,0.0,0.0,0.0,0.0,0.0,0.0,0.0,0.0,0.0,0.0,0.0,0.0,0.0,0.0,0.0,0.0,0.0,0.0,0.0,0.0,0.0,0.0,0.0,0.0,0.0,0.0,0.0,0.0,0.0,0.0,0.0,0.0,0.0,0.0,0.0,0.0,0.0,0.0,0.0,0.0,0.0,0.0,0.0,0.0,0.0,0.0,0.0,0.0,0.0,0.0,0.0,0.0,0.0,0.0,0.0,0.0,0.0,0.0,0.0,0.0,0.0,0.0,0.0,0.0,0.0,0.0,0.0,0.0,0.0,-4.6852,0.0,0.0,0.0,0.0,0.0,0.0,0.0,0.0,0.0,0.0,0.0,0.0,0.0,0.0,0.0,0.0,0.0,0.0,0.0,0.0,0.0,0.0,0.0,0.0,0.0,0.0,0.0,0.0,0.0,0.0,0.0,0.0,0.0,0.0,0.0,0.0,0.0,0.0,0.0,0.0,0.0,0.0,0.0,0.0,0.0,0.0,0.0,0.0,0.0,0.0,0.0,0.0,0.0,0.0,0.0,0.0,0.0,0.0,0.0,0.0,0.0,0.0,0.0,0.0,0.0,0.0,0.0,0.0,0.0,0.0,0.0,0.0,0.0,0.0,0.0,0.0,0.0,0.0,0.0,0.0,0.0,0.0,0.0,0.0,0.0,0.0,0.0,0.0,0.0,0.0,0.0,0.0,0.0,0.0,0.0,0.0,0.0,0.0,0.0,0.0,0.0,0.0,0.0,0.0,0.0,0.0,0.0,0.0,0.0,0.0,0.0,0.0,0.0,0.0,0.0,0.0,-4.6731,0.0,0.0,0.0,0.0,0.0,0.0,0.0,0.0,0.0,0.0,0.0,0.0,0.0,0.0,0.0,0.0,0.0,0.0,0.0,0.0,0.0,0.0,0.0,0.0,0.0,0.0,0.0,0.0,0.0,0.0,0.0,0.0,0.0,0.0,0.0,0.0,0.0,0.0,0.0,0.0,0.0,0.0,0.0,0.0,0.0,0.0,0.0,0.0,0.0,0.0,0.0,0.0,0.0,0.0,0.0,0.0,0.0,0.0,0.0,0.0,0.0,0.0,0.0,0.0,0.0,0.0,0.0,0.0,0.0,0.0,0.0,0.0,0.0,0.0,0.0,0.0,0.0,0.0,0.0,0.0,0.0,0.0,0.0,0.0,0.0,0.0,0.0,0.0,0.0,0.0,0.0,0.0,0.0,0.0,0.0,0.0,0.0,0.0,0.0,0.0,0.0,0.0,0.0,0.0,0.0,0.0,0.0,0.0,-4.4763,-4.458,-4.4635,-4.4892,-4.5197,-4.5614,-4.6266,-4.6684,-4.6998,-4.6998,0.0,0.0,0.0,0.0,0.0,0.0,0.0,0.0,0.0,0.0,0.0,0.0,0.0,0.0,0.0,0.0,0.0,0.0,0.0,0.0,0.0,0.0,0.0,0.0,0.0,0.0,0.0,0.0,0.0,0.0,0.0,0.0,0.0,0.0,0.0,0.0,0.0,0.0,0.0,0.0,0.0,0.0,0.0,0.0,0.0,0.0,0.0,0.0,0.0,0.0,0.0,0.0,0.0,0.0,0.0,0.0,0.0,0.0,0.0,0.0,0.0,0.0,0.0,0.0,0.0,0.0,0.0,0.0,0.0,0.0,0.0,0.0,0.0,0.0,0.0,0.0,0.0,0.0,0.0,0.0,0.0,0.0,0.0,0.0,0.0,0.0,-4.8214,-4.7409,0.0,0.0,0.0,0.0,0.0,0.0,0.0,0.0,0.0,0.0,0.0,0.0,0.0,-4.4138,-4.4239,-4.4196,-4.4202,-4.4202,-4.4145,-4.4243,-4.4434,-4.4691,-4.5144,-4.585,-4.6102,0.0,-4.6998,-4.6998,0.0,0.0,0.0,0.0,0.0,0.0,0.0,0.0,0.0,0.0,0.0,0.0,0.0,0.0,0.0,0.0,0.0,0.0,0.0,0.0,0.0,0.0,0.0,0.0,0.0,0.0,0.0,0.0,0.0,0.0,0.0,0.0,0.0,0.0,0.0,0.0,0.0,0.0,0.0,0.0,0.0,0.0,0.0,0.0,0.0,0.0,0.0,0.0,0.0,0.0,0.0,0.0,0.0,0.0,0.0,0.0,0.0,0.0,0.0,0.0,0.0,0.0,0.0,0.0,0.0,0.0,0.0,0.0,0.0,0.0,0.0,0.0,0.0,0.0,0.0,0.0,0.0,0.0,0.0,0.0,0.0,0.0,0.0,0.0,0.0,-4.7536,-4.6981,-4.6377,-4.568,-4.5003,0.0,0.0,0.0,0.0,0.0,0.0,0.0,0.0,0.0,-4.3202,-4.3502,-4.3604,-4.3604,-4.3856,-4.403,-4.403,-4.3722,-4.3663,-4.3806,-4.4037,-4.4567,-4.5286,-4.5817,-4.6411,-4.6998,-4.6998,-4.6998,-4.7033,0.0,0.0,0.0,0.0,-4.8396,-4.8568,0.0,0.0,0.0,0.0,0.0,0.0,0.0,0.0,0.0,0.0,0.0,0.0,0.0,0.0,0.0,0.0,0.0,0.0,0.0,0.0,0.0,0.0,0.0,0.0,0.0,0.0,0.0,0.0,0.0,0.0,0.0,0.0,0.0,0.0,0.0,0.0,0.0,0.0,0.0,0.0,0.0,0.0,0.0,0.0,0.0,0.0,0.0,0.0,0.0,0.0,0.0,0.0,0.0,0.0,0.0,0.0,0.0,0.0,0.0,0.0,0.0,0.0,0.0,0.0,0.0,0.0,0.0,0.0,0.0,0.0,0.0,0.0,0.0,0.0,0.0,0.0,0.0,-4.6746,-4.6227,-4.5645,-4.5039,-4.4412,0.0,0.0,0.0,0.0,0.0,0.0,-4.2634,-4.2634,-4.2634,-4.2634,-4.2912,-4.3141,-4.3141,-4.3502,-4.3621,-4.3621,-4.3323,-4.3141,-4.3141,-4.341,-4.3987,-4.4844,-4.5407,-4.6182,-4.6998,-4.6998,-4.6998,-4.7051,-4.764,-4.7997,-4.8229,-4.8586,-4.8543,-4.837,0.0,0.0,0.0,0.0,0.0,0.0,0.0,0.0,0.0,0.0,0.0,0.0,0.0,0.0,0.0,0.0,0.0,0.0,0.0,0.0,0.0,0.0,0.0,0.0,0.0,0.0,0.0,0.0,0.0,0.0,0.0,0.0,0.0,0.0,0.0,0.0,0.0,0.0,0.0,0.0,0.0,0.0,0.0,0.0,0.0,0.0,0.0,0.0,0.0,0.0,0.0,0.0,0.0,0.0,0.0,0.0,0.0,0.0,0.0,0.0,0.0,0.0,0.0,0.0,0.0,0.0,0.0,0.0,0.0,0.0,0.0,0.0,0.0,0.0,0.0,0.0,0.0,0.0,0.0,-4.5695,-4.4915,0.0,0.0,0.0,0.0,-4.2634,-4.2634,-4.2618,-4.2634,-4.2634,-4.2634,-4.2634,-4.2618,-4.2634,-4.2634,-4.268,-4.268,-4.268,-4.2634,-4.2634,-4.2618,-4.2821,-4.363,-4.479,-4.502,-4.5835,-4.6998,-4.6998,-4.6998,-4.6998,-4.7033,-4.7515,-4.8086,-4.7372,-4.7779,-4.8594,0.0,0.0,0.0,0.0,0.0,0.0,0.0,0.0,0.0,0.0,0.0,0.0,0.0,0.0,0.0,0.0,0.0,0.0,0.0,0.0,0.0,0.0,0.0,0.0,0.0,0.0,0.0,0.0,0.0,0.0,0.0,0.0,0.0,0.0,0.0,0.0,0.0,0.0,0.0,0.0,0.0,0.0,0.0,0.0,0.0,0.0,0.0,0.0,0.0,0.0,0.0,0.0,0.0,0.0,0.0,0.0,0.0,0.0,0.0,0.0,0.0,0.0,0.0,0.0,0.0,0.0,0.0,0.0,0.0,0.0,0.0,0.0,0.0,0.0,0.0,0.0,0.0,0.0,0.0,-4.5127,-4.449,0.0,-4.3366,-4.2851,-4.2634,-4.2634,-4.2634,-4.2634,-4.2634,-4.2634,-4.2634,-4.2634,-4.2634,-4.2634,-4.2634,-4.2634,-4.2634,-4.2634,-4.2634,-4.2634,-4.2634,-4.2974,-4.3647,-4.4567,-4.5127,-4.5885,-4.6749,-4.6934,-4.6998,-4.6998,-4.6998,-4.7158,-4.7372,-4.7105,-4.7249,-4.7626,0.0,0.0,0.0,0.0,0.0,0.0,0.0,0.0,0.0,0.0,0.0,0.0,0.0,0.0,0.0,0.0,0.0,0.0,0.0,0.0,0.0,0.0,0.0,0.0,0.0,0.0,0.0,0.0,0.0,0.0,0.0,0.0,0.0,0.0,0.0,0.0,0.0,0.0,0.0,0.0,0.0,0.0,-4.568,0.0,0.0,0.0,0.0,0.0,0.0,0.0,0.0,0.0,0.0,0.0,0.0,0.0,0.0,0.0,0.0,0.0,0.0,0.0,0.0,0.0,0.0,0.0,0.0,0.0,0.0,0.0,0.0,0.0,0.0,0.0,0.0,0.0,0.0,0.0,-4.5511,-4.4818,-4.4316,-4.3798,-4.3366,-4.2851,-4.2634,-4.2634,-4.2634,-4.2634,-4.2634,-4.2634,-4.2634,-4.2634,-4.2634,-4.2634,-4.2634,-4.2634,-4.2634,-4.2634,-4.2634,-4.268,-4.2851,-4.3141,-4.3823,-4.4657,-4.5233,-4.5935,-4.6637,-4.6888,-4.6998,-4.6998,-4.6998,-4.6998,-4.6998,-4.6998,-4.6998,-4.707,0.0,0.0,0.0,0.0,0.0,0.0,0.0,0.0,0.0,0.0,0.0,0.0,0.0,0.0,0.0,0.0,0.0,0.0,0.0,0.0,0.0,0.0,0.0,0.0,0.0,0.0,0.0,0.0,0.0,0.0,0.0,0.0,0.0,0.0,0.0,0.0,0.0,0.0,0.0,0.0,0.0,0.0,-4.5715,0.0,0.0,0.0,0.0,0.0,0.0,0.0,0.0,0.0,0.0,0.0,0.0,0.0,0.0,0.0,0.0,0.0,0.0,0.0,0.0,0.0,0.0,0.0,0.0,0.0,0.0,0.0,0.0,0.0,0.0,0.0,0.0,0.0,-4.5608,-4.5716,-4.5442,-4.4749,-4.4266,-4.3748,-4.3333,-4.2834,-4.2634,-4.2634,-4.2634,-4.2634,-4.2634,-4.2634,-4.2634,-4.2634,-4.2634,-4.2634,-4.2634,-4.2634,-4.2634,-4.2634,-4.2634,-4.2851,-4.3246,-4.3306,-4.398,-4.5108,-4.5407,-4.5935,-4.659,-4.6888,-4.6998,-4.6998,-4.6998,-4.6998,-4.6998,-4.6998,-4.698,-4.7116,0.0,0.0,0.0,0.0,0.0,0.0,0.0,0.0,0.0,0.0,0.0,0.0,0.0,0.0,0.0,0.0,0.0,0.0,0.0,0.0,0.0,0.0,0.0,0.0,0.0,0.0,0.0,0.0,0.0,0.0,0.0,0.0,0.0,0.0,0.0,0.0,0.0,0.0,0.0,0.0,0.0,0.0,-4.592,0.0,0.0,0.0,0.0,0.0,0.0,0.0,0.0,0.0,0.0,0.0,0.0,0.0,0.0,0.0,0.0,0.0,0.0,0.0,0.0,0.0,0.0,0.0,0.0,0.0,0.0,0.0,0.0,0.0,0.0,0.0,0.0,-4.4188,-4.395,-4.4034,-4.385,-4.3199,-4.3132,-4.3032,-4.2624,-4.2557,-4.2634,-4.2634,-4.2634,-4.2634,-4.2634,-4.2634,-4.2634,-4.2634,-4.2634,-4.2634,-4.2634,-4.2634,-4.2634,-4.2634,-4.2634,-4.268,-4.2805,-4.3502,-4.4013,-4.4356,-4.5528,-4.6119,-4.635,-4.6795,-4.6998,-4.6998,-4.6998,-4.6998,-4.6998,-4.6998,-4.732,-4.7747,0.0,0.0,0.0,0.0,0.0,0.0,0.0,0.0,0.0,0.0,0.0,0.0,0.0,0.0,0.0,0.0,0.0,0.0,0.0,0.0,0.0,0.0,0.0,0.0,0.0,0.0,0.0,0.0,0.0,0.0,0.0,0.0,0.0,0.0,0.0,0.0,0.0,0.0,0.0,0.0,0.0,0.0,-4.6002,-4.6068,-4.6125,-4.6137,-4.6119,-4.612,-4.6131,-4.6147,0.0,0.0,0.0,0.0,0.0,0.0,0.0,0.0,0.0,0.0,0.0,0.0,0.0,0.0,0.0,0.0,0.0,0.0,0.0,0.0,0.0,0.0,0.0,0.0,-4.3553,-4.3191,-4.2327,-4.2961,-4.3325,-4.286,-4.2782,-4.2546,-4.2136,-4.2009,-4.2024,-4.2164,-4.218,-4.231,-4.2555,-4.2634,-4.2634,-4.2634,-4.2634,-4.2634,-4.2634,-4.2634,-4.268,-4.2912,-4.2912,-4.308,-4.3486,-4.4013,-4.4373,0.0,-4.5615,-4.6087,-4.6235,-4.6637,-4.6888,0.0,0.0,0.0,0.0,0.0,-4.7407,-4.7992,0.0,0.0,0.0,0.0,0.0,0.0,0.0,0.0,0.0,0.0,0.0,0.0,0.0,0.0,0.0,0.0,0.0,0.0,0.0,0.0,0.0,0.0,0.0,0.0,0.0,0.0,0.0,0.0,0.0,0.0,0.0,0.0,0.0,0.0,0.0,0.0,0.0,0.0,0.0,0.0,0.0,0.0,-4.6033,-4.6081,-4.6143,-4.6204,-4.6139,-4.6143,-4.6207,-4.6198,0.0,0.0,0.0,0.0,0.0,0.0,0.0,0.0,0.0,0.0,0.0,0.0,0.0,0.0,0.0,0.0,0.0,0.0,0.0,0.0,0.0,0.0,0.0,0.0,-4.2483,-4.1979,-4.1041,-4.225,-4.3148,-4.2906,-4.2552,-4.2151,-4.1724,-4.1326,-4.1196,-4.1508,-4.1638,-4.1963,-4.2534,0.0,0.0,0.0,0.0,-4.268,-4.268,-4.2743,-4.2974,-4.3366,-4.3366,-4.3839,-4.4652,-4.4708,-4.4944,-4.5353,-4.5701,-4.5988,-4.6284,-4.6525,-4.6795,-4.7025,-4.7025,-4.6998,-4.698,-4.7025,-4.745,-4.7992,0.0,0.0,0.0,0.0,0.0,0.0,0.0,0.0,0.0,0.0,0.0,0.0,0.0,0.0,0.0,0.0,0.0,0.0,0.0,0.0,0.0,0.0,0.0,0.0,0.0,0.0,0.0,0.0,0.0,0.0,0.0,0.0,0.0,0.0,0.0,0.0,0.0,0.0,0.0,0.0,0.0,0.0,-4.6152,-4.6183,-4.6214,-4.6276,-4.6206,-4.6189,-4.6198,-4.6147,-4.6126,-4.6124,-4.6113,0.0,0.0,0.0,0.0,0.0,0.0,0.0,0.0,0.0,0.0,0.0,0.0,0.0,0.0,0.0,0.0,0.0,0.0,0.0,0.0,-4.2512,-4.231,-4.1979,-4.1041,-4.1177,-4.1254,-4.088,-4.124,-4.1373,-4.0933,-4.1028,-4.1157,-4.1189,-4.1822,-4.2216,-4.2364,-4.289,-4.3125,-4.3125,-4.3125,-4.3125,-4.3125,-4.3562,-4.3798,-4.3839,0.0,0.0,-4.4145,-4.4541,-4.4872,-4.5178,-4.5819,-4.6284,-4.6542,-4.6795,-4.7116,-4.7381,-4.7133,-4.6998,-4.7025,-4.7294,-4.7663,-4.8032,0.0,0.0,0.0,0.0,0.0,0.0,0.0,0.0,0.0,0.0,0.0,0.0,0.0,0.0,0.0,0.0,0.0,0.0,0.0,0.0,0.0,0.0,0.0,0.0,0.0,0.0,0.0,0.0,0.0,0.0,0.0,0.0,0.0,0.0,0.0,0.0,0.0,0.0,0.0,0.0,0.0,0.0,-4.5821,-4.5996,-4.6073,-4.6085,-4.6015,-4.6002,-4.5997,-4.5968,-4.5971,-4.6003,-4.6006,-4.6047,-4.6103,0.0,0.0,0.0,0.0,0.0,0.0,0.0,0.0,0.0,0.0,0.0,0.0,0.0,0.0,-4.4048,0.0,0.0,-4.3479,-4.2714,-4.2422,-4.2015,-4.1283,-4.1041,-4.084,-4.0631,-4.0908,-4.0915,-4.0561,-4.0637,-4.0775,-4.0923,-4.1288,-4.167,-4.2012,-4.2692,-4.3074,-4.3074,-4.3481,-4.3663,-4.3663,-4.3898,-4.4145,-4.4373,-4.4373,-4.4485,-4.4725,-4.5089,-4.5337,-4.5494,-4.597,-4.6332,-4.6637,-4.707,-4.7338,-4.7511,-4.7493,-4.7493,-4.7536,-4.7705,-4.7933,-4.821,0.0,0.0,0.0,0.0,0.0,0.0,0.0,0.0,0.0,0.0,0.0,0.0,0.0,0.0,0.0,0.0,0.0,0.0,0.0,0.0,0.0,0.0,0.0,0.0,0.0,0.0,0.0,0.0,0.0,0.0,0.0,0.0,0.0,0.0,0.0,0.0,0.0,0.0,0.0,0.0,0.0,0.0,-4.5264,-4.5576,-4.5793,-4.5894,-4.5816,-4.5786,-4.5774,-4.5757,-4.5786,-4.5857,-4.5843,-4.5899,-4.6027,-4.6079,-4.6081,0.0,0.0,0.0,0.0,0.0,0.0,0.0,0.0,0.0,-4.5074,-4.4572,-4.4402,-4.4221,-4.3929,-4.3734,-4.3495,-4.3032,-4.2616,-4.2115,-4.1561,-4.1192,-4.1012,-4.0935,-4.0888,-4.0776,-4.0453,-4.0355,-4.0375,-4.0639,-4.0755,-4.1107,-4.1691,-4.2395,-4.2864,-4.3054,-4.3625,-4.3994,-4.4128,-4.4202,-4.4485,-4.4835,-4.4835,-4.5052,-4.5476,-4.5701,-4.587,-4.607,-4.6394,-4.6649,-4.6898,-4.7407,-4.7621,-4.7705,-4.7974,-4.8111,-4.819,-4.8093,-4.821,-4.8421,0.0,0.0,0.0,0.0,0.0,0.0,0.0,0.0,0.0,0.0,0.0,0.0,0.0,0.0,0.0,0.0,0.0,0.0,0.0,0.0,0.0,0.0,0.0,0.0,0.0,0.0,0.0,0.0,0.0,0.0,0.0,0.0,0.0,0.0,0.0,0.0,0.0,0.0,0.0,0.0,0.0,0.0,-4.4721,-4.4862,-4.5327,-4.5886,-4.577,-4.571,-4.5694,-4.5557,-4.562,-4.5704,-4.5576,-4.5647,-4.5784,-4.5952,0.0,-4.6033,-4.6153,-4.6089,-4.6003,-4.5966,-4.5848,-4.568,0.0,0.0,-4.5118,-4.4825,-4.4546,-4.4279,-4.3883,-4.3804,-4.3584,-4.2995,-4.2882,-4.2498,-4.1604,-4.1445,-4.1283,-4.0918,-4.0888,-4.0871,-4.084,-4.0502,-4.0322,-4.0357,-4.0968,-4.1376,-4.146,-4.2121,-4.2833,-4.3478,-4.3579,-4.3936,-4.4652,-4.5015,-4.5247,-4.53,-4.53,-4.5441,-4.5735,-4.5786,-4.6217,-4.6972,-4.7542,-4.7811,-4.7852,-4.7911,-4.8093,-4.8307,-4.8345,-4.855,-4.875,-4.8476,-4.8383,-4.8458,0.0,0.0,0.0,0.0,0.0,0.0,0.0,0.0,0.0,0.0,0.0,0.0,0.0,0.0,0.0,0.0,0.0,0.0,0.0,0.0,0.0,0.0,0.0,0.0,0.0,0.0,0.0,0.0,0.0,0.0,0.0,0.0,0.0,0.0,0.0,0.0,0.0,0.0,0.0,0.0,0.0,0.0,-4.4207,-4.4221,-4.452,-4.4951,-4.524,-4.5314,0.0,0.0,-4.5244,-4.5347,-4.5379,-4.5481,-4.5607,-4.5835,-4.594,0.0,-4.615,-4.6163,-4.6096,0.0,-4.5873,-4.5735,-4.5715,-4.5565,-4.5342,-4.5074,-4.4872,-4.4599,-4.4121,-4.3974,-4.3749,0.0,-4.3032,-4.275,-4.2378,-4.2074,-4.1735,-4.1283,-4.1237,-4.1163,-4.0918,-4.0745,-4.0631,-4.0631,-4.0923,-4.1094,-4.1094,-4.1814,-4.2363,-4.2671,-4.3337,-4.4108,-4.4853,-4.532,-4.5809,-4.6249,-4.631,-4.6389,-4.6531,-4.6717,-4.7115,-4.7645,-4.7911,-4.7992,-4.8032,-4.8172,-4.8307,-4.8421,-4.8623,-4.8785,-4.889,-4.875,-4.8695,-4.8695,0.0,0.0,0.0,0.0,0.0,0.0,0.0,0.0,0.0,0.0,0.0,0.0,0.0,0.0,0.0,0.0,0.0,0.0,0.0,0.0,0.0,0.0,0.0,0.0,0.0,0.0,0.0,0.0,0.0,0.0,0.0,0.0,0.0,0.0,0.0,0.0,0.0,0.0,0.0,0.0,0.0,0.0,-4.3552,-4.3542,-4.368,-4.3905,-4.4621,-4.4871,0.0,0.0,-4.4896,-4.5057,-4.51,-4.5268,-4.5453,-4.5611,-4.5815,-4.5995,-4.6144,-4.6151,0.0,-4.6073,-4.5947,-4.5838,-4.5791,-4.5715,-4.5582,-4.5323,-4.512,-4.4849,-4.4289,-4.4109,-4.3892,-4.3548,-4.3268,-4.3032,-4.2938,-4.2595,-4.2198,-4.1735,-4.1692,-4.1578,-4.13,-4.1059,-4.0965,-4.1041,-4.0965,-4.1012,-4.1255,-4.1638,-4.202,-4.237,-4.3219,-4.4025,-4.4847,-4.5427,-4.5998,-4.6587,-4.6865,-4.7044,-4.7132,-4.7596,-4.7937,-4.8111,-4.821,-4.8267,-4.8249,-4.8476,-4.855,-4.855,-4.882,-4.8909,-4.8909,-4.8909,-4.8909,-4.8909,0.0,0.0,0.0,0.0,0.0,0.0,0.0,0.0,0.0,0.0,0.0,0.0,0.0,0.0,0.0,0.0,0.0,0.0,0.0,0.0,0.0,0.0,0.0,0.0,0.0,0.0,0.0,0.0,0.0,0.0,0.0,0.0,0.0,0.0,0.0,0.0,0.0,0.0,0.0,0.0,0.0,0.0,-4.2655,-4.2839,-4.288,-4.2976,-4.4048,0.0,0.0,0.0,-4.4693,-4.488,-4.4693,-4.4889,0.0,-4.5298,-4.5592,-4.5935,-4.6072,-4.6058,-4.6033,-4.6163,-4.6092,-4.5986,-4.5999,-4.5887,-4.5718,-4.5447,-4.5246,-4.4919,-4.4318,-4.4151,-4.3986,-4.3548,-4.3497,-4.3339,-4.2957,-4.2882,-4.2711,-4.2239,-4.2157,-4.2157,0.0,-4.1373,-4.1041,-4.1445,-4.1117,-4.1255,-4.2133,-4.1753,-4.2062,-4.3237,-4.3291,-4.3683,-4.4502,-4.5294,-4.5731,-4.5766,-4.6615,-4.7132,-4.7428,-4.8078,-4.8383,-4.8421,-4.875,-4.8874,-4.8855,-4.8874,-4.889,-4.8909,-4.8909,-4.8909,-4.8909,-4.8909,-4.8909,-4.8909,0.0,0.0,0.0,0.0,0.0,0.0,0.0,0.0,0.0,0.0,0.0,0.0,0.0,0.0,0.0,0.0,0.0,0.0,0.0,0.0,0.0,0.0,0.0,0.0,0.0,0.0,0.0,0.0,0.0,0.0,0.0,0.0,0.0,0.0,0.0,0.0,0.0,0.0,0.0,0.0,0.0,0.0,-4.2294,-4.2436,-4.2478,-4.253,0.0,0.0,0.0,0.0,0.0,0.0,-4.4112,-4.4285,-4.4518,-4.5115,-4.5515,-4.5808,-4.5924,-4.6029,-4.6078,-4.6071,-4.607,-4.605,-4.601,-4.593,-4.5828,-4.5645,-4.5503,-4.5266,-4.4757,-4.4465,-4.4192,-4.3892,-4.3649,-4.3444,-4.3304,-4.3304,-4.3142,-4.2711,-4.2673,0.0,0.0,0.0,0.0,-4.1948,-4.1839,-4.1881,-4.2198,-4.2032,-4.2157,-4.2549,-4.2893,-4.3408,-4.4219,-4.5276,-4.6106,-4.6652,-4.7597,-4.8176,-4.8402,-4.8623,-4.875,-4.875,-4.8855,-4.8909,-4.8909,-4.8909,-4.8909,-4.8909,-4.8909,-4.8909,-4.8909,-4.8909,-4.8909,-4.8909,0.0,0.0,0.0,0.0,0.0,0.0,0.0,0.0,0.0,0.0,0.0,0.0,0.0,0.0,0.0,0.0,0.0,0.0,0.0,0.0,0.0,0.0,0.0,0.0,0.0,0.0,0.0,0.0,0.0,0.0,0.0,0.0,0.0,0.0,0.0,0.0,0.0,0.0,0.0,0.0,0.0,0.0,-4.1866,-4.1955,-4.2023,0.0,0.0,0.0,0.0,0.0,0.0,-4.3286,-4.364,-4.3856,-4.4127,-4.4878,-4.5246,-4.5473,-4.574,-4.5906,-4.5998,-4.6011,-4.6041,-4.6093,-4.6075,-4.602,-4.5938,-4.5863,-4.5708,-4.5486,-4.5039,-4.4732,-4.4383,-4.3968,-4.3763,-4.3682,-4.3597,-4.3548,-4.3444,-4.3303,-4.3178,-4.2995,0.0,0.0,0.0,-4.2458,-4.2279,-4.2338,-4.2655,-4.2537,-4.2537,-4.2655,-4.2939,-4.336,-4.3888,-4.4985,-4.6084,-4.7279,-4.8181,-4.8714,-4.8909,-4.8909,-4.8909,-4.8909,-4.8909,-4.8909,-4.8909,-4.8909,-4.8909,-4.8909,-4.8909,-4.8909,-4.8909,-4.8909,-4.8909,-4.8909,0.0,0.0,0.0,0.0,0.0,0.0,0.0,0.0,0.0,0.0,0.0,0.0,0.0,0.0,0.0,0.0,0.0,0.0,0.0,0.0,0.0,0.0,0.0,0.0,0.0,0.0,0.0,0.0,0.0,0.0,0.0,0.0,0.0,0.0,0.0,0.0,0.0,0.0,0.0,0.0,0.0,0.0,-4.138,-4.138,0.0,0.0,0.0,0.0,0.0,0.0,0.0,-4.3377,-4.328,-4.3579,-4.4026,-4.4615,-4.484,-4.5036,-4.5549,-4.5738,-4.5831,-4.5955,-4.605,-4.612,-4.6175,-4.6141,-4.6105,-4.6096,-4.5832,-4.5517,0.0,0.0,-4.458,-4.3886,-4.3892,-4.3986,-4.3855,-4.3646,-4.3682,0.0,0.0,0.0,0.0,0.0,0.0,-4.3032,0.0,-4.2637,-4.3444,-4.3142,-4.3123,-4.3497,-4.3497,-4.3497,-4.3497,-4.4373,-4.5727,-4.7527,-4.8234,-4.864,-4.8834,-4.889,-4.8909,-4.8909,-4.8909,-4.8909,-4.8909,-4.8909,-4.8909,-4.8909,-4.8909,-4.8909,-4.8909,-4.8909,-4.8909,-4.8909,0.0,0.0,0.0,0.0,0.0,0.0,0.0,0.0,0.0,0.0,0.0,0.0,0.0,0.0,0.0,0.0,0.0,0.0,0.0,0.0,0.0,0.0,0.0,0.0,0.0,0.0,0.0,0.0,0.0,0.0,0.0,0.0,0.0,0.0,0.0,0.0,0.0,0.0,0.0,0.0,0.0,0.0,-4.1255,0.0,0.0,0.0,0.0,0.0,0.0,0.0,0.0,0.0,-4.303,-4.3541,-4.4121,-4.4457,-4.4772,-4.5055,-4.5395,-4.5624,-4.5811,-4.5844,-4.5968,-4.6122,-4.6183,-4.619,-4.6158,-4.6045,-4.5959,-4.5769,0.0,0.0,0.0,-4.4557,-4.4393,0.0,-4.4242,-4.4184,0.0,-4.4289,0.0,-4.4173,-4.4173,-4.4173,0.0,0.0,-4.3508,-4.325,-4.3497,-4.341,-4.341,-4.3497,-4.3497,-4.3497,-4.3497,-4.4373,-4.5432,-4.6638,-4.7437,-4.7914,-4.8036,-4.863,-4.8909,-4.8909,-4.8909,-4.8909,-4.8909,-4.8909,-4.8909,-4.8909,-4.8909,-4.8909,-4.8909,-4.8909,-4.8909,-4.8909,0.0,0.0,0.0,0.0,0.0,0.0,0.0,0.0,0.0,0.0,0.0,0.0,0.0,0.0,0.0,0.0,0.0,0.0,0.0,0.0,0.0,0.0,0.0,0.0,0.0,0.0,0.0,0.0,0.0,0.0,0.0,0.0,0.0,0.0,0.0,0.0,0.0,0.0,0.0,0.0,0.0,0.0,0.0,0.0,0.0,0.0,0.0,0.0,0.0,0.0,0.0,-4.2719,-4.3047,-4.3447,-4.3923,-4.4364,0.0,-4.5036,-4.532,-4.5547,-4.5736,-4.5745,-4.5891,-4.6026,-4.6105,-4.6153,-4.6171,-4.6099,-4.6033,0.0,-4.563,-4.5378,0.0,0.0,0.0,0.0,-4.4493,-4.4438,-4.4438,0.0,-4.4465,0.0,-4.4383,-4.4383,-4.4383,0.0,-4.4084,-4.3886,-4.3886,-4.3886,-4.3841,-4.3716,-4.3716,-4.3682,-4.3634,-4.4426,-4.5155,-4.5871,-4.6672,-4.7247,-4.772,-4.8166,-4.8574,-4.8909,0.0,-4.8909,-4.8909,-4.8909,-4.8909,-4.8909,-4.8909,-4.8993,-4.9127,-4.9127,-4.9127,-4.916,0.0,0.0,0.0,0.0,0.0,0.0,0.0,0.0,0.0,0.0,0.0,0.0,0.0,0.0,0.0,0.0,0.0,0.0,0.0,0.0,0.0,0.0,0.0,0.0,0.0,0.0,0.0,0.0,0.0,0.0,0.0,0.0,0.0,0.0,0.0,0.0,0.0,0.0,0.0,0.0,0.0,0.0,0.0,0.0,0.0,0.0,0.0,0.0,0.0,0.0,-4.3086,-4.2792,-4.3266,-4.3469,-4.3724,-4.4358,-4.4704,-4.4997,-4.532,-4.5509,-4.562,-4.5684,-4.5796,-4.5919,-4.5987,-4.6104,-4.6191,-4.6207,0.0,-4.5977,-4.5835,-4.5619,-4.5323,-4.4853,0.0,-4.4808,-4.472,-4.4572,-4.4591,-4.4843,-4.465,-4.4511,-4.4538,-4.4538,-4.4538,-4.4538,-4.4538,-4.4465,-4.4383,-4.4383,-4.4289,-4.4048,-4.4048,-4.4005,-4.3897,-4.4465,-4.4934,-4.5183,-4.5848,-4.6628,-4.7386,-4.7497,-4.7924,-4.8593,-4.8686,0.0,-4.876,-4.8872,-4.8909,-4.8909,-4.8909,-4.9061,-4.9352,-4.9384,-4.9415,-4.9427,0.0,0.0,0.0,0.0,0.0,0.0,0.0,0.0,0.0,0.0,0.0,0.0,0.0,0.0,0.0,0.0,0.0,0.0,0.0,0.0,0.0,0.0,0.0,0.0,0.0,0.0,0.0,0.0,0.0,0.0,0.0,0.0,0.0,0.0,0.0,0.0,0.0,0.0,0.0,0.0,0.0,0.0,0.0,0.0,0.0,0.0,0.0,0.0,0.0,0.0,-4.3336,-4.332,-4.3666,-4.391,-4.4092,-4.4605,-4.4872,-4.5074,-4.5395,-4.5582,-4.569,-4.57,-4.5786,-4.5929,-4.5978,-4.6052,0.0,0.0,-4.6178,-4.6094,-4.5852,-4.5815,-4.5669,-4.5184,-4.518,-4.5178,-4.5106,-4.5038,-4.5038,0.0,-4.5129,-4.5065,-4.5151,-4.5151,0.0,0.0,0.0,-4.4929,-4.443,-4.4383,-4.4374,-4.4346,-4.4318,-4.4346,-4.4374,-4.4561,-4.458,-4.4475,-4.5338,-4.5723,-4.5732,-4.6401,-4.6773,-4.694,-4.7627,0.0,-4.7961,-4.863,-4.8909,-4.8909,-4.8909,-4.8943,-4.9027,-4.9289,-4.9415,-4.9427,0.0,0.0,0.0,0.0,0.0,0.0,0.0,0.0,0.0,0.0,0.0,0.0,0.0,0.0,0.0,0.0,0.0,0.0,0.0,0.0,0.0,0.0,0.0,0.0,0.0,0.0,0.0,0.0,0.0,0.0,0.0,0.0,0.0,0.0,0.0,0.0,0.0,0.0,0.0,0.0,0.0,0.0,0.0,0.0,0.0,0.0,0.0,0.0,0.0,0.0,-4.4065,-4.4073,-4.4091,-4.4242,-4.4507,-4.4887,-4.5093,-4.5263,-4.5433,-4.5601,-4.569,-4.57,-4.5791,-4.5899,-4.5936,0.0,0.0,-4.6143,-4.6148,-4.6094,-4.593,-4.584,0.0,-4.5455,-4.5323,-4.5262,-4.5239,-4.5173,-4.5148,-4.5297,-4.5213,-4.5192,0.0,-4.5275,0.0,0.0,0.0,-4.5173,-4.4887,-4.4695,-4.4599,-4.4599,-4.4465,-4.4438,-4.4493,-4.4565,-4.4565,-4.4511,-4.4968,-4.5348,-4.5679,-4.6054,-4.6486,-4.6926,-4.7168,0.0,-4.7507,-4.7766,-4.8114,-4.8488,-4.864,-4.889,-4.9193,-4.9499,-4.9598,-4.9655,0.0,0.0,0.0,0.0,0.0,0.0,0.0,0.0,0.0,0.0,0.0,0.0,0.0,0.0,0.0,0.0,0.0,0.0,0.0,0.0,0.0,0.0,0.0,0.0,0.0,0.0,0.0,-4.0594,0.0,0.0,0.0,0.0,0.0,0.0,0.0,0.0,0.0,0.0,0.0,0.0,0.0,0.0,0.0,0.0,0.0,0.0,0.0,0.0,0.0,0.0,-4.4748,-4.478,-4.4546,-4.464,-4.4836,-4.5086,-4.5285,-4.5432,-4.549,-4.5584,-4.5657,-4.5684,-4.5776,-4.5847,-4.5893,-4.6046,-4.6156,-4.6104,-4.6113,-4.6099,-4.6025,-4.5867,-4.5733,0.0,-4.5419,-4.5283,-4.5263,-4.5175,-4.5148,0.0,-4.5148,0.0,-4.5275,-4.5213,0.0,0.0,0.0,0.0,-4.5297,-4.5045,-4.491,-4.491,-4.4695,-4.4617,-4.4669,-4.4745,-4.4795,-4.4789,-4.4849,-4.519,-4.5742,-4.5742,-4.6121,-4.6758,-4.6713,0.0,0.0,-4.6996,-4.7381,-4.7945,-4.818,-4.8541,-4.901,-4.9454,-4.9618,-4.9689,0.0,0.0,0.0,0.0,0.0,0.0,0.0,0.0,0.0,0.0,0.0,0.0,0.0,0.0,0.0,0.0,0.0,0.0,0.0,0.0,0.0,0.0,0.0,0.0,0.0,0.0,0.0,-4.1283,-4.1283,0.0,0.0,0.0,0.0,0.0,0.0,-3.9698,0.0,0.0,0.0,0.0,0.0,0.0,0.0,0.0,0.0,0.0,0.0,0.0,0.0,0.0,0.0,-4.5156,-4.5137,-4.512,-4.5144,-4.5048,0.0,0.0,-4.5566,-4.5513,-4.5475,-4.5648,-4.5665,-4.5677,-4.5861,-4.6016,-4.6111,-4.6094,-4.6145,-4.6143,-4.602,-4.5988,0.0,0.0,0.0,-4.5473,-4.5243,-4.5197,-4.517,-4.5125,0.0,0.0,-4.5192,-4.5192,0.0,0.0,0.0,0.0,-4.5297,-4.5256,-4.5256,-4.5256,-4.5235,-4.5213,-4.5235,-4.5301,-4.5239,-4.5061,-4.5135,-4.5068,-4.4914,-4.4914,-4.4952,-4.506,-4.5773,0.0,0.0,-4.694,-4.7318,-4.7375,-4.7401,-4.7458,-4.761,-4.8672,-4.9071,-4.9232,0.0,0.0,0.0,0.0,0.0,0.0,0.0,0.0,0.0,0.0,0.0,0.0,0.0,0.0,0.0,0.0,0.0,0.0,0.0,0.0,0.0,0.0,0.0,0.0,0.0,0.0,0.0,-4.2157,-4.2157,0.0,0.0,0.0,0.0,0.0,0.0,-4.0851,0.0,0.0,0.0,0.0,0.0,0.0,0.0,0.0,0.0,0.0,0.0,0.0,0.0,0.0,0.0,0.0,-4.517,-4.5285,0.0,0.0,-4.5398,-4.5526,-4.5616,-4.5635,-4.5599,-4.5715,-4.5771,-4.5808,-4.5873,-4.6017,-4.615,-4.6119,-4.6111,-4.6108,-4.6013,-4.5969,-4.5886,0.0,0.0,0.0,-4.551,-4.54,-4.53,-4.5239,-4.5173,0.0,0.0,0.0,0.0,0.0,0.0,0.0,-4.5297,-4.5297,-4.5297,-4.5297,-4.5297,-4.5297,-4.5297,-4.538,-4.5361,-4.5281,-4.5381,-4.5381,-4.5263,-4.5263,-4.5263,-4.5282,-4.544,0.0,0.0,-4.5951,-4.6302,-4.6782,-4.6975,-4.7167,-4.7378,-4.7971,-4.8567,-4.907,0.0,0.0,0.0,0.0,0.0,0.0,0.0,0.0,0.0,0.0,0.0,0.0,0.0,0.0,0.0,0.0,0.0,0.0,0.0,0.0,0.0,0.0,0.0,0.0,0.0,0.0,0.0,0.0,0.0,-4.2828,0.0,0.0,-4.1985,-4.2378,0.0,0.0,0.0,0.0,0.0,0.0,0.0,0.0,0.0,0.0,0.0,0.0,0.0,0.0,0.0,0.0,0.0,0.0,0.0,0.0,0.0,0.0,-4.547,-4.5582,-4.5665,-4.5677,-4.5673,-4.5776,-4.58,-4.5835,-4.5929,-4.6074,-4.6164,-4.6138,-4.6113,-4.6099,-4.6047,-4.5969,-4.5893,0.0,0.0,-4.5645,-4.5616,-4.5494,-4.5361,0.0,0.0,-4.5173,0.0,0.0,0.0,0.0,0.0,0.0,-4.5297,-4.5297,-4.5297,-4.5297,-4.5297,-4.5317,-4.5317,-4.538,-4.5419,-4.5438,-4.555,-4.5586,-4.5586,-4.5586,-4.5586,-4.5586,-4.54,0.0,0.0,-4.54,-4.5647,-4.6203,-4.6416,-4.6626,-4.6858,-4.7308,-4.7853,-4.8449,0.0,0.0,0.0,0.0,0.0,0.0,0.0,0.0,0.0,0.0,0.0,0.0,0.0,0.0,0.0,0.0,0.0,0.0,0.0,0.0,0.0,0.0,0.0,0.0,0.0,0.0,0.0,0.0,0.0,0.0,0.0,-4.3087,-4.3087,-4.3087,0.0,0.0,0.0,0.0,0.0,0.0,0.0,0.0,0.0,0.0,0.0,0.0,0.0,0.0,0.0,0.0,0.0,0.0,0.0,0.0,0.0,0.0,-4.5432,-4.5697,-4.5703,-4.56,-4.5553,-4.5747,-4.5692,-4.5692,-4.6025,-4.6111,-4.6128,-4.6187,-4.615,-4.6092,-4.6108,-4.5987,-4.5893,-4.5814,-4.58,0.0,-4.5438,-4.54,-4.5281,0.0,0.0,-4.4919,0.0,0.0,0.0,0.0,0.0,0.0,-4.5297,-4.5297,-4.5297,-4.5297,-4.5297,-4.5338,-4.5398,-4.54,-4.5438,-4.5495,-4.5568,-4.5586,-4.5586,-4.5586,-4.5586,0.0,0.0,0.0,0.0,-4.5586,-4.5605,-4.5605,-4.5605,-4.5624,-4.572,-4.66,-4.6908,-4.7176,0.0,0.0,0.0,0.0,0.0,0.0,0.0,0.0,0.0,0.0,0.0,0.0,0.0,0.0,0.0,0.0,0.0,0.0,0.0,0.0,0.0,0.0,0.0,0.0,0.0,0.0,0.0,0.0,0.0,0.0,0.0,0.0,0.0,-4.3775,-4.3775,0.0,0.0,0.0,0.0,0.0,0.0,0.0,0.0,0.0,0.0,0.0,0.0,0.0,0.0,0.0,0.0,0.0,0.0,0.0,0.0,0.0,0.0,0.0,-4.5834,-4.581,-4.5786,-4.586,-4.5912,-4.5972,-4.6085,-4.6138,-4.617,-4.6202,-4.6158,-4.6092,-4.6044,-4.5947,-4.5848,-4.5692,-4.5661,0.0,0.0,0.0,0.0,-4.5148,-4.5094,-4.5142,0.0,0.0,0.0,0.0,0.0,0.0,-4.5297,-4.5297,-4.5297,-4.5297,-4.5297,-4.5317,-4.5338,-4.538,-4.5419,-4.5438,-4.555,-4.5586,-4.5586,-4.5586,-4.5586,0.0,0.0,0.0,0.0,-4.5586,-4.5586,-4.5586,-4.5586,-4.5586,-4.5624,-4.5911,-4.6425,-4.7053,0.0,0.0,0.0,0.0,0.0,0.0,0.0,0.0,0.0,0.0,0.0,0.0,0.0,0.0,0.0,0.0,0.0,0.0,0.0,0.0,0.0,0.0,0.0,0.0,0.0,0.0,0.0,0.0,0.0,0.0,0.0,0.0,0.0,0.0,0.0,0.0,0.0,0.0,0.0,0.0,0.0,0.0,-4.5517,0.0,0.0,0.0,0.0,0.0,0.0,0.0,0.0,0.0,0.0,0.0,0.0,0.0,-4.6052,-4.6001,0.0,-4.5938,-4.5938,-4.597,-4.6046,0.0,-4.6137,-4.616,-4.6191,-4.6169,-4.6099,-4.6033,-4.5908,-4.5822,-4.5737,-4.5563,-4.5528,-4.5475,0.0,0.0,0.0,-4.5125,0.0,0.0,0.0,0.0,0.0,0.0,0.0,0.0,-4.5297,-4.5297,-4.5297,-4.5297,-4.5297,-4.5317,-4.5338,-4.538,-4.5419,-4.5438,-4.555,-4.5586,-4.5586,-4.5586,-4.5586,0.0,0.0,0.0,0.0,-4.5586,-4.5586,-4.5586,-4.5586,-4.5586,-4.5603,-4.564,-4.6018,-4.6565,0.0,0.0,0.0,0.0,0.0,0.0,0.0,0.0,0.0,0.0,0.0,0.0,0.0,0.0,0.0,0.0,0.0,0.0,0.0,0.0,0.0,0.0,0.0,0.0,0.0,0.0,0.0,0.0,-4.5524,-4.5453,-4.5342,0.0,0.0,0.0,0.0,0.0,0.0,0.0,0.0,0.0,0.0,0.0,0.0,0.0,0.0,0.0,0.0,0.0,0.0,0.0,0.0,0.0,0.0,0.0,0.0,0.0,0.0,0.0,0.0,-4.5998,-4.6027,-4.6074,-4.6099,-4.6114,0.0,0.0,0.0,-4.6101,-4.6025,-4.5917,-4.5731,-4.5626,-4.5545,-4.5419,-4.5381,-4.5341,0.0,-4.517,0.0,0.0,0.0,0.0,0.0,0.0,0.0,0.0,0.0,0.0,-4.5297,-4.5297,-4.5297,-4.5297,-4.5297,-4.5338,-4.5398,-4.54,-4.5438,-4.5495,-4.5568,-4.5586,-4.5586,-4.5586,-4.5586,0.0,0.0,0.0,0.0,-4.5586,-4.5586,-4.5586,-4.5586,-4.5603,-4.5603,-4.5693,-4.5687,-4.5831,0.0,0.0,0.0,0.0,0.0,0.0,0.0,0.0,0.0,0.0,0.0,0.0,0.0,0.0,0.0,0.0,0.0,0.0,0.0,0.0,0.0,0.0,0.0,0.0,0.0,0.0,0.0,-4.5744,-4.5744,-4.5711,-4.5678,-4.5678,0.0,0.0,0.0,0.0,0.0,0.0,0.0,0.0,0.0,0.0,0.0,0.0,0.0,0.0,-4.6026,-4.6002,0.0,0.0,0.0,0.0,0.0,0.0,0.0,0.0,-4.5898,-4.5884,-4.5789,0.0,-4.6075,-4.6097,-4.6133,-4.618,0.0,0.0,0.0,0.0,0.0,-4.5796,-4.5584,-4.549,-4.54,-4.5258,-4.5256,-4.5173,-4.4991,0.0,0.0,-4.4914,0.0,0.0,0.0,0.0,0.0,0.0,0.0,-4.5297,-4.5297,-4.5297,-4.5297,-4.5297,-4.5297,-4.5317,-4.5317,-4.538,-4.5419,-4.5419,-4.5531,-4.5586,-4.5586,-4.5586,-4.5586,0.0,0.0,0.0,-4.5586,-4.5586,-4.5586,-4.5586,-4.5586,-4.564,-4.5693,-4.5693,-4.5722,-4.5819,0.0,0.0,0.0,0.0,0.0,0.0,0.0,0.0,0.0,0.0,0.0,0.0,0.0,0.0,0.0,0.0,0.0,0.0,0.0,0.0,0.0,0.0,0.0,0.0,0.0,0.0,0.0,0.0,0.0,-4.6376,0.0,0.0,0.0,0.0,0.0,0.0,0.0,0.0,0.0,0.0,-4.6027,0.0,0.0,0.0,0.0,0.0,-4.5938,-4.593,0.0,-4.591,-4.5822,-4.5716,0.0,0.0,0.0,0.0,-4.5705,-4.5705,-4.5667,-4.5774,-4.5923,-4.5923,-4.5928,-4.5922,-4.5929,0.0,0.0,0.0,0.0,-4.5594,-4.54,-4.5341,-4.5258,-4.5084,-4.5061,0.0,0.0,0.0,0.0,0.0,0.0,0.0,0.0,0.0,0.0,0.0,0.0,-4.5297,-4.5297,-4.5297,-4.5297,-4.5297,-4.5297,-4.5317,-4.5338,-4.538,-4.5419,-4.5438,-4.555,-4.5586,-4.5586,-4.5586,-4.5586,0.0,0.0,0.0,-4.5586,-4.5586,-4.5586,-4.5586,-4.5586,-4.5622,-4.5657,-4.5693,-4.5722,-4.5765,0.0,0.0,0.0,0.0,0.0,0.0,0.0,0.0,0.0,0.0,0.0,0.0,0.0,0.0,0.0,0.0,0.0,0.0,0.0,0.0,0.0,0.0,0.0,0.0,0.0,0.0,0.0,0.0,0.0,0.0,0.0,0.0,0.0,0.0,0.0,0.0,0.0,0.0,0.0,0.0,-4.6021,0.0,0.0,0.0,0.0,0.0,0.0,0.0,0.0,-4.575,-4.5549,-4.5346,-4.5452,0.0,0.0,0.0,0.0,0.0,-4.5369,-4.5449,-4.5551,-4.5667,-4.5647,-4.5609,-4.559,0.0,0.0,0.0,0.0,0.0,0.0,-4.5109,0.0,0.0,0.0,0.0,-4.4895,-4.4895,-4.4895,0.0,0.0,0.0,0.0,0.0,0.0,0.0,0.0,-4.5297,-4.5297,-4.5297,-4.5297,-4.5297,-4.5297,-4.5338,-4.5399,-4.54,-4.5419,-4.5495,-4.5568,-4.5586,-4.5586,-4.5586,-4.5586,-4.5586,0.0,0.0,-4.5586,-4.5586,-4.5586,-4.5586,-4.5586,-4.5603,-4.562,-4.5673,-4.5703,-4.5712,0.0,0.0,0.0,0.0,0.0,0.0,0.0,0.0,0.0,0.0,0.0,0.0,0.0,0.0,0.0,0.0,0.0,0.0,0.0,0.0,0.0,0.0,0.0,0.0,0.0,0.0,0.0,0.0,0.0,0.0,-4.7224,-4.7222,-4.685,0.0,0.0,0.0,-4.6035,-4.6021,-4.5982,-4.5935,-4.5927,0.0,0.0,0.0,0.0,0.0,0.0,0.0,0.0,-4.5101,-4.4794,-4.4483,-4.4516,0.0,0.0,0.0,0.0,0.0,-4.4332,-4.4543,-4.4911,-4.5477,-4.5611,-4.5592,-4.56,0.0,0.0,0.0,0.0,0.0,0.0,-4.4711,-4.4616,0.0,0.0,-4.4895,0.0,0.0,0.0,0.0,0.0,0.0,0.0,0.0,0.0,0.0,0.0,-4.5297,-4.5297,-4.5297,-4.5297,-4.5297,-4.5297,-4.5339,-4.54,-4.54,-4.54,-4.5419,-4.5531,-4.5586,-4.5586,-4.5586,-4.5586,-4.5586,0.0,-4.5586,-4.5586,-4.5586,-4.5586,-4.5586,-4.5586,-4.5618,-4.5684,-4.57,-4.5746,-4.5786,0.0,0.0,0.0,0.0,0.0,0.0,0.0,0.0,0.0,0.0,0.0,0.0,0.0,0.0,0.0,0.0,0.0,0.0,0.0,0.0,0.0,0.0,0.0,0.0,0.0,0.0,0.0,0.0,0.0,-4.8899,-4.8041,-4.7571,-4.6883,-4.604,0.0,0.0,-4.5933,-4.5902,-4.5866,-4.5835,0.0,0.0,0.0,0.0,0.0,0.0,0.0,0.0,0.0,0.0,-4.4452,-4.4279,-4.4165,0.0,0.0,0.0,0.0,0.0,-4.3979,-4.409,-4.4289,-4.4611,-4.4966,-4.5171,-4.4825,0.0,0.0,0.0,0.0,0.0,0.0,0.0,-4.4184,-4.4327,0.0,0.0,0.0,0.0,0.0,0.0,0.0,0.0,0.0,0.0,0.0,0.0,0.0,0.0,-4.5297,-4.5297,-4.5297,-4.5297,-4.5297,-4.5319,-4.54,-4.54,-4.5438,-4.5513,-4.5568,-4.5586,-4.5586,-4.5586,-4.5586,-4.5586,0.0,-4.5586,-4.5586,-4.5586,-4.5586,-4.5586,-4.5586,-4.5637,-4.5703,-4.575,-4.5776,-4.58,0.0,0.0,0.0,0.0,0.0,0.0,0.0,0.0,0.0,0.0,0.0,0.0,0.0,0.0,0.0,0.0,0.0,0.0,0.0,0.0,0.0,0.0,0.0,0.0,0.0,0.0,0.0,-5.0127,-5.016,-4.9709,-4.8805,-4.7767,-4.6873,0.0,0.0,0.0,-4.575,-4.5626,-4.5571,-4.5571,0.0,0.0,0.0,0.0,0.0,0.0,0.0,0.0,0.0,0.0,0.0,0.0,0.0,0.0,0.0,-4.352,-4.3421,-4.3328,-4.3304,-4.3336,-4.3375,-4.3301,-4.4026,-4.4605,-4.4096,0.0,0.0,0.0,0.0,0.0,0.0,-4.3914,0.0,-4.3791,0.0,0.0,0.0,0.0,0.0,0.0,0.0,0.0,0.0,0.0,0.0,0.0,0.0,0.0,-4.5297,-4.5297,-4.5297,-4.5297,-4.5297,-4.5338,-4.5399,-4.54,-4.5457,-4.5568,-4.5586,-4.5586,-4.5586,-4.5586,-4.5586,-4.5586,-4.5586,-4.5586,-4.5586,-4.5586,-4.5622,-4.5622,-4.5622,-4.5657,-4.5722,-4.5781,-4.5805,-4.58,0.0,0.0,0.0,0.0,0.0,0.0,0.0,0.0,0.0,0.0,0.0,0.0,0.0,0.0,0.0,0.0,0.0,0.0,0.0,0.0,0.0,0.0,0.0,0.0,0.0,-5.1183,-5.1081,-5.0832,-5.0877,-5.0436,-4.9492,-4.7937,-4.7149,-4.6976,0.0,0.0,-4.5322,-4.5074,-4.4938,-4.4868,-4.48,0.0,0.0,0.0,0.0,0.0,0.0,0.0,0.0,0.0,0.0,0.0,0.0,0.0,-4.2315,-4.2311,-4.2015,-4.1633,-4.1525,-4.1698,-4.1903,-4.1551,-4.2741,0.0,-4.3917,-4.3906,0.0,-4.3907,0.0,0.0,0.0,-4.3907,-4.3798,-4.3505,0.0,0.0,0.0,0.0,0.0,0.0,0.0,0.0,0.0,0.0,0.0,0.0,0.0,0.0,-4.5297,-4.5297,-4.5297,-4.5297,-4.5297,-4.5339,-4.54,-4.54,-4.5438,-4.5513,-4.5568,-4.5586,-4.5586,-4.5586,-4.5586,-4.5586,-4.5586,-4.5586,-4.5586,-4.5586,-4.564,-4.5693,-4.5693,-4.5722,-4.5781,-4.5805,-4.58,-4.58,0.0,0.0,0.0,0.0,0.0,0.0,0.0,0.0,0.0,0.0,0.0,0.0,0.0,0.0,0.0,0.0,0.0,0.0,0.0,0.0,0.0,0.0,0.0,-5.049,-5.0528,-5.0641,-5.0567,-5.0284,-5.0301,-4.9857,-4.8971,-4.8417,0.0,0.0,0.0,0.0,-4.4985,-4.4872,-4.48,-4.4726,-4.4388,-4.4149,0.0,0.0,0.0,0.0,0.0,0.0,0.0,0.0,-4.2519,-4.2315,0.0,0.0,-4.176,-4.177,-4.1613,-4.1488,-4.1429,-4.1536,-4.1587,-4.1457,-4.1911,0.0,0.0,-4.2557,-4.2645,-4.2464,-4.239,0.0,0.0,0.0,0.0,0.0,0.0,0.0,0.0,0.0,0.0,0.0,0.0,0.0,0.0,0.0,0.0,0.0,0.0,0.0,-4.5297,-4.5297,-4.5297,-4.5297,-4.5338,-4.538,-4.54,-4.5438,-4.5495,-4.5568,-4.5586,-4.5586,-4.5586,-4.5586,-4.5586,-4.5586,-4.5586,-4.5586,-4.5586,-4.5586,-4.564,-4.5709,-4.5738,-4.5785,-4.5795,-4.5786,-4.58,-4.58,0.0,0.0,0.0,0.0,0.0,0.0,0.0,0.0,0.0,0.0,0.0,0.0,0.0,0.0,0.0,0.0,0.0,0.0,0.0,0.0,0.0,0.0,0.0,-5.0116,-4.9949,-5.004,-5.0021,-4.9911,-4.9886,-4.9575,-4.8972,0.0,0.0,0.0,0.0,0.0,0.0,0.0,-4.4071,-4.4061,-4.3627,-4.3336,0.0,0.0,0.0,0.0,0.0,0.0,0.0,0.0,0.0,0.0,0.0,0.0,0.0,0.0,-4.1169,-4.1043,-4.0995,-4.0982,-4.1001,-4.0966,0.0,0.0,-4.1041,-4.1469,-4.1777,-4.154,-4.1505,0.0,0.0,0.0,0.0,0.0,0.0,0.0,0.0,0.0,0.0,0.0,0.0,0.0,0.0,0.0,0.0,0.0,0.0,0.0,0.0,-4.5297,-4.5297,-4.5297,-4.5378,-4.54,-4.54,-4.5476,-4.5531,-4.5586,-4.5586,-4.5586,-4.5586,-4.5586,-4.5586,-4.5586,-4.5586,-4.5586,-4.5586,-4.5622,-4.5673,-4.5742,-4.5781,-4.581,-4.581,-4.58,-4.58,-4.58,0.0,0.0,0.0,0.0,0.0,0.0,0.0,0.0,0.0,0.0,0.0,0.0,0.0,0.0,0.0,0.0,0.0,0.0,0.0,0.0,0.0,0.0,0.0,-4.9949,-4.9405,-4.9405,-4.957,-4.9884,-4.9811,-4.9803,-4.9784,-4.8905,0.0,0.0,0.0,0.0,0.0,0.0,-4.26,-4.2772,-4.2426,-4.2306,-4.2266,0.0,0.0,0.0,0.0,0.0,0.0,0.0,0.0,0.0,0.0,0.0,0.0,0.0,-4.0434,-4.0087,-3.9935,-3.9901,-3.9901,0.0,0.0,0.0,-4.0087,-4.0815,-4.1477,-4.1477,0.0,-4.1477,-4.1477,0.0,0.0,0.0,0.0,0.0,0.0,0.0,0.0,0.0,0.0,0.0,0.0,0.0,0.0,0.0,0.0,0.0,0.0,-4.5297,-4.5297,-4.5297,-4.5378,-4.54,-4.54,-4.5476,-4.5531,-4.5603,-4.5586,-4.5586,-4.5586,-4.5586,-4.5586,-4.5586,-4.5586,-4.5586,-4.5622,-4.5657,-4.5738,-4.5795,-4.5786,-4.58,-4.58,-4.58,-4.58,-4.5819,0.0,0.0,0.0,0.0,0.0,0.0,0.0,0.0,0.0,0.0,0.0,0.0,0.0,0.0,0.0,0.0,0.0,0.0,0.0,0.0,0.0,0.0,0.0,0.0,0.0,0.0,-4.909,-4.922,-4.8934,-4.8832,0.0,0.0,0.0,-4.5789,0.0,0.0,0.0,0.0,-4.2483,-4.2426,-4.2038,-4.1803,-4.1717,0.0,0.0,0.0,0.0,0.0,0.0,0.0,0.0,0.0,0.0,0.0,0.0,0.0,-3.9279,-3.9011,-3.9799,-3.9713,0.0,-3.9935,0.0,0.0,0.0,-4.0341,0.0,0.0,0.0,-4.0544,0.0,0.0,0.0,0.0,0.0,0.0,0.0,0.0,0.0,0.0,0.0,0.0,0.0,0.0,0.0,0.0,0.0,0.0,0.0,-4.5297,-4.5317,-4.5378,-4.54,-4.5475,-4.561,-4.5582,-4.5618,-4.5742,-4.5654,-4.5586,-4.5586,-4.5586,-4.5586,-4.5586,-4.5586,-4.5586,-4.5622,-4.5671,-4.5735,-4.5795,-4.5786,-4.5858,-4.5949,-4.5949,-4.5969,-4.6027,0.0,0.0,0.0,0.0,0.0,0.0,0.0,0.0,0.0,0.0,0.0,0.0,0.0,0.0,0.0,0.0,0.0,0.0,0.0,0.0,0.0,0.0,0.0,0.0,0.0,-4.8495,-4.8365,0.0,0.0,0.0,0.0,0.0,0.0,-4.5025,0.0,-4.365,0.0,0.0,-4.1639,-4.1578,-4.1059,-4.0797,-4.072,0.0,0.0,0.0,0.0,0.0,0.0,0.0,0.0,0.0,0.0,0.0,0.0,-3.9206,-3.8739,-3.8518,-3.9644,-3.9418,0.0,-3.9901,-3.9918,-3.9747,-3.9747,0.0,0.0,0.0,0.0,-4.007,0.0,0.0,0.0,0.0,0.0,0.0,0.0,0.0,0.0,0.0,0.0,0.0,0.0,0.0,0.0,0.0,0.0,0.0,0.0,-4.5297,-4.5338,-4.5398,-4.5457,-4.5541,-4.5703,-4.5696,-4.5712,-4.58,-4.5668,-4.5586,-4.5586,-4.5586,-4.5586,-4.5586,-4.5586,-4.5622,-4.564,-4.5684,-4.5731,-4.5815,-4.5863,-4.593,-4.6002,-4.6026,-4.6061,-4.6108,0.0,0.0,0.0,0.0,0.0,0.0,0.0,0.0,0.0,0.0,0.0,0.0,0.0,0.0,0.0,0.0,0.0,0.0,0.0,0.0,0.0,0.0,0.0,0.0,0.0,0.0,0.0,0.0,0.0,0.0,0.0,0.0,-4.6201,-4.4617,0.0,-4.3102,0.0,0.0,0.0,-4.0431,-3.9851,-3.961,-3.961,-3.961,0.0,0.0,0.0,0.0,0.0,0.0,0.0,0.0,0.0,0.0,-3.8788,-3.9044,-3.8684,-3.8407,-3.9382,0.0,0.0,-3.9679,-3.9592,0.0,-3.9206,-3.9696,-4.007,-4.002,0.0,0.0,0.0,0.0,0.0,0.0,0.0,0.0,0.0,0.0,0.0,0.0,0.0,0.0,0.0,0.0,0.0,0.0,0.0,0.0,0.0,-4.5317,-4.5338,-4.5399,-4.5543,-4.5634,-4.5713,-4.578,-4.5794,-4.5808,-4.5684,-4.562,-4.562,-4.5603,-4.5603,-4.562,-4.562,-4.5673,-4.5742,-4.5719,-4.577,-4.5834,-4.5974,-4.6007,-4.6035,-4.6095,-4.6118,-4.6118,0.0,0.0,0.0,0.0,0.0,0.0,0.0,0.0,0.0,0.0,0.0,0.0,0.0,0.0,0.0,0.0,0.0,0.0,0.0,0.0,0.0,0.0,0.0,0.0,0.0,0.0,0.0,0.0,0.0,0.0,0.0,0.0,0.0,-4.3305,0.0,-4.1801,0.0,0.0,-3.9765,-3.98,-3.9662,-3.961,-3.961,-3.961,0.0,0.0,0.0,0.0,0.0,0.0,0.0,0.0,-3.8849,-3.8629,-3.859,-3.8495,-3.81,-3.7812,-3.8733,-3.8495,0.0,0.0,-3.8974,-3.9206,-3.9206,-3.9696,-3.9969,-3.947,-3.9747,0.0,0.0,0.0,0.0,0.0,0.0,0.0,0.0,0.0,0.0,0.0,0.0,0.0,0.0,0.0,0.0,0.0,0.0,0.0,-4.5297,-4.5338,-4.5399,-4.54,-4.5577,-4.5736,-4.5856,-4.5815,-4.5829,0.0,-4.5808,-4.5757,-4.5757,-4.5654,-4.5651,-4.5757,-4.5757,-4.5819,-4.5925,-4.5808,-4.5885,-4.6032,-4.6085,-4.6104,-4.6162,-4.6171,-4.6212,-4.6264,0.0,0.0,0.0,0.0,0.0,0.0,0.0,0.0,0.0,0.0,0.0,0.0,0.0,0.0,0.0,0.0,0.0,0.0,0.0,0.0,0.0,0.0,0.0,0.0,0.0,0.0,0.0,0.0,0.0,0.0,0.0,0.0,0.0,-4.2867,0.0,-4.1398,0.0,0.0,0.0,-3.9312,-3.9098,-3.9007,-3.9007,0.0,0.0,0.0,0.0,0.0,0.0,0.0,0.0,0.0,0.0,0.0,-3.8197,-3.8303,-3.7886,-3.7578,-3.8567,0.0,0.0,-3.8197,0.0,-3.9435,-3.9115,-3.954,-3.9867,-3.9401,0.0,0.0,0.0,0.0,0.0,0.0,0.0,0.0,0.0,0.0,0.0,0.0,0.0,0.0,0.0,0.0,0.0,0.0,0.0,-4.5317,-4.5338,-4.54,-4.5493,-4.5543,-4.5744,-4.5899,-4.5996,-4.5959,-4.5959,-4.5996,-4.5906,-4.5847,-4.5847,-4.5769,-4.5783,-4.5847,-4.5847,-4.5886,-4.5963,-4.5905,-4.5951,-4.6057,-4.6125,-4.6181,-4.6189,-4.6249,-4.6269,-4.6308,0.0,0.0,0.0,0.0,0.0,0.0,0.0,0.0,0.0,0.0,0.0,0.0,0.0,0.0,0.0,0.0,0.0,0.0,0.0,0.0,0.0,0.0,0.0,0.0,0.0,0.0,0.0,0.0,0.0,0.0,0.0,0.0,0.0,-4.2756,0.0,0.0,0.0,0.0,0.0,0.0,0.0,0.0,0.0,0.0,0.0,0.0,0.0,-3.8391,-3.8391,-3.8391,0.0,0.0,0.0,0.0,-3.8017,-3.8335,-3.8033,-3.7711,-3.8455,0.0,-3.7578,-3.8197,-3.9044,0.0,-3.9061,-3.9504,-3.9918,-3.9749,0.0,0.0,0.0,0.0,0.0,0.0,0.0,0.0,0.0,0.0,0.0,0.0,0.0,0.0,0.0,0.0,0.0,0.0,0.0,-4.5361,-4.5419,-4.5505,-4.5615,-4.5728,-4.592,-4.6045,-4.6098,-4.6098,-4.6098,-4.6098,-4.5987,-4.5959,-4.5978,-4.5978,-4.5969,-4.593,-4.593,-4.5949,-4.5964,-4.6003,-4.6037,-4.6064,-4.6182,-4.6224,-4.623,-4.627,-4.6308,-4.6308,0.0,0.0,0.0,0.0,0.0,0.0,0.0,0.0,0.0,0.0,0.0,0.0,0.0,0.0,0.0,0.0,0.0,0.0,-4.5767,0.0,0.0,-4.532,-4.5072,0.0,0.0,0.0,0.0,0.0,0.0,0.0,0.0,0.0,0.0,-4.2369,0.0,0.0,0.0,0.0,0.0,0.0,0.0,0.0,0.0,0.0,0.0,0.0,0.0,0.0,-3.8391,-3.8391,-3.8391,0.0,0.0,0.0,-3.8335,-3.8408,-3.8335,-3.8205,0.0,0.0,-3.7621,0.0,-3.8903,-3.9206,0.0,0.0,-4.05,0.0,0.0,0.0,0.0,0.0,0.0,0.0,0.0,0.0,0.0,0.0,0.0,0.0,0.0,0.0,0.0,0.0,0.0,0.0,-4.5416,-4.5478,-4.5486,-4.5717,-4.584,-4.5871,-4.6016,-4.6098,-4.6098,-4.6098,-4.6098,-4.6098,-4.6091,-4.6138,-4.6245,-4.6245,-4.6181,-4.6064,-4.6064,-4.6138,-4.6231,-4.6127,-4.617,-4.6265,-4.6282,-4.6282,-4.6282,-4.6308,-4.6308,-4.6308,0.0,0.0,0.0,0.0,0.0,0.0,0.0,0.0,0.0,0.0,0.0,0.0,0.0,0.0,0.0,-4.6501,-4.6328,-4.5985,-4.5407,-4.525,-4.5108,-4.491,-4.4674,-4.4395,0.0,0.0,0.0,0.0,0.0,0.0,0.0,-4.3262,-4.2933,0.0,0.0,0.0,0.0,0.0,0.0,0.0,0.0,0.0,0.0,0.0,0.0,0.0,0.0,0.0,-3.8391,-3.8391,-3.8391,-3.8391,-3.8391,0.0,0.0,0.0,-3.8391,-3.8391,-3.8205,-3.8383,-3.8684,0.0,-3.9312,-3.9747,-3.985,0.0,-4.0549,0.0,0.0,0.0,0.0,0.0,0.0,0.0,0.0,0.0,0.0,0.0,0.0,0.0,0.0,0.0,0.0,0.0,0.0,0.0,-4.5576,-4.5673,-4.5731,-4.5878,-4.5978,-4.6007,-4.6138,-4.6211,-4.6211,-4.6211,-4.6211,-4.6211,-4.6211,-4.6245,-4.63,-4.63,-4.6273,-4.6211,-4.6211,-4.6245,-4.63,-4.625,-4.6241,-4.6308,-4.6308,-4.6308,-4.6308,-4.6308,-4.6308,-4.6308,0.0,0.0,0.0,0.0,0.0,0.0,0.0,0.0,0.0,0.0,0.0,0.0,0.0,0.0,0.0,0.0,-4.5784,-4.5494,-4.4892,-4.4729,-4.458,-4.4299,-4.4112,-4.3881,-4.368,0.0,0.0,0.0,0.0,0.0,-4.3141,-4.2743,-4.2634,0.0,-4.1889,-4.1565,0.0,0.0,0.0,0.0,0.0,0.0,0.0,0.0,0.0,0.0,0.0,0.0,0.0,-3.8683,-3.8683,-3.8651,-3.8456,-3.8391,0.0,0.0,0.0,-3.8391,0.0,0.0,-3.9312,-3.9329,-3.9713,-4.0171,0.0,0.0,0.0,0.0,0.0,0.0,0.0,0.0,0.0,0.0,0.0,0.0,0.0,0.0,0.0,0.0,0.0,0.0,0.0,0.0,0.0,0.0,-4.5774,-4.5881,-4.5919,-4.6021,-4.6092,-4.6144,-4.6245,-4.63,-4.63,-4.63,-4.63,-4.63,-4.63,-4.63,-4.63,-4.63,-4.63,-4.63,-4.63,-4.6303,-4.6306,-4.6303,-4.6297,-4.6308,-4.6308,-4.6308,-4.6308,-4.6308,-4.6308,-4.6308,0.0,0.0,0.0,0.0,0.0,0.0,0.0,0.0,0.0,0.0,0.0,0.0,-4.6799,-4.6613,-4.6032,-4.4787,-4.4635,-4.4333,-4.373,-4.3552,-4.3416,-4.3157,-4.3068,0.0,-4.268,0.0,0.0,0.0,0.0,0.0,-4.2634,-4.2634,-4.2634,-4.2601,-4.1889,-4.1565,-4.1517,0.0,0.0,0.0,0.0,0.0,0.0,0.0,0.0,0.0,0.0,0.0,0.0,0.0,-3.9428,-3.9298,-3.8618,-3.8391,-3.8391,0.0,0.0,0.0,0.0,-3.8711,0.0,-3.9935,0.0,0.0,0.0,0.0,0.0,0.0,0.0,0.0,0.0,0.0,0.0,0.0,0.0,0.0,0.0,0.0,0.0,0.0,0.0,0.0,0.0,0.0,0.0,0.0,-4.5916,-4.5997,-4.599,-4.6187,-4.6296,-4.6296,-4.63,-4.63,-4.63,-4.63,-4.63,-4.63,-4.63,-4.63,-4.63,-4.63,-4.63,-4.63,-4.63,-4.6309,-4.63,-4.6306,-4.6297,-4.6308,-4.6308,-4.6308,-4.6308,-4.6308,-4.6308,-4.6308,0.0,0.0,0.0,0.0,0.0,0.0,0.0,0.0,0.0,0.0,0.0,0.0,0.0,-4.6213,-4.5597,-4.4635,-4.4162,-4.3848,-4.3611,-4.3372,-4.3174,-4.3113,-4.2883,-4.2696,-4.2634,0.0,0.0,0.0,0.0,-4.2634,-4.2634,-4.2634,-4.2349,-4.1917,-4.2155,-4.2245,-4.2213,-4.1484,0.0,0.0,0.0,0.0,0.0,0.0,0.0,0.0,0.0,0.0,0.0,0.0,-4.0124,-4.0092,-3.9816,-3.9752,-3.9752,-3.9752,-3.9752,-3.9755,0.0,0.0,0.0,-4.0206,-4.037,-4.0517,0.0,0.0,0.0,0.0,0.0,0.0,0.0,0.0,0.0,0.0,0.0,0.0,0.0,0.0,0.0,0.0,0.0,0.0,0.0,0.0,0.0,0.0,0.0,-4.6195,-4.6192,-4.6253,-4.63,-4.63,-4.63,-4.63,-4.63,-4.63,-4.63,-4.63,-4.63,-4.63,-4.63,-4.63,-4.63,-4.63,-4.63,-4.629,-4.6301,-4.6305,-4.6307,-4.6308,-4.6308,-4.6308,-4.6308,-4.6308,-4.6308,-4.6308,0.0,0.0,0.0,0.0,0.0,0.0,0.0,0.0,0.0,0.0,0.0,0.0,0.0,0.0,-4.5091,-4.4276,-4.3848,-4.3628,-4.3628,-4.3372,-4.3174,-4.3113,-4.2805,-4.2696,-4.2634,0.0,0.0,0.0,0.0,0.0,0.0,-4.2696,-4.2476,-4.1997,-4.2285,-4.2238,0.0,0.0,0.0,-4.057,0.0,0.0,-4.0198,0.0,0.0,0.0,0.0,0.0,0.0,0.0,0.0,-4.082,-4.0577,-4.0496,-4.0496,-4.0496,-4.0496,-4.0502,-4.0491,0.0,0.0,0.0,0.0,-4.0728,-4.0888,0.0,0.0,0.0,0.0,0.0,0.0,0.0,0.0,0.0,0.0,0.0,0.0,0.0,0.0,0.0,0.0,0.0,0.0,0.0,0.0,0.0,0.0,0.0,-4.63,-4.63,-4.63,-4.63,-4.63,-4.63,-4.63,-4.63,-4.63,-4.63,-4.63,-4.63,-4.63,-4.63,-4.63,-4.63,-4.6306,-4.6293,-4.6297,-4.6307,-4.6308,-4.6308,-4.6308,-4.6308,-4.6308,-4.6308,-4.6308,-4.6308,0.0,0.0,0.0,0.0,0.0,0.0,0.0,0.0,0.0,-4.7675,0.0,0.0,0.0,0.0,0.0,-4.3671,-4.3628,-4.3628,-4.3628,-4.3492,-4.3312,-4.3113,-4.2945,-4.2821,-4.2634,0.0,0.0,0.0,0.0,0.0,0.0,0.0,-4.299,-4.2837,-4.2302,-4.1557,-4.0737,0.0,-4.0737,-4.0737,0.0,-4.1819,-4.1591,0.0,0.0,0.0,-4.2577,-4.2382,0.0,-4.1797,0.0,0.0,0.0,-4.0545,-4.0545,-4.0545,-4.0561,-4.0664,0.0,0.0,0.0,0.0,0.0,0.0,-4.084,0.0,0.0,0.0,0.0,0.0,0.0,0.0,0.0,0.0,0.0,0.0,0.0,0.0,0.0,0.0,0.0,0.0,0.0,0.0,0.0,0.0,-4.63,-4.63,-4.63,-4.63,-4.63,-4.63,-4.63,-4.63,-4.63,-4.63,-4.63,-4.63,-4.63,-4.63,-4.63,-4.63,-4.63,-4.63,-4.6297,-4.6295,-4.6303,-4.6307,-4.6308,-4.6308,-4.6308,-4.6308,-4.6308,-4.6308,-4.6308,-4.6308,0.0,0.0,0.0,0.0,0.0,0.0,0.0,0.0,0.0,0.0,0.0,0.0,-4.5161,-4.4429,-4.3831,-4.3628,-4.3628,-4.3628,-4.3628,-4.3492,-4.3372,-4.3312,-4.3113,-4.299,-4.299,0.0,0.0,0.0,0.0,0.0,0.0,0.0,0.0,0.0,-4.2094,-4.169,-4.1095,-4.0992,0.0,-4.0239,-4.1393,-4.1591,0.0,0.0,0.0,0.0,0.0,-4.2814,-4.2545,0.0,-4.2467,-4.231,0.0,0.0,-4.2035,-4.2035,-4.2414,-4.2741,-4.2492,0.0,0.0,0.0,0.0,0.0,0.0,0.0,0.0,0.0,0.0,0.0,0.0,0.0,0.0,0.0,0.0,0.0,0.0,0.0,0.0,0.0,0.0,0.0,0.0,0.0,0.0,0.0,-4.63,-4.63,-4.63,-4.63,-4.63,-4.63,-4.63,-4.63,-4.63,-4.63,-4.63,-4.63,-4.63,-4.63,-4.63,-4.63,-4.63,-4.63,-4.6297,-4.6295,-4.6303,-4.6307,-4.6308,-4.6308,-4.6308,-4.6308,-4.6308,-4.6308,-4.6308,-4.6308,0.0,0.0,0.0,0.0,0.0,0.0,0.0,0.0,0.0,0.0,0.0,0.0,-4.4597,-4.4006,-4.3492,-4.3235,-4.3174,-4.3035,-4.2772,-4.2648,-4.2585,-4.2522,-4.238,-4.2317,-4.2253,0.0,0.0,0.0,0.0,0.0,0.0,0.0,0.0,0.0,0.0,0.0,0.0,0.0,0.0,0.0,-4.1591,0.0,0.0,-4.2539,-4.3129,0.0,0.0,0.0,-4.2899,-4.2945,-4.2821,0.0,0.0,0.0,0.0,0.0,0.0,-4.3731,-4.391,-4.4163,0.0,0.0,0.0,0.0,-4.2037,-4.2185,0.0,0.0,0.0,0.0,0.0,0.0,0.0,0.0,0.0,0.0,0.0,0.0,0.0,0.0,0.0,0.0,0.0,-4.63,-4.63,-4.63,-4.63,-4.63,-4.63,-4.63,-4.63,-4.63,-4.63,-4.63,-4.63,-4.63,-4.63,-4.63,-4.63,-4.63,-4.63,-4.63,-4.63,-4.63,-4.6297,-4.6301,-4.63,-4.6307,-4.6308,-4.6308,-4.6308,-4.6308,-4.6308,-4.6308,-4.6308,-4.6308,0.0,0.0,0.0,0.0,0.0,0.0,0.0,0.0,0.0,0.0,0.0,0.0,-4.4212,-4.3805,-4.3372,-4.2772,-4.2648,-4.2317,-4.1656,-4.1525,-4.1459,-4.1343,-4.1343,-4.1276,-4.1194,-4.1209,0.0,0.0,0.0,0.0,0.0,0.0,0.0,0.0,0.0,0.0,0.0,0.0,0.0,-4.06,-4.1981,-4.1997,0.0,0.0,-4.3312,-4.3174,-4.3372,-4.3207,-4.2961,-4.3052,-4.2929,0.0,0.0,0.0,0.0,0.0,-4.3905,-4.4102,-4.5127,-4.5077,-4.4756,-4.5014,-4.4566,0.0,-4.3394,-4.3686,-4.3873,0.0,0.0,0.0,0.0,0.0,0.0,0.0,0.0,0.0,0.0,0.0,0.0,0.0,0.0,0.0,-4.63,-4.63,-4.63,-4.63,-4.63,-4.63,-4.63,-4.6284,-4.6287,-4.6287,-4.6287,-4.6287,-4.6287,-4.6303,-4.63,-4.63,-4.63,-4.63,-4.63,-4.63,-4.63,-4.63,-4.6297,-4.6306,-4.6308,-4.6308,-4.6308,-4.6308,-4.6308,-4.6308,-4.6308,-4.6308,-4.6308,-4.6308,0.0,0.0,0.0,0.0,0.0,0.0,0.0,0.0,0.0,0.0,0.0,0.0,-4.4097,-4.3805,-4.3568,-4.3432,-4.2912,-4.2522,-4.238,-4.1852,-4.1459,-4.1459,-4.1459,-4.1722,-4.2253,-4.2317,-4.2648,0.0,0.0,0.0,0.0,0.0,0.0,0.0,0.0,0.0,0.0,0.0,0.0,-4.2126,-4.2317,0.0,-4.238,-4.3113,-4.3432,-4.3492,-4.3568,-4.3449,-4.3251,-4.3174,-4.3052,-4.299,0.0,0.0,0.0,-4.3218,0.0,0.0,0.0,0.0,0.0,0.0,0.0,0.0,-4.4001,-4.4321,-4.4646,0.0,0.0,0.0,0.0,0.0,0.0,0.0,0.0,0.0,0.0,0.0,0.0,0.0,0.0,0.0,-4.63,-4.63,-4.63,-4.63,-4.63,-4.63,-4.63,-4.6243,-4.6229,-4.6229,-4.6229,-4.6229,-4.6229,-4.6273,-4.63,-4.63,-4.63,-4.63,-4.63,-4.63,-4.63,-4.63,-4.6297,-4.6306,-4.6308,-4.6308,-4.6308,-4.6308,-4.6308,-4.6308,-4.6308,-4.6308,-4.6308,-4.6308,0.0,0.0,0.0,0.0,0.0,0.0,0.0,0.0,0.0,0.0,0.0,-4.4097,-4.4097,-4.3805,-4.3492,-4.3113,-4.2772,-4.2443,-4.2061,-4.1722,-4.1525,-4.1525,-4.1525,-4.1656,-4.2045,-4.2045,-4.238,0.0,0.0,0.0,0.0,0.0,0.0,0.0,0.0,0.0,0.0,0.0,-4.3432,-4.3096,-4.2974,0.0,-4.2648,-4.3235,-4.3568,-4.3628,-4.3628,-4.3492,-4.3372,-4.3174,-4.3113,0.0,-4.3235,-4.3174,-4.3157,0.0,-4.4412,-4.5161,0.0,0.0,0.0,-4.6223,0.0,0.0,0.0,-4.5394,-4.5554,-4.5111,-4.4983,-4.489,-4.4697,0.0,0.0,0.0,0.0,0.0,0.0,0.0,0.0,0.0,0.0,0.0,-4.63,-4.63,-4.63,-4.63,-4.6276,-4.6243,-4.6243,-4.621,-4.6204,-4.6204,-4.619,-4.6191,-4.6191,-4.6276,-4.629,-4.6243,-4.629,-4.6278,-4.625,-4.6246,-4.6245,-4.6247,-4.6211,-4.621,-4.625,-4.625,-4.6269,-4.6308,-4.6308,-4.6308,-4.6308,-4.6308,-4.6308,-4.6308,-4.7783,-4.7759,0.0,0.0,0.0,0.0,0.0,0.0,0.0,0.0,0.0,-4.4373,-4.4298,-4.3948,-4.3432,-4.2834,-4.2648,-4.2317,-4.1525,-4.1393,-4.126,-4.1127,-4.126,-4.1393,-4.1525,-4.1656,-4.2045,-4.2772,0.0,0.0,0.0,0.0,0.0,0.0,0.0,0.0,0.0,0.0,0.0,-4.3628,0.0,-4.3295,-4.2851,-4.3372,-4.3628,-4.3628,-4.3628,-4.3509,-4.3432,-4.3235,-4.3174,-4.3235,-4.3372,-4.3416,0.0,0.0,0.0,0.0,0.0,0.0,0.0,0.0,0.0,-4.691,0.0,0.0,0.0,0.0,0.0,0.0,0.0,0.0,0.0,0.0,0.0,0.0,0.0,0.0,0.0,0.0,0.0,0.0,0.0,-4.6287,-4.627,-4.627,-4.6228,-4.6191,-4.619,-4.6198,-4.6199,-4.6171,-4.6178,-4.6187,-4.6187,-4.6248,-4.6247,-4.619,-4.6246,-4.625,-4.6189,-4.6207,-4.6189,-4.6182,-4.6124,-4.6144,-4.6195,-4.621,-4.623,-4.6308,-4.6308,-4.6308,-4.6308,-4.6308,-4.6308,-4.6308,-4.7884,-4.7861,-4.7861,0.0,0.0,0.0,0.0,0.0,0.0,0.0,0.0,0.0,0.0,-4.4323,-4.3763,-4.3492,-4.2912,-4.2317,-4.1525,-4.094,-4.0339,-3.9681,-4.0285,-4.0873,-4.1459,-4.2126,-4.2789,-4.3492,0.0,0.0,0.0,0.0,0.0,0.0,-4.3628,0.0,0.0,0.0,-4.3628,0.0,-4.3628,-4.3552,0.0,-4.3568,-4.3628,-4.3628,-4.3628,-4.3568,-4.3568,0.0,-4.3552,-4.3568,0.0,-4.3948,-4.4276,-4.3848,0.0,0.0,0.0,0.0,0.0,0.0,-4.6998,0.0,0.0,0.0,-4.7217,-4.6731,0.0,0.0,0.0,0.0,0.0,0.0,0.0,0.0,0.0,0.0,0.0,0.0,0.0,0.0,0.0,-4.6245,-4.621,-4.621,-4.6191,-4.6209,-4.6189,-4.6206,-4.6167,-4.6112,-4.6099,-4.6105,-4.6105,-4.6175,-4.6212,-4.6209,-4.6212,-4.6219,-4.6207,-4.6195,-4.6179,-4.6119,-4.6105,-4.6132,-4.6193,-4.6202,-4.623,-4.6308,-4.6308,-4.6308,-4.6308,-4.6308,-4.6308,-4.6308,-4.7943,-4.7819,-4.7759,0.0,0.0,0.0,0.0,0.0,0.0,0.0,0.0,0.0,0.0,0.0,-4.492,-4.4274,-4.3981,-4.3702,-4.3374,-4.3105,-4.296,-4.3113,-4.3393,-4.3735,-4.4008,-4.4278,-4.4607,-4.4887,-4.4887,0.0,0.0,0.0,0.0,0.0,-4.3628,0.0,-4.3628,0.0,-4.3628,0.0,0.0,0.0,0.0,-4.3628,-4.3628,-4.3628,-4.3628,-4.3628,-4.3628,0.0,-4.3628,0.0,0.0,0.0,0.0,0.0,0.0,0.0,0.0,0.0,0.0,0.0,0.0,0.0,-4.6998,0.0,-4.7186,0.0,0.0,0.0,0.0,0.0,0.0,0.0,-4.5308,0.0,0.0,0.0,0.0,0.0,0.0,0.0,0.0,0.0,0.0,0.0,-4.621,-4.6191,-4.6191,-4.6202,-4.6162,-4.6105,-4.6137,-4.6137,-4.6098,-4.6162,-4.6171,-4.6142,-4.6171,-4.6162,-4.6092,-4.6111,-4.6112,-4.6033,-4.6008,-4.6061,-4.6203,-4.6151,-4.6198,-4.6308,-4.6308,-4.6308,-4.6308,-4.6308,-4.6308,-4.6308,-4.7966,-4.7842,-4.7772,0.0,0.0,0.0,0.0,0.0,0.0,0.0,0.0,0.0,-4.6713,-4.6424,0.0,0.0,-4.5108,-4.5047,-4.4785,-4.4785,-4.4953,-4.529,-4.545,-4.553,-4.5577,-4.5719,-4.5798,-4.5798,-4.5798,0.0,0.0,0.0,0.0,0.0,0.0,-4.3628,-4.3628,0.0,-4.3848,-4.3848,-4.3989,-4.4006,-4.3848,-4.3671,-4.3628,-4.3628,-4.3628,-4.3628,-4.3628,-4.3789,-4.3848,0.0,-4.4541,0.0,0.0,0.0,0.0,0.0,-4.558,0.0,0.0,0.0,0.0,0.0,0.0,0.0,0.0,0.0,0.0,0.0,0.0,0.0,0.0,-4.6158,0.0,-4.5468,0.0,-4.5651,0.0,0.0,0.0,0.0,0.0,0.0,0.0,-4.6267,-4.623,-4.6209,-4.6202,-4.6191,-4.6167,-4.6105,-4.6147,-4.6142,-4.6068,-4.6125,-4.6125,-4.6068,-4.6125,-4.6091,-4.6007,-4.6054,-4.6046,-4.5964,-4.5929,-4.6002,-4.6177,-4.6122,-4.6171,-4.6308,-4.6308,-4.6308,-4.6308,-4.6308,-4.6308,-4.6308,-4.7992,-4.7947,-4.7892,0.0,0.0,0.0,0.0,0.0,0.0,0.0,0.0,0.0,0.0,0.0,0.0,0.0,0.0,-4.5856,-4.5065,0.0,-4.4723,-4.4074,-4.4591,-4.4854,-4.5033,-4.5513,-4.5798,-4.5798,-4.5798,-4.5417,0.0,0.0,0.0,0.0,0.0,-4.3628,-4.3628,-4.4219,-4.4446,-4.4502,-4.5054,-4.4947,-4.439,0.0,-4.3628,-4.3628,-4.3628,0.0,0.0,-4.4276,-4.4446,0.0,0.0,0.0,0.0,0.0,0.0,0.0,0.0,0.0,0.0,-4.6998,0.0,0.0,0.0,0.0,-4.7088,0.0,0.0,0.0,0.0,0.0,-4.7842,-4.6423,-4.6282,0.0,0.0,0.0,0.0,0.0,0.0,0.0,0.0,0.0,-4.6209,-4.6202,-4.6198,-4.6195,-4.6208,-4.6204,-4.6172,-4.6105,-4.6105,-4.6068,-4.6007,-4.6007,-4.6007,-4.6007,-4.6007,-4.6007,-4.5997,-4.6007,-4.5964,-4.5899,-4.5905,-4.5977,-4.6112,-4.6113,-4.6171,-4.6308,-4.6308,-4.6308,-4.6308,-4.6308,-4.6308,-4.6308,0.0,-4.9591,-4.9184,0.0,0.0,0.0,0.0,-4.8646,0.0,0.0,-4.8781,0.0,0.0,-4.8164,-4.7749,0.0,0.0,-4.6903,-4.662,-4.651,0.0,-4.6962,-4.6963,-4.6963,-4.7141,-4.7239,-4.7255,-4.7255,-4.7255,-4.6874,0.0,0.0,0.0,0.0,0.0,-4.3628,0.0,0.0,0.0,0.0,0.0,-4.5001,-4.4446,0.0,0.0,-4.3628,-4.4064,-4.4179,0.0,-4.4855,-4.5054,-4.5108,-4.57,-4.5751,-4.5631,-4.5852,-4.6168,0.0,0.0,0.0,-4.6998,-4.6998,0.0,0.0,0.0,0.0,0.0,0.0,0.0,0.0,0.0,0.0,-4.8277,-4.7908,-4.7039,-4.6342,0.0,0.0,0.0,0.0,0.0,0.0,0.0,0.0,0.0,-4.6251,-4.6269,-4.6267,-4.6268,-4.6276,-4.6248,-4.6167,-4.6162,-4.6112,-4.6007,-4.5997,-4.5997,-4.5997,-4.5997,-4.5997,-4.5997,-4.5997,-4.5986,-4.5953,-4.5929,-4.599,-4.6164,-4.6122,-4.6171,-4.6307,-4.6242,-4.6231,-4.6231,-4.6231,-4.6231,-4.6227,-5.0602,0.0,0.0,0.0,0.0,0.0,0.0,0.0,0.0,0.0,-4.9001,0.0,-4.8894,0.0,-4.863,0.0,-4.7984,-4.7922,-4.7797,-4.7751,0.0,-4.8467,-4.8292,-4.8244,-4.8436,-4.8244,-4.8179,-4.8179,-4.8179,-4.7814,0.0,0.0,0.0,0.0,0.0,-4.4188,-4.4332,-4.466,-4.491,0.0,0.0,-4.5442,0.0,0.0,-4.4105,-4.4006,0.0,-4.4801,-4.4855,-4.5425,-4.5631,-4.5734,-4.6332,-4.6217,-4.5985,-4.6381,-4.6477,-4.6477,-4.6477,-4.6749,0.0,-4.6998,-4.6998,0.0,-4.7196,0.0,-4.7267,0.0,0.0,0.0,0.0,0.0,-4.8739,-4.8697,-4.7593,-4.6595,0.0,-4.5802,0.0,0.0,0.0,0.0,0.0,0.0,-4.6229,-4.6297,-4.6307,-4.6308,0.0,0.0,-4.6278,-4.6209,-4.6195,-4.6147,-4.6036,-4.6017,-4.5997,-4.5997,-4.5997,-4.5997,-4.5997,-4.6005,-4.5994,-4.5964,-4.5937,-4.6028,-4.6164,-4.6124,-4.619,-4.6287,-4.6201,-4.6183,-4.6195,-4.6169,-4.6183,-4.619,0.0,0.0,0.0,0.0,-5.0241,0.0,0.0,0.0,-4.9063,0.0,-4.9001,-4.9063,-4.9001,-4.9001,-4.9001,-4.9001,-4.9001,-4.8877,-4.8547,-4.8707,0.0,0.0,-4.8483,-4.861,-4.8786,0.0,-4.8483,-4.8483,-4.8483,-4.8132,0.0,0.0,0.0,0.0,-4.5407,0.0,-4.5625,-4.5468,-4.5717,-4.6235,-4.6235,-4.6235,-4.6137,-4.558,-4.5054,-4.4652,-4.5161,-4.5355,-4.5425,-4.602,-4.6235,-4.6332,-4.6842,-4.6998,-4.6998,-4.6998,-4.6998,-4.6998,-4.6998,-4.6998,-4.6998,-4.6998,0.0,0.0,0.0,0.0,-4.7407,0.0,0.0,0.0,0.0,0.0,0.0,-4.8848,-4.7984,-4.6958,-4.5649,0.0,-4.5645,0.0,0.0,0.0,-4.6085,-4.6156,-4.6211,-4.6289,-4.6308,-4.6308,0.0,0.0,-4.6264,-4.6202,-4.6209,-4.6167,-4.6105,-4.6036,-4.6007,-4.6007,-4.6007,-4.5997,-4.5997,-4.6014,-4.596,-4.5905,-4.5958,-4.6028,-4.6112,-4.6104,-4.6177,-4.6286,-4.6157,-4.6124,-4.617,-4.6123,-4.6134,-4.619,-5.254,-5.2473,-5.2381,0.0,-5.0841,-4.989,0.0,0.0,0.0,0.0,-4.9394,-4.9496,-4.9063,-4.9001,-4.9001,-4.9001,-4.9001,0.0,0.0,0.0,0.0,-4.8877,-4.861,-4.861,-4.8786,-4.8627,-4.8483,-4.8483,-4.8483,0.0,-4.8199,0.0,0.0,0.0,0.0,0.0,-4.5947,-4.6742,-4.702,-4.6934,-4.6842,-4.6542,0.0,0.0,-4.6217,-4.5768,-4.592,-4.597,-4.607,-4.6637,-4.6778,-4.6842,-4.6952,-4.6998,-4.6998,-4.6998,-4.6998,-4.6998,-4.6998,-4.6998,-4.6998,-4.6998,-4.7284,-4.7572,0.0,0.0,0.0,0.0,0.0,0.0,0.0,0.0,0.0,-4.9614,-4.8344,-4.7148,-4.6395,0.0,0.0,-4.5766,0.0,-4.5896,-4.6007,-4.6102,-4.616,-4.6211,-4.6269,0.0,0.0,0.0,0.0,-4.6202,-4.6198,-4.6191,-4.6167,-4.6105,-4.6068,-4.6068,-4.6018,-4.6005,-4.6003,-4.6003,-4.596,-4.5905,-4.5958,-4.6044,-4.6088,-4.615,-4.6222,-4.629,-4.6149,-4.6027,-4.591,-4.6048,-4.61,-4.6138,-5.3206,0.0,0.0,-5.2645,0.0,0.0,-5.0642,-4.9988,0.0,-4.9394,-4.9436,0.0,-4.9063,-4.9001,-4.9001,-4.9001,-4.9001,0.0,-4.8894,0.0,0.0,-4.8894,-4.8815,-4.8923,-4.9273,-4.9135,0.0,-4.9118,0.0,0.0,-4.9118,0.0,0.0,0.0,0.0,-4.8023,-4.7787,-4.7953,-4.775,-4.7249,-4.7133,-4.6888,0.0,-4.6888,-4.6824,-4.6542,-4.6542,-4.6542,-4.659,-4.6888,-4.6998,-4.6998,-4.6998,-4.6998,-4.6998,-4.6998,-4.6998,-4.6998,-4.6998,-4.7043,-4.7116,-4.7284,-4.753,-4.7882,-4.8139,-4.8403,-4.8691,0.0,0.0,0.0,0.0,0.0,0.0,-4.9424,-4.8249,-4.7175,0.0,0.0,0.0,0.0,-4.578,-4.5874,-4.5951,-4.6022,-4.6091,-4.6191,-4.623,0.0,0.0,0.0,0.0,-4.6241,-4.6212,-4.62,-4.6191,-4.616,-4.6138,-4.6141,-4.6102,-4.6066,-4.605,-4.6038,-4.5995,-4.5912,-4.6028,-4.6094,-4.6105,-4.6169,-4.624,-4.6297,-4.6182,-4.6057,-4.5949,-4.608,-4.6119,-4.6105,0.0,0.0,0.0,0.0,0.0,0.0,0.0,-5.0349,0.0,-4.993,0.0,-4.9229,-4.9124,-4.9063,-4.9001,-4.9001,0.0,-4.8956,-4.8832,-4.9001,-4.9063,-4.8956,-4.9107,-4.9496,-4.9988,-4.9988,-4.9988,0.0,-5.048,-5.0442,0.0,0.0,0.0,0.0,0.0,0.0,0.0,-4.898,-4.8039,-4.732,-4.7249,-4.7196,-4.7196,-4.7088,-4.7043,-4.6998,-4.6998,-4.6998,-4.6998,-4.6998,-4.6998,-4.6998,-4.6998,-4.6998,-4.698,-4.7043,-4.7043,-4.7043,-4.7025,-4.7133,-4.7294,-4.7656,-4.7882,-4.8119,-4.8584,-4.8725,-4.8915,-4.9365,-4.9169,-4.915,0.0,0.0,0.0,0.0,0.0,0.0,0.0,0.0,0.0,0.0,0.0,0.0,-4.5898,-4.597,-4.6055,-4.6178,0.0,0.0,0.0,0.0,0.0,-4.6308,-4.6241,-4.6209,-4.6202,0.0,-4.6197,-4.6199,-4.6209,-4.6154,-4.6091,-4.6104,-4.6041,-4.5944,-4.6112,-4.6174,-4.6123,-4.618,-4.6237,-4.6274,-4.621,-4.6157,-4.6106,-4.6173,-4.6162,-4.6111,0.0,0.0,0.0,0.0,0.0,-5.1946,-5.2343,-5.1683,-5.0999,-5.0589,-5.048,-5.022,-4.9774,-4.9273,-4.9001,-4.9001,-4.9001,0.0,0.0,0.0,0.0,-4.9715,-5.0181,-5.0425,-5.0535,-5.0535,-5.0535,-5.0535,-5.0626,-5.0643,-5.0535,0.0,0.0,0.0,0.0,0.0,-5.0019,-4.9055,0.0,-4.745,-4.732,-4.7249,-4.7196,-4.7178,-4.7088,-4.6998,-4.6998,-4.6998,-4.6998,-4.6998,-4.6998,-4.6998,-4.6998,-4.6998,-4.7043,-4.7133,-4.7133,-4.7178,-4.7232,-4.7276,-4.7389,-4.7779,-4.8177,-4.8584,-4.8982,-4.9401,-4.9703,-4.9797,-4.9769,-4.975,-4.9898,0.0,0.0,0.0,0.0,0.0,0.0,0.0,0.0,0.0,0.0,-4.591,-4.5986,-4.5996,-4.6009,0.0,0.0,0.0,0.0,0.0,0.0,0.0,-4.6289,0.0,0.0,0.0,-4.6209,-4.6208,-4.6206,-4.6156,-4.6092,-4.6104,-4.6083,-4.6072,-4.6169,-4.6189,-4.6189,-4.6241,-4.6269,-4.6226,-4.62,-4.6167,-4.6103,-4.6188,-4.6201,-4.6189,0.0,0.0,0.0,0.0,0.0,0.0,0.0,-5.2408,0.0,-5.126,-5.0911,-5.0589,-5.0331,-5.0067,-4.9896,-4.9896,-4.9896,-4.9896,-4.9896,-5.0181,-5.0276,-5.0276,-5.0535,-5.0858,-5.1157,-5.1157,-5.1157,-5.1157,-5.1482,-5.1482,-5.1139,0.0,0.0,0.0,0.0,-5.0929,0.0,0.0,0.0,-4.7615,-4.7468,-4.7381,-4.7356,-4.7294,-4.7205,-4.716,-4.716,-4.716,-4.716,-4.7043,-4.6998,-4.6998,-4.7088,-4.7088,-4.7133,-4.7205,-4.7249,-4.7276,-4.7542,-4.765,-4.7856,-4.8421,-4.8779,-4.9118,-4.948,-4.975,-4.9898,-4.9898,-4.9898,-4.9898,-4.9898,-4.9898,0.0,0.0,0.0,0.0,0.0,0.0,-4.6711,0.0,0.0,0.0,0.0,0.0,0.0,0.0,0.0,0.0,0.0,0.0,0.0,0.0,0.0,0.0,0.0,0.0,0.0,-4.6243,-4.625,-4.6226,-4.6156,-4.6189,-4.616,-4.6111,-4.6201,-4.6239,-4.6203,-4.6273,-4.6289,-4.625,-4.6246,-4.6228,-4.6216,-4.6234,-4.624,-4.626,0.0,-5.323,0.0,0.0,-5.3103,0.0,-5.2999,-5.2831,-5.2499,-5.1915,-5.1243,-5.0911,-5.0911,-5.0805,-5.0697,-5.0697,-5.0697,-5.0697,-5.0697,-5.0805,-5.0911,-5.0911,-5.1017,-5.1312,-5.1768,-5.1786,-5.1786,-5.1786,-5.2275,-5.2185,-5.1535,-5.2203,0.0,0.0,0.0,0.0,0.0,0.0,-4.846,-4.7699,-4.7615,-4.7511,-4.7511,-4.7363,-4.7302,-4.7302,-4.7302,-4.7302,-4.7276,-4.7116,-4.707,-4.707,-4.7178,-4.7294,-4.7363,-4.7432,-4.7542,-4.7632,-4.798,-4.8194,-4.8421,-4.9085,-4.9315,-4.9506,-4.9824,-4.9898,-4.9898,-4.9898,-4.9898,-4.9898,-4.9898,-4.9933,0.0,0.0,0.0,0.0,0.0,0.0,0.0,0.0,0.0,0.0,-4.6037,0.0,0.0,0.0,0.0,0.0,-4.6147,0.0,0.0,0.0,0.0,-4.6289,-4.6289,0.0,-4.6307,-4.6308,-4.6301,-4.6262,-4.6211,-4.6277,-4.624,-4.6156,-4.6241,-4.6266,-4.624,-4.628,-4.6307,-4.6307,-4.6295,-4.6303,-4.63,-4.63,-4.63,-4.63,0.0,0.0,0.0,0.0,0.0,0.0,-5.2999,-5.2999,-5.285,-5.2545,-5.1946,-5.15,-5.15,-5.1034,-5.0697,-5.0697,-5.0697,-5.0697,-5.0697,-5.1209,-5.15,-5.15,-5.2048,-5.2387,-5.2434,-5.2434,-5.2434,0.0,-5.2498,-5.2118,-5.1366,-5.2154,0.0,0.0,0.0,0.0,0.0,-4.9238,-4.846,-4.7717,-4.7675,-4.7615,-4.7511,-4.7511,-4.7407,-4.7302,-4.7302,-4.7302,-4.732,-4.7276,-4.7258,-4.7258,-4.7276,-4.7524,-4.7879,-4.7977,-4.8252,-4.8512,-4.8657,-4.8728,-4.885,-4.9252,-4.9396,-4.9506,-4.9824,-4.9898,-4.9898,-4.9898,-4.9898,-4.9898,-4.9898,-5.0038,-5.0114,0.0,0.0,0.0,0.0,0.0,-4.8684,-4.7416,0.0,0.0,-4.6162,-4.6146,0.0,0.0,-4.6069,0.0,0.0,0.0,0.0,-4.6118,0.0,-4.6211,-4.6211,-4.6269,-4.6308,-4.6308,-4.6308,-4.6308,-4.6289,-4.6308,-4.6288,-4.6288,-4.6286,-4.6305,-4.6285,-4.6293,-4.6306,-4.6306,-4.6297,-4.6293,-4.63,-4.63,-4.63,-4.63,0.0,0.0,0.0,0.0,0.0,0.0,0.0,-5.3042,-5.2937,-5.285,-5.2454,-5.2155,-5.2144,-5.1933,-5.1768,-5.1768,-5.1768,-5.1768,-5.1768,-5.2,-5.2162,-5.2162,-5.2387,-5.2498,-5.2498,-5.2498,-5.2498,0.0,0.0,-5.2335,-5.2027,-5.2353,0.0,0.0,0.0,-5.0648,-5.0643,-4.8889,-4.8115,-4.805,-4.7783,-4.7657,-4.7615,-4.7615,-4.7615,-4.7554,-4.7554,-4.7705,-4.7893,-4.7893,-4.7793,-4.7674,-4.7733,-4.802,-4.8347,-4.8477,-4.8621,-4.8797,-4.9071,-4.9155,-4.9252,-4.9607,-4.9712,-4.9741,-4.9852,-4.9898,-4.9898,-4.9898,-4.9898,-4.9952,-5.0063,-5.0139,-5.0212,0.0,0.0,0.0,0.0,0.0,0.0,-4.8918,0.0,-4.7223,-4.6911,-4.6466,0.0,0.0,0.0,0.0,0.0,0.0,0.0,-4.61,0.0,-4.6195,-4.6191,-4.6269,-4.6308,-4.6308,-4.6308,-4.6308,-4.6308,-4.6308,-4.6308,-4.6308,-4.6308,-4.6307,-4.6297,-4.6306,-4.63,-4.63,-4.6309,-4.6306,-4.63,-4.63,-4.63,-4.63,-5.3979,0.0,-5.3795,0.0,-5.37,-5.3776,-5.34,-5.3277,-5.3133,-5.3042,-5.285,-5.2654,-5.2554,-5.2508,-5.2526,-5.2498,-5.2498,-5.2498,-5.2498,-5.2498,-5.2498,-5.2498,-5.2498,0.0,-5.2498,-5.2498,-5.2498,-5.2498,-5.2599,-5.2563,-5.2326,-5.2441,0.0,0.0,-5.1174,-5.0588,-5.073,-4.8838,-4.8172,-4.8421,-4.8132,-4.8014,-4.8014,-4.8014,-4.8014,-4.8014,-4.8014,-4.821,-4.8439,-4.8439,-4.8402,-4.8328,-4.8309,-4.8549,-4.8847,-4.8952,-4.9052,-4.9201,-4.9488,-4.9566,-4.9596,-4.9824,-4.9898,-4.9898,-4.9898,-4.9898,-4.9898,-4.9898,-4.9952,-5.0038,-5.0163,-5.0283,-5.0377,-5.0427,0.0,0.0,0.0,-5.0513,0.0,-4.9923,-4.8857,-4.8039,-4.7806,-4.705,0.0,0.0,0.0,0.0,0.0,0.0,0.0,0.0,0.0,0.0,0.0,-4.6229,-4.6269,-4.6269,-4.6289,-4.6308,-4.6308,-4.6307,-4.6306,-4.6306,-4.6307,-4.6303,-4.6306,-4.6303,-4.63,-4.63,-4.63,-4.63,-4.63,-4.63,-4.63,-4.63,-5.4716,-5.4528,-5.4315,-5.4281,-5.4315,-5.4158,-5.3758,-5.3682,-5.3545,-5.3066,-5.2999,-5.2893,-5.2635,-5.259,-5.2563,-5.2498,-5.2498,-5.2498,-5.2498,-5.2498,-5.2498,0.0,0.0,-5.2498,-5.2498,-5.2498,-5.2498,-5.2498,0.0,0.0,-5.1926,0.0,-5.2475,-5.2364,-5.1547,-5.0749,-4.9968,-4.9134,-4.8781,-4.8781,-4.8781,-4.8781,-4.8781,-4.8781,-4.8781,-4.8781,-4.8781,-4.8781,-4.8781,-4.8781,-4.9038,-4.9302,-4.8937,-4.9071,-4.9396,-4.9396,-4.9625,-4.9898,-4.9879,-4.9879,-4.9879,-4.9898,-4.9898,-4.9898,-4.9898,-4.9898,-4.9898,-4.9898,-5.0063,-5.0188,-5.0188,-5.0464,-5.0663,-5.051,0.0,0.0,0.0,-5.1005,0.0,-4.9995,-4.9887,-4.9557,-4.8768,-4.7965,0.0,0.0,0.0,0.0,0.0,0.0,0.0,-4.5997,-4.5996,0.0,-4.5998,-4.6131,-4.6191,-4.6191,-4.6269,-4.6308,-4.6308,-4.6295,-4.63,-4.6303,-4.6297,-4.6301,-4.6301,-4.6306,-4.63,-4.63,-4.63,-4.63,-4.63,-4.63,-4.63,-4.63,-5.4776,-5.4716,-5.456,-5.433,-5.4495,-5.4528,-5.4158,-5.4123,-5.398,-5.3526,-5.3465,-5.3304,-5.2937,-5.2806,-5.2717,0.0,-5.2627,-5.2581,0.0,-5.2526,-5.2599,-5.2919,-5.29,-5.3054,-5.3308,-5.3308,-5.3308,-5.3308,0.0,0.0,0.0,-5.3273,-5.3162,-5.2835,-5.1711,-5.1065,-5.0734,-4.9374,-4.8971,-4.9188,-4.8919,-4.8816,-4.8816,-4.8816,-4.8816,-4.8816,-4.8816,-4.8971,-4.922,-4.922,-4.9457,-4.9712,-4.9588,-4.9636,-4.9741,-4.9741,-4.9824,-4.9898,-4.9898,-4.9898,-4.9898,-4.9898,-4.9898,-4.9898,-4.9898,-4.9898,-4.9898,-4.9898,-5.0063,-5.024,-5.0385,-5.0587,-5.0803,-5.0889,-5.1049,0.0,-5.1109,0.0,-5.1141,-5.0886,-5.0322,-4.9874,-4.9609,-4.8857,0.0,0.0,0.0,0.0,0.0,0.0,0.0,0.0,-4.6044,0.0,-4.6072,-4.6163,-4.6205,-4.6197,-4.6177,-4.6195,-4.6226,-4.628,-4.6293,-4.63,-4.6306,-4.6309,-4.6309,-4.6303,-4.63,-4.63,-4.63,-4.63,-4.63,-4.63,-4.63,-4.6378,-5.5038,-5.5038,-5.4962,-5.4754,-5.4874,-5.4903,-5.4528,-5.4495,-5.4345,-5.3961,-5.3944,-5.3833,-5.3505,-5.3407,0.0,-5.303,-5.3059,-5.3106,-5.3106,-5.3036,-5.3078,-5.3348,-5.3348,-5.3428,-5.3683,-5.3683,0.0,-5.3683,-5.3833,-5.3997,-5.4139,-5.384,-5.338,-5.2787,-5.1678,-5.1011,-5.0647,-4.9645,-4.9358,-4.9566,-4.9327,-4.9214,-4.9214,-4.9214,-4.9214,-4.9214,-4.9214,-4.9358,-4.9596,-4.9596,-4.9741,-4.9898,-4.9898,-4.9898,-4.9898,-4.9898,-4.9898,-4.9898,-4.9898,-4.9898,-4.9898,-4.9898,-4.9925,-4.9959,-5.0051,-5.0076,-5.0081,-5.014,-5.0323,-5.0509,-5.0622,-5.0797,-5.097,-5.1117,-5.1171,-5.122,-5.1239,0.0,-5.13,0.0,0.0,0.0,0.0,-4.9742,-4.9255,0.0,0.0,0.0,0.0,0.0,0.0,-4.6095,-4.6095,0.0,-4.6094,-4.6135,-4.6169,-4.6152,-4.6149,-4.615,-4.6205,-4.6269,-4.6303,-4.6297,-4.6306,-4.63,-4.63,-4.63,-4.63,-4.63,-4.63,-4.63,-4.63,-4.63,-4.6491,-4.6811,-5.5403,-5.5403,0.0,0.0,-5.5403,0.0,-5.4884,-5.4836,-5.4716,-5.4364,-5.433,-5.4349,-5.4296,-5.4296,-5.4104,-5.3547,0.0,0.0,0.0,-5.3869,-5.3814,-5.3851,-5.3777,-5.3758,-5.3796,-5.3796,-5.3796,-5.3796,-5.4158,-5.4495,-5.4806,-5.4048,-5.3215,-5.2286,-5.1547,-5.0713,-4.9898,-4.9898,-4.9898,-4.9898,-4.9898,-4.9898,-4.9898,-4.9898,-4.9898,-4.9898,-4.9898,-4.9898,-4.9898,-4.9898,-4.9898,-4.9898,-4.9898,-4.9898,-4.9898,-4.9898,-4.9898,-4.9898,-4.9898,-4.9879,-4.9925,-4.9925,-4.9952,-5.0089,-5.0339,-5.0404,-5.0448,-5.0564,-5.0758,-5.0889,-5.0923,-5.1024,-5.1128,-5.1201,-5.1211,-5.123,-5.1292,-5.13,-5.13,0.0,0.0,0.0,0.0,-5.0579,-5.0092,0.0,0.0,0.0,0.0,0.0,-4.7248,-4.6313,-4.6236,-4.618,-4.6102,-4.6104,-4.6095,-4.6096,-4.6161,-4.6201,-4.6203,-4.6256,-4.6289,-4.6289,-4.6297,-4.6303,-4.6303,-4.63,-4.63,-4.63,-4.63,-4.63,-4.63,-4.6358,-4.685,-4.7501,0.0,0.0,-5.5403,-5.5403,-5.5403,-5.5377,-5.526,-5.526,-5.5113,-5.4716,-5.4685,-5.4591,-5.4349,-5.4528,-5.4604,-5.449,-5.4187,-5.4048,-5.4048,-5.3923,-5.403,-5.4322,-5.4322,-5.4425,-5.4673,-5.4704,-5.4692,-5.4597,-5.4711,-5.447,-5.3992,-5.3783,-5.2911,-5.149,-5.1282,-5.0713,-4.9898,-4.9898,-4.9898,-4.9898,-4.9898,-4.9898,-4.9898,-4.9898,-4.9898,-4.9898,-4.9898,-4.9898,-4.9898,-4.9898,-4.9898,-4.9898,-4.9898,-4.9898,-4.9898,-4.9898,-4.9898,-4.9898,-4.9898,-4.9952,-4.9978,-4.9978,-5.0031,-5.0139,-5.0339,-5.0404,-5.0448,-5.0564,-5.0758,-5.0923,-5.0959,-5.1097,-5.1211,-5.1276,-5.1284,-5.1284,-5.13,-5.13,-5.13,0.0,-5.13,-5.13,-5.13,-5.1106,-5.0989,0.0,0.0,0.0,0.0,-4.9527,-4.8729,-4.7248,-4.7182,-4.6843,-4.6181,-4.613,-4.6066,-4.6025,-4.6095,-4.6119,-4.6125,-4.6191,-4.6215,-4.6226,-4.6288,-4.6303,-4.6303,-4.6309,-4.63,-4.63,-4.63,-4.6273,-4.6294,-4.6972,-4.7306,-4.7599,-5.5403,-5.5403,-5.5403,-5.5403,-5.5403,-5.5403,-5.5403,-5.5403,-5.5332,-5.5113,-5.5066,-5.5009,-5.4814,-5.4981,-5.5066,-5.5066,-5.4855,-5.4697,-5.4697,-5.4566,-5.4579,-5.4817,-5.4787,-5.4855,-5.5038,-5.5057,-5.5028,-5.496,-5.496,-5.4514,-5.3688,-5.329,-5.2419,-5.1187,-5.0789,-5.0334,-4.9898,-4.9898,-4.9898,-4.9898,-4.9898,-4.9898,-4.9898,-4.9898,-4.9898,-4.9898,-4.9898,-4.9898,-4.9898,-4.9898,-4.9925,-4.9952,-4.9952,-4.9978,-5.0005,-5.0005,-4.9978,-4.9933,-4.9978,-5.0031,-5.0057,-5.0063,-5.0188,-5.0336,-5.0529,-5.0659,-5.0761,-5.0887,-5.1004,-5.1089,-5.1141,-5.1201,-5.1248,-5.1292,-5.13,-5.13,-5.13,-5.13,0.0,-5.13,-5.13,-5.13,-5.13,-5.13,-5.13,-5.13,-5.13,0.0,-5.0618,-5.0599,-4.9839,-4.8144,-4.8086,-4.7871,-4.7384,-4.6953,-4.6528,-4.6093,-4.6138,-4.6142,-4.6157,-4.6172,-4.6199,-4.6192,-4.6247,-4.6269,-4.6307,-4.63,-4.6287,-4.6284,-4.6694,-4.6816,-4.6846,-4.7736,-4.8261,-4.8669,-5.5403,-5.5403,-5.5403,-5.5403,-5.5403,-5.5403,-5.5403,-5.5403,-5.5403,-5.5403,-5.5403,-5.5403,-5.5403,-5.5403,-5.5403,-5.5403,-5.5403,-5.5403,-5.5403,-5.5294,-5.5229,-5.5229,-5.5195,-5.514,-5.5121,-5.5094,-5.5057,-5.5,-5.4886,-5.4353,-5.348,-5.2627,-5.1793,-5.0978,-5.022,-4.9898,-4.9898,-4.9898,-4.9898,-4.9898,-4.9898,-4.9898,-4.9898,-4.9898,-4.9898,-4.9879,-4.9906,-4.9925,-4.9925,-4.9925,-4.9978,-5.0031,-5.0031,-5.0057,-5.0108,-5.0108,-5.0082,-5.0057,-5.0082,-5.0133,-5.0163,-5.0259,-5.0402,-5.0587,-5.0809,-5.0978,-5.1139,-5.1265,-5.13,-5.13,-5.13,-5.13,-5.13,-5.13,-5.13,-5.13,-5.13,0.0,-5.13,-5.13,-5.13,-5.13,-5.13,-5.13,-5.13,-5.13,-5.13,-5.13,-5.13,-5.13,-5.0657,-4.9216,-4.904,-4.8923,-4.8806,-4.8066,-4.7326,-4.6585,-4.6585,-4.6585,-4.6585,-4.6591,-4.6587,-4.6592,-4.6583,-4.6617,-4.668,-4.6679,-4.6649,-4.6665,-4.7421,-4.7665,-4.77,-4.8557,-4.9311,-4.9917,-5.5403,-5.5403,-5.5403,-5.5403,-5.5403,-5.5403,-5.5403,-5.5403,-5.5403,-5.5403,-5.5403,-5.5403,-5.5403,-5.5403,-5.5403,-5.5403,-5.5403,-5.5403,-5.5403,-5.5377,-5.5358,-5.5358,-5.5358,-5.5313,-5.5203,-5.5066,-5.5,-5.5,-5.4258,-5.3442,-5.2589,-5.1774,-5.094,-5.0088,-4.9955,-4.9898,-4.9898,-4.9898,-4.9898,-4.9898,-4.9898,-4.9898,-4.9898,-4.9898,-4.9898,-4.9925,-4.9959,-4.9959,-5.0005,-5.0057,-5.0082,-5.0082,-5.0082,-5.0082,-5.0108,-5.0182,-5.0182,-5.0163,-5.0108,-5.0264,-5.0445,-5.0507,-5.0642,-5.0809,-5.1005,-5.1093,-5.1139,-5.1265,-5.13,-5.13,-5.13,-5.13,-5.13,-5.13,-5.13,-5.13,-5.13,0.0,-5.13,-5.13,-5.13,-5.13,-5.13,-5.13,-5.13,-5.13,-5.13,-5.13,-5.13,-5.13,-5.1183,-5.093,-5.0209,-4.9488,-4.8806,-4.867,-4.8534,-4.8397,-4.8397,-4.8397,-4.8397,-4.8405,-4.8392,-4.8392,-4.8401,-4.84,-4.8408,-4.8412,-4.8417,-4.8415,-4.8545,-4.8554,-4.8593,-4.941,-4.979,-5.0009,-5.5403,-5.5403,-5.5403,-5.5403,-5.5403,-5.5403,-5.5403,-5.5403,-5.5403,-5.5403,-5.5403,-5.5403,-5.5403,-5.5403,-5.5403,-5.5403,-5.5403,-5.5403,-5.5403,-5.5403,-5.5403,-5.5403,-5.5403,-5.5358,-5.5313,-5.526,-5.495,-5.4391,-5.4002,-5.311,-5.1755,-5.1376,-5.0732,-4.9898,-4.9898,-4.9898,-4.9898,-4.9898,-4.9898,-4.9898,-4.9898,-4.9898,-4.9906,-4.9952,-4.9933,-4.9978,-5.0031,-5.0057,-5.0057,-5.0082,-5.0133,-5.0139,-5.0139,-5.024,-5.0377,-5.0421,-5.0421,-5.0421,-5.0377,-5.0509,-5.0659,-5.0713,-5.0844,-5.0992,-5.1093,-5.115,-5.123,-5.1292,-5.13,-5.13,-5.13,-5.13,-5.13,-5.13,-5.13,0.0,0.0,-5.13,-5.13,-5.13,-5.13,-5.13,-5.13,-5.13,-5.13,-5.13,-5.13,-5.13,-5.13,-5.13,-5.13,-5.13,-5.0911,-5.0307,-4.9449,-4.9449,-4.9235,-4.8806,-4.8806,-4.8806,-4.8806,-4.8806,-4.8806,-4.8806,-4.8802,-4.8791,-4.879,-4.8794,-4.8788,-4.879,-4.925,-4.9406,-4.9459,-5.0284,-5.0603,-5.0658,-5.5403,-5.5403,-5.5403,-5.5403,-5.5403,-5.5403,-5.5403,-5.5403,-5.5403,-5.5403,-5.5403,-5.5403,-5.5403,-5.5403,-5.5403,-5.5403,-5.5403,-5.5403,-5.5403,-5.5403,-5.5403,-5.5403,-5.5403,-5.5403,-5.5403,-5.5186,-5.4695,-5.3922,-5.3541,-5.2604,-5.1261,-5.1052,-5.0597,-4.9952,-4.9952,-4.9952,-4.9952,-4.9952,-4.9952,-4.9952,-4.9952,-4.9952,-4.9933,-5.0005,-5.0031,-5.0031,-5.0108,-5.0133,-5.0133,-5.0133,-5.0182,-5.0236,-5.0283,-5.0423,-5.0625,-5.0644,-5.068,-5.0717,-5.0662,-5.0764,-5.087,-5.087,-5.1017,-5.1139,-5.1139,-5.123,-5.13,-5.13,-5.13,-5.13,-5.13,-5.13,-5.13,-5.13,0.0,0.0,0.0,-5.13,-5.13,-5.13,-5.13,-5.13,-5.13,-5.13,-5.13,-5.13,-5.13,-5.13,-5.13,-5.13,-5.13,-5.13,-5.13,-5.0989,-5.0307,-5.0307,-4.9995,-4.9372,-4.9372,-4.9372,-4.9372,-4.9372,-4.9372,-4.9379,-4.9374,-4.9385,-4.9395,-4.9407,-4.9355,-4.9362,-5.004,-5.026,-5.027,-5.095,-5.1202,-5.1202,-5.5403,-5.5403,-5.5403,-5.5403,-5.5403,-5.5403,-5.5403,-5.5403,-5.5403,-5.5403,-5.5403,-5.5403,-5.5403,-5.5403,-5.5403,-5.5403,-5.5403,-5.5403,-5.5403,-5.5403,-5.5403,-5.5403,-5.5403,-5.5403,-5.5403,-5.4542,-5.4078,-5.4001,-5.2379,-5.1535,-5.1357,-5.0558,-5.0139,-5.0082,-5.0082,-5.0082,-5.0082,-5.0082,-5.0082,-5.0082,-5.0082,-5.0082,-5.0082,-5.0082,-5.0082,-5.0108,-5.0182,-5.0188,-5.0188,-5.0278,-5.0278,-5.0325,-5.0526,-5.0567,-5.0625,-5.0745,-5.0918,-5.1024,-5.084,-5.0932,-5.1093,-5.1093,-5.1181,-5.1292,-5.1292,-5.1292,-5.13,-5.13,-5.13,-5.13,-5.13,-5.13,-5.13,-5.13,0.0,0.0,-5.13,-5.13,-5.13,-5.13,-5.13,-5.13,-5.13,-5.13,-5.13,-5.13,-5.13,-5.13,-5.13,-5.13,-5.13,-5.13,-5.13,-5.1261,-5.1203,-5.1203,-5.1164,-5.1125,-5.1125,-5.1125,-5.1125,-5.1125,-5.1113,-5.1115,-5.1115,-5.1148,-5.1205,-5.1221,-5.1166,-5.1112,-5.118,-5.116,-5.1105,-5.1183,-5.1202,-5.1202,-5.5403,-5.5403,-5.5403,-5.5403,-5.5403,-5.5403,-5.5403,-5.5403,-5.5403,-5.5403,-5.5403,-5.5403,-5.5403,-5.5403,-5.5403,-5.5403,-5.5403,-5.5403,-5.5403,-5.5403,-5.5403,-5.5403,-5.4887,-5.46,-5.46,-5.3716,-5.3003,-5.2457,-5.1783,-5.1167,-5.0602,-5.026,-5.0108,-5.0108,-5.0108,-5.0108,-5.0108,-5.0108,-5.0108,-5.0108,-5.0108,-5.0108,-5.0108,-5.0158,-5.0163,-5.0188,-5.0377,-5.0464,-5.0466,-5.0568,-5.0605,-5.0623,-5.0694,-5.0813,-5.0937,-5.1078,-5.1162,-5.122,-5.1122,-5.1181,-5.123,-5.123,-5.1256,-5.13,-5.13,-5.13,-5.13,-5.13,-5.13,-5.13,-5.13,-5.13,-5.13,-5.13,0.0,-5.13,-5.13,-5.13,-5.13,-5.13,-5.13,-5.13,-5.13,-5.13,-5.13,-5.13,-5.13,-5.13,-5.13,-5.13,-5.13,-5.13,-5.13,-5.13,-5.13,-5.13,-5.13,-5.13,-5.13,-5.13,-5.13,-5.1296,-5.1303,-5.1297,-5.1336,-5.1386,-5.1391,-5.1391,-5.1367,-5.1301,-5.1244,-5.1217,-5.1202,-5.1202,-5.1202,-5.1202,-5.5403,-5.5403,-5.5403,-5.5403,-5.5403,-5.5403,-5.5403,-5.5403,-5.5403,-5.5403,-5.5403,-5.5403,-5.5403,-5.5403,-5.5403,-5.5403,-5.5403,-5.5403,-5.5403,-5.5135,-5.5002,-5.5002,-5.4428,-5.397,-5.3702,-5.2862,-5.2131,-5.1528,-5.1261,-5.0779,-5.0158,-5.0158,-5.0158,-5.0158,-5.0158,-5.0158,-5.0158,-5.0158,-5.0158,-5.0158,-5.0158,-5.0158,-5.0163,-5.0264,-5.0333,-5.0355,-5.0587,-5.0662,-5.068,-5.0778,-5.079,-5.0805,-5.087,-5.1017,-5.1171,-5.1265,-5.13,-5.13,-5.13,-5.13,-5.13,-5.13,-5.13,-5.13,-5.13,-5.13,-5.13,-5.13,-5.13,-5.13,-5.13,-5.13,-5.13,-5.13,-5.13,-5.13,-5.13,-5.13,-5.13,-5.13,-5.13,-5.13,-5.13,-5.13,-5.13,-5.13,-5.13,-5.13,-5.13,-5.13,-5.13,-5.1289,-5.1289,-5.1289,-5.1289,-5.13,-5.13,-5.13,-5.1308,-5.1289,-5.1289,-5.131,-5.1323,-5.133,-5.1372,-5.1401,-5.1406,-5.1403,-5.1363,-5.1293,-5.1232,-5.1201,-5.1202,-5.1202,-5.1202,-5.1202,-5.5403,-5.5403,-5.5403,-5.5403,-5.5403,-5.5403,-5.5403,-5.5403,-5.5403,-5.5403,-5.5403,-5.5403,-5.5403,-5.5403,-5.5403,-5.5403,-5.5403,-5.5403,-5.5403,-5.4581,-5.4085,-5.4085,-5.4085,-5.3683,-5.2805,-5.2002,-5.1601,-5.1601,-5.0722,-5.0302,-5.0302,-5.0302,-5.0302,-5.0302,-5.0302,-5.0302,-5.0302,-5.0302,-5.0302,-5.0302,-5.0302,-5.0302,-5.0325,-5.0526,-5.0587,-5.0625,-5.0761,-5.079,-5.079,-5.0805,-5.0805,-5.084,-5.1049,-5.1181,-5.13,-5.13,-5.13,-5.13,-5.13,-5.13,-5.13,-5.13,-5.13,-5.13,-5.13,-5.13,-5.13,-5.13,-5.13,-5.13,-5.13,-5.13,-5.13,-5.13,-5.13,-5.13,-5.13,-5.13,-5.13,-5.13,-5.13,-5.13,-5.13,-5.13,-5.13,-5.13,-5.13,-5.13,-5.13,-5.13,-5.1289,-5.1291,-5.1291,-5.1291,-5.1291,-5.1289,-5.13,-5.13,-5.1303,-5.1291,-5.1291,-5.1369,-5.1405,-5.1396,-5.1396,-5.1406,-5.1398,-5.1404,-5.1363,-5.1293,-5.1232,-5.1201,-5.1202,-5.1202,-5.1202,-5.1202,-5.5403,-5.5403,-5.5403,-5.5403,-5.5403,-5.5403,-5.5403,-5.5403,-5.5403,-5.5403,-5.5403,-5.5403,-5.5403,-5.5403,-5.5403,-5.5403,-5.5403,-5.5135,-5.4524,-5.3664,-5.2938,-5.2365,-5.2346,-5.2231,-5.1964,-5.1123,-5.0684,-5.0684,-5.0436,-5.0302,-5.0302,-5.0302,-5.0302,-5.0302,-5.0442,-5.0506,-5.0526,-5.0605,-5.0659,-5.0659,-5.0659,-5.0659,-5.0659,-5.0711,-5.0745,-5.0761,-5.0951,-5.1005,-5.1017,-5.1111,-5.1152,-5.1162,-5.121,-5.1276,-5.13,-5.13,-5.13,-5.13,-5.13,-5.13,-5.13,-5.13,-5.13,-5.13,-5.13,-5.13,-5.13,-5.13,-5.13,-5.13,-5.13,-5.13,-5.13,-5.13,-5.13,-5.13,-5.13,-5.13,-5.13,-5.13,-5.13,-5.13,-5.13,-5.13,-5.13,-5.13,-5.13,-5.1308,-5.1303,-5.1303,-5.131,-5.1369,-5.1369,-5.1369,-5.1369,-5.1362,-5.1356,-5.1303,-5.1343,-5.1369,-5.1369,-5.1386,-5.1396,-5.1396,-5.1406,-5.139,-5.1398,-5.1346,-5.1327,-5.1288,-5.1228,-5.1197,-5.1202,-5.1202,-5.1202,-5.1202,-5.5428,-5.5403,-5.5403,-5.5403,-5.5403,-5.5403,-5.5403,-5.5403,-5.5403,-5.5403,-5.5403,-5.5403,-5.5403,-5.5403,-5.5269,-5.4925,-5.4581,-5.4142,-5.3626,-5.2785,-5.2117,-5.162,-5.1276,-5.1132,-5.1204,-5.0734,-5.0508,-5.0508,-5.0508,-5.0508,-5.0508,-5.0508,-5.0508,-5.0508,-5.0624,-5.0678,-5.0678,-5.0778,-5.079,-5.079,-5.079,-5.079,-5.0805,-5.0884,-5.0918,-5.0945,-5.1109,-5.1171,-5.1181,-5.1265,-5.13,-5.13,-5.13,-5.13,-5.13,-5.13,-5.13,-5.13,-5.13,-5.13,-5.13,-5.13,-5.13,-5.13,-5.13,-5.13,-5.13,-5.13,-5.13,-5.13,-5.13,-5.13,-5.13,-5.13,-5.13,-5.13,-5.13,-5.13,-5.13,-5.13,-5.13,-5.13,-5.13,-5.13,-5.13,-5.1296,-5.1323,-5.1349,-5.1343,-5.1343,-5.1369,-5.1405,-5.1405,-5.1405,-5.1405,-5.1411,-5.138,-5.1343,-5.1375,-5.1405,-5.1405,-5.1401,-5.1406,-5.1406,-5.139,-5.1402,-5.1398,-5.1338,-5.1284,-5.1258,-5.122,-5.1202,-5.1202,-5.1202,-5.1202,-5.1202,-5.5465,-5.5409,-5.5403,-5.5403,-5.5403,-5.5403,-5.5403,-5.5403,-5.5403,-5.5403,-5.5403,-5.5365,-5.5288,-5.5288,-5.4925,-5.4065,-5.3187,-5.269,-5.269,-5.1926,-5.1486,-5.1486,-5.0746,-5.0399,-5.0606,-5.0731,-5.0774,-5.0774,-5.079,-5.079,-5.079,-5.079,-5.079,-5.079,-5.0825,-5.084,-5.084,-5.0835,-5.0835,-5.0835,-5.0835,-5.0835,-5.085,-5.1062,-5.1117,-5.1128,-5.1248,-5.13,-5.13,-5.13,-5.13,-5.13,-5.13,-5.13,-5.13,-5.13,-5.13,-5.13,-5.13,-5.13,-5.13,-5.13,-5.13,-5.13,-5.13,-5.13,-5.13,-5.13,-5.13,-5.13,-5.13,-5.13,-5.13,-5.13,-5.13,-5.13,-5.13,-5.13,-5.13,-5.13,-5.13,-5.13,-5.1308,-5.1308,-5.1316,-5.131,-5.1369,-5.1394,-5.1394,-5.1394,-5.1405,-5.1401,-5.1401,-5.1401,-5.1401,-5.141,-5.1401,-5.1394,-5.1391,-5.1401,-5.1401,-5.139,-5.1394,-5.1394,-5.1398,-5.1396,-5.1386,-5.1327,-5.1263,-5.1195,-5.1208,-5.1202,-5.1202,-5.1202,-5.1202,-5.1171,-5.5647,-5.5508,-5.5396,-5.5403,-5.5403,-5.5403,-5.5403,-5.5403,-5.5403,-5.5403,-5.5403,-5.5135,-5.4467,-5.439,-5.4027,-5.3148,-5.2327,-5.1868,-5.1868,-5.1066,-5.0588,-5.0588,-5.0558,-5.0567,-5.0606,-5.0625,-5.0643,-5.0643,-5.0745,-5.079,-5.079,-5.079,-5.079,-5.0805,-5.0959,-5.1017,-5.1049,-5.1141,-5.1181,-5.1181,-5.1181,-5.1181,-5.1201,-5.1248,-5.1248,-5.1256,-5.1292,-5.13,-5.13,-5.13,-5.13,-5.13,-5.13,-5.13,-5.13,-5.13,-5.13,-5.13,-5.13,-5.13,-5.13,-5.13,-5.13,-5.13,-5.13,-5.13,-5.13,-5.13,-5.13,-5.13,-5.13,-5.13,-5.13,-5.13,-5.13,-5.13,-5.13,-5.13,-5.1308,-5.1303,-5.1289,-5.1316,-5.1362,-5.1382,-5.1382,-5.1388,-5.1394,-5.14,-5.1391,-5.1391,-5.1401,-5.139,-5.139,-5.139,-5.139,-5.1394,-5.1406,-5.1391,-5.1406,-5.139,-5.139,-5.1394,-5.1394,-5.1394,-5.14,-5.1406,-5.1386,-5.1274,-5.1218,-5.1195,-5.1208,-5.1202,-5.1202,-5.1202,-5.1171,-5.1127,-5.5859,-5.5769,-5.567,-5.5554,-5.5527,-5.5499,-5.5409,-5.5059,-5.4791,-5.4791,-5.4428,-5.3989,-5.3531,-5.3473,-5.3129,-5.2308,-5.1467,-5.099,-5.099,-5.055,-5.0302,-5.0302,-5.0396,-5.0506,-5.0606,-5.0662,-5.0731,-5.0832,-5.0903,-5.0972,-5.1035,-5.1035,-5.1035,-5.1047,-5.1141,-5.1201,-5.1211,-5.1256,-5.13,-5.13,-5.13,-5.13,-5.13,-5.13,-5.13,-5.13,-5.13,-5.13,-5.13,-5.13,-5.13,-5.13,-5.13,-5.13,-5.13,-5.13,-5.13,-5.13,-5.13,-5.13,-5.13,-5.13,-5.13,-5.13,-5.13,-5.13,-5.13,-5.13,-5.13,-5.13,-5.13,-5.13,-5.13,-5.13,-5.13,-5.13,-5.1296,-5.1296,-5.1303,-5.1343,-5.1356,-5.1356,-5.1394,-5.14,-5.1405,-5.1405,-5.1391,-5.1396,-5.1406,-5.1406,-5.141,-5.1394,-5.1394,-5.1394,-5.1394,-5.1394,-5.139,-5.1406,-5.139,-5.1394,-5.1394,-5.1394,-5.1405,-5.1398,-5.1406,-5.1363,-5.1297,-5.1232,-5.1198,-5.1211,-5.1206,-5.1202,-5.1202,-5.1171,-5.1114,-5.1042,-5.609,-5.6015,-5.5901,-5.5576,-5.5518,-5.5378,-5.5068,-5.4383,-5.3874,-5.3874,-5.3244,-5.2747,-5.2614,-5.2461,-5.2098,-5.1448,-5.0769,-5.0352,-5.0352,-5.0352,-5.0374,-5.0377,-5.0374,-5.0442,-5.0644,-5.0745,-5.0903,-5.1105,-5.1128,-5.1181,-5.13,-5.13,-5.13,-5.13,-5.13,-5.13,-5.13,-5.13,-5.13,-5.13,-5.13,-5.13,-5.13,-5.13,-5.13,-5.13,-5.13,-5.13,-5.13,-5.13,-5.13,-5.13,-5.13,-5.13,-5.13,-5.13,-5.13,-5.13,-5.1308,-5.13,-5.13,-5.1308,-5.1308,-5.1308,-5.1308,-5.1308,-5.13,-5.13,-5.13,-5.13,-5.13,-5.13,-5.13,-5.13,-5.13,-5.1308,-5.1303,-5.1291,-5.1317,-5.1394,-5.14,-5.14,-5.14,-5.1391,-5.1401,-5.1401,-5.141,-5.1394,-5.1394,-5.1394,-5.1394,-5.1394,-5.1394,-5.1394,-5.1394,-5.1394,-5.1398,-5.1405,-5.1405,-5.1405,-5.1405,-5.1405,-5.14,-5.1386,-5.1364,-5.1297,-5.1203,-5.1206,-5.1211,-5.1202,-5.1202,-5.1202,-5.1171,-5.1114,-5.1042,-5.1005,-5.6251,-5.6122,-5.5744,-5.4971,-5.4723,-5.4381,-5.3531,-5.3207,-5.3025,-5.2977,-5.2862,-5.2537,-5.1849,-5.1085,-5.0588,-5.0493,-5.054,-5.0567,-5.0567,-5.0567,-5.0606,-5.0745,-5.0625,-5.0625,-5.0778,-5.079,-5.0903,-5.1105,-5.122,-5.1284,-5.13,-5.13,-5.13,-5.13,-5.13,-5.13,-5.13,-5.13,-5.13,-5.13,-5.13,-5.13,-5.13,-5.13,-5.13,-5.13,-5.13,-5.13,-5.13,-5.13,-5.13,-5.13,-5.13,-5.13,-5.13,-5.13,-5.13,-5.13,-5.1303,-5.1296,-5.1308,-5.1362,-5.1336,-5.131,-5.1362,-5.1342,-5.13,-5.13,-5.13,-5.13,-5.13,-5.13,-5.13,-5.13,-5.13,-5.13,-5.13,-5.1303,-5.1317,-5.1394,-5.1396,-5.1406,-5.1396,-5.1406,-5.139,-5.139,-5.1394,-5.1394,-5.1394,-5.1394,-5.1394,-5.1394,-5.1394,-5.1394,-5.1394,-5.1394,-5.1391,-5.1406,-5.1406,-5.1406,-5.1406,-5.1406,-5.1365,-5.1304,-5.1258,-5.1225,-5.1195,-5.121,-5.1194,-5.1202,-5.1202,-5.1171,-5.1114,-5.1048,-5.102,-5.0986,-5.5028,-5.4933,-5.4723,-5.4237,-5.4084,-5.3848,-5.3243,-5.2684,-5.2312,-5.2188,-5.1763,-5.1323,-5.0913,-5.0531,-5.0302,-5.0302,-5.0485,-5.0587,-5.0587,-5.068,-5.0728,-5.079,-5.0745,-5.0797,-5.0959,-5.0978,-5.1042,-5.122,-5.1201,-5.123,-5.13,-5.13,-5.13,-5.13,-5.13,-5.13,-5.13,-5.13,-5.13,-5.13,-5.13,-5.13,-5.13,-5.13,-5.13,-5.13,-5.13,-5.13,-5.13,-5.13,-5.1308,-5.1296,-5.1296,-5.1323,-5.1349,-5.1349,-5.1349,-5.1356,-5.1362,-5.1356,-5.1356,-5.1388,-5.1388,-5.1369,-5.1394,-5.1382,-5.1349,-5.1349,-5.1349,-5.1349,-5.1349,-5.1349,-5.1349,-5.1349,-5.1349,-5.1356,-5.1369,-5.1355,-5.1366,-5.1396,-5.141,-5.1394,-5.1406,-5.139,-5.1394,-5.1394,-5.1394,-5.1394,-5.1394,-5.1394,-5.1394,-5.1394,-5.1394,-5.1405,-5.14,-5.14,-5.1386,-5.1338,-5.1338,-5.1338,-5.1338,-5.1338,-5.1301,-5.1252,-5.1218,-5.1189,-5.1201,-5.1206,-5.1202,-5.1202,-5.1159,-5.1102,-5.1029,-5.1,-5.0971,-5.0941]}]]